GFSWCAN_500_spd_000.txt.gz
Wind_Speed
46 47 46 42 39 43 42 43 41 39 36 33 31 31 31 31 31 32 33 35 37 38 37 38 36 36 35 36 33 35 35 34 34 34 34 33 34 34 35 37 39 41 42 43 44 45 46 48 48 48 48 47 47 46
44 47 45 42 43 38 39 42 42 41 38 36 33 32 31 31 32 33 33 33 35 36 37 38 38 37 38 39 37 34 39 36 37 36 35 37 37 38 39 41 43 46 44 47 46 46 47 51 51 50 51 51 51 51
39 43 41 40 41 39 37 40 40 40 39 37 35 33 32 33 32 33 33 35 35 35 37 38 37 36 37 38 37 38 38 39 39 37 39 40 41 41 43 44 45 46 44 48 50 46 47 49 51 54 55 54 55 56
43 39 43 39 42 43 39 38 39 40 38 37 36 35 34 34 34 34 35 35 37 35 37 36 36 37 38 38 37 39 39 40 41 41 42 44 45 46 46 47 50 45 46 45 49 48 50 51 55 58 56 54 55 59
43 39 41 39 37 39 42 37 36 38 37 37 36 36 36 35 35 35 35 37 38 38 37 36 38 37 38 39 39 40 41 42 43 45 46 47 49 49 50 50 50 42 45 48 50 54 49 55 56 57 53 54 57 60
40 40 40 36 34 35 42 39 39 34 36 37 36 35 34 35 37 37 38 39 38 39 39 38 38 38 40 40 41 42 44 45 47 48 51 52 51 52 54 54 47 45 46 47 51 52 54 55 57 58 56 58 60 62
45 36 37 36 36 37 38 39 36 34 36 40 37 37 36 35 36 39 38 35 35 37 39 40 40 41 41 42 42 42 42 40 42 47 52 51 48 50 56 54 43 45 47 50 49 53 58 58 59 59 57 60 63 68
47 40 41 43 41 37 35 36 33 33 33 36 38 38 37 39 40 41 41 40 36 38 40 41 44 43 40 41 41 41 43 43 46 46 48 48 50 53 57 48 47 46 49 51 54 58 59 59 57 59 61 64 69 71
50 49 43 44 45 40 38 35 34 34 33 33 36 38 37 38 39 40 42 41 42 45 44 42 42 42 42 42 41 42 43 44 48 50 48 50 53 56 48 48 47 49 51 56 59 58 58 56 59 63 65 68 71 71
46 53 53 50 49 45 41 37 35 36 37 35 37 37 36 36 37 39 40 41 42 44 47 48 49 49 48 46 46 46 46 48 52 50 49 51 53 50 47 47 47 51 56 56 55 56 57 60 63 65 69 71 72 71
47 48 51 54 54 55 50 47 42 43 41 39 37 37 38 37 40 44 43 43 42 41 42 44 46 47 48 47 46 46 48 49 50 51 53 54 51 47 47 46 50 56 55 55 56 58 62 64 67 69 69 69 68 67
49 48 48 47 48 50 53 49 45 46 46 43 42 40 40 43 45 47 47 46 47 46 44 44 46 45 44 45 47 48 47 47 50 51 54 53 52 49 46 51 54 55 56 59 62 63 65 67 69 68 67 65 65 66
32 41 51 47 50 51 49 47 49 50 50 46 43 43 42 44 46 52 49 45 43 43 40 36 37 40 43 45 47 47 49 53 53 52 50 46 46 49 53 57 58 58 61 65 65 65 67 67 66 64 63 64 67 69
22 31 39 49 51 49 47 46 47 47 51 49 50 49 48 50 53 50 51 49 48 47 48 48 49 51 50 49 47 50 55 56 55 54 53 52 54 55 58 60 60 60 64 65 66 66 65 62 60 61 64 66 68 68
16 17 20 26 36 44 43 45 41 42 44 44 49 53 54 54 55 55 54 55 59 56 53 53 54 53 50 52 53 56 55 55 54 53 55 56 58 60 61 61 62 62 65 67 63 60 59 59 61 63 64 66 67 68
19 21 22 22 22 25 32 41 45 45 44 45 46 49 55 54 52 55 56 59 57 52 48 51 51 54 58 58 61 59 56 56 58 57 58 60 60 58 58 61 63 63 60 57 56 57 60 62 63 63 64 66 67 68
22 21 21 22 26 28 26 27 33 44 51 50 49 48 50 55 55 45 40 41 44 46 49 50 48 50 51 53 54 57 58 59 58 56 54 53 55 56 56 55 53 53 54 55 56 58 60 62 64 64 65 65 66 65
28 27 26 25 24 25 29 33 34 32 34 40 49 53 52 51 52 52 50 44 42 39 40 43 45 47 49 51 51 50 50 52 54 54 54 53 52 49 48 49 51 52 54 56 58 60 62 63 63 62 62 63 64 63
35 34 33 32 32 31 32 33 34 36 37 37 37 38 43 47 50 51 48 46 47 47 46 46 47 48 49 50 50 50 50 51 49 49 49 48 47 49 51 53 54 56 57 58 59 60 60 60 61 62 63 63 63 58
42 42 40 39 39 38 37 37 37 37 38 38 39 39 40 41 44 48 50 50 49 46 46 46 45 46 47 47 47 48 48 47 46 45 46 49 52 54 55 54 53 54 56 57 57 58 58 59 60 61 62 58 54 52
49 47 46 43 41 40 39 37 35 35 35 36 36 36 36 37 35 36 37 39 42 41 40 41 40 39 38 38 39 40 42 43 45 47 48 51 52 51 51 52 52 52 53 54 55 57 59 60 60 59 52 50 50 47
50 47 44 41 38 36 35 33 31 30 29 27 29 27 25 26 29 31 31 32 31 30 33 32 32 33 34 36 38 41 43 45 46 47 47 48 48 48 48 49 50 51 53 56 58 59 58 57 55 51 48 48 47 44
42 40 37 35 34 33 30 29 26 25 26 30 27 25 24 25 25 24 24 24 25 26 26 28 31 36 41 43 44 44 43 43 43 44 45 46 47 48 49 50 52 55 56 57 57 57 57 57 54 50 47 47 45 42
26 27 24 31 30 33 28 27 26 25 23 22 23 24 22 22 22 22 22 23 25 28 34 38 42 43 44 43 41 41 41 43 44 46 47 48 48 48 51 52 53 57 59 56 55 56 56 58 55 51 48 46 44 42
32 26 24 27 33 30 28 25 23 21 20 20 21 23 26 25 24 25 27 30 35 38 40 40 40 41 40 40 42 45 47 46 45 45 47 49 51 52 53 55 55 54 55 53 53 57 63 62 56 50 46 44 42 39
24 22 23 22 31 35 32 28 27 25 26 27 28 28 27 28 28 29 31 35 37 38 40 41 42 42 44 46 47 45 45 46 46 47 49 52 55 56 54 52 50 48 49 51 53 56 58 52 44 42 41 41 40 37
20 20 21 20 21 24 29 34 36 33 31 29 27 27 27 29 32 34 37 37 39 42 43 44 44 44 43 43 44 46 47 49 49 51 52 52 51 49 50 49 48 49 50 53 54 53 52 45 39 38 38 38 37 37
22 20 20 21 25 24 22 20 21 22 23 24 27 31 34 36 36 37 39 41 42 43 41 41 42 44 46 47 48 47 48 50 50 49 50 50 49 49 50 49 50 50 51 52 52 50 48 45 41 38 39 38 38 38
10 13 15 15 15 16 17 20 22 24 26 29 31 34 35 37 39 41 41 42 43 43 44 45 45 45 45 47 49 49 49 49 50 50 50 50 50 51 52 52 53 53 53 53 52 50 47 45 43 42 40 40 40 41
10 11 13 15 18 19 21 23 25 27 29 31 34 37 38 41 41 40 40 39 40 41 44 47 49 50 50 51 52 52 50 52 53 52 52 52 53 54 55 55 55 55 55 54 52 50 48 45 43 42 40 40 41 42
16 18 20 22 23 25 27 28 31 33 34 37 38 39 39 39 39 41 43 45 46 48 50 50 50 50 50 50 52 53 54 55 55 55 56 56 57 57 58 58 58 57 55 53 51 50 48 47 44 42 41 41 41 42
21 22 23 25 28 30 32 34 36 35 34 35 37 39 42 45 46 46 47 47 47 47 48 48 49 50 52 54 56 56 56 56 56 57 57 58 59 60 60 59 58 57 55 53 51 49 48 47 45 44 43 42 42 43
28 30 31 31 31 31 32 34 37 40 43 44 44 44 44 44 43 44 45 46 47 49 50 51 52 53 53 54 55 55 55 55 56 56 55 55 55 56 56 57 58 58 57 57 56 54 51 49 47 46 46 45 45 45

GFSWCAN_500_spd_003.txt.gz
Wind_Speed
46 47 42 43 43 43 43 42 40 38 36 33 31 31 30 30 30 33 37 39 40 40 40 40 39 35 36 35 32 31 31 30 32 33 33 34 36 37 36 35 34 36 38 38 41 43 45 47 48 47 46 49 48 47
39 40 44 43 42 39 41 42 41 39 37 35 33 31 30 30 31 32 33 35 37 38 39 41 40 39 39 38 34 35 37 33 37 36 35 38 39 39 38 39 39 41 41 42 44 46 48 52 51 51 52 53 50 51
42 37 41 43 42 44 39 42 42 40 38 37 34 32 31 31 31 31 33 34 34 35 37 40 39 38 38 39 37 37 38 37 37 37 40 41 41 40 40 40 41 43 45 47 50 50 52 57 55 53 54 53 52 53
42 41 42 45 43 41 44 42 40 40 39 39 37 35 33 31 31 32 32 33 33 34 36 36 37 37 38 40 39 37 38 39 38 39 41 42 42 43 42 43 45 40 45 46 50 50 53 54 53 56 55 53 55 58
37 35 43 40 39 37 37 39 37 38 39 39 39 37 36 34 33 32 33 34 34 34 35 34 35 35 35 36 37 38 37 38 39 39 40 41 43 43 45 46 45 40 46 48 49 50 53 51 54 54 53 56 58 58
36 35 43 42 38 36 37 38 37 39 40 39 39 39 38 37 36 34 34 34 33 33 35 34 34 33 35 36 35 36 36 37 37 38 40 42 42 43 47 47 43 41 42 44 52 53 50 53 55 52 56 58 58 56
45 42 35 32 38 37 39 39 41 38 37 39 39 39 39 37 36 35 34 31 31 32 34 36 36 34 35 36 34 32 33 34 35 37 41 41 41 43 48 49 39 42 45 49 49 48 51 52 52 54 58 57 55 57
46 42 41 37 36 36 35 36 37 38 38 37 36 38 37 37 36 35 33 32 33 35 34 37 38 35 33 33 29 32 33 34 33 32 39 39 43 46 50 43 45 47 48 48 48 49 53 53 55 59 60 57 58 62
43 44 43 39 39 38 36 34 33 34 33 35 35 34 38 39 37 35 36 35 34 36 35 36 36 36 33 34 35 34 34 34 37 42 43 45 47 49 46 47 48 48 48 48 49 51 51 53 59 61 59 61 64 67
38 43 41 38 38 39 37 36 35 35 35 34 36 35 34 37 38 37 38 37 37 38 39 40 39 40 40 40 40 42 41 43 46 46 47 50 52 50 45 46 49 50 50 51 53 51 52 56 58 59 62 65 68 70
34 33 45 42 40 40 38 39 39 38 37 35 35 31 29 29 34 37 39 36 36 35 35 36 34 37 40 40 40 42 44 47 49 49 52 53 51 42 42 44 46 50 52 51 48 52 56 58 59 60 63 67 70 71
37 36 39 40 39 37 37 40 41 40 37 36 35 33 33 33 32 37 36 36 36 35 37 36 34 35 39 41 43 44 45 46 46 45 49 50 48 45 46 48 48 47 45 47 53 56 58 60 60 63 66 68 69 65
35 38 40 41 43 44 46 45 45 45 42 41 39 38 39 38 38 39 38 37 38 38 38 37 36 35 35 37 39 40 42 45 47 50 51 50 47 48 51 53 52 52 53 54 56 61 63 63 65 66 68 66 62 61
28 31 32 39 46 46 47 50 48 49 48 45 48 47 46 46 46 43 43 43 42 40 40 41 42 43 43 44 44 46 49 53 56 55 52 50 51 54 56 55 54 54 55 59 63 65 64 64 65 65 61 59 61 63
17 22 26 30 33 38 45 47 47 48 46 46 45 47 50 51 50 49 47 45 47 49 49 50 51 48 47 47 49 53 54 54 53 54 54 55 57 59 58 57 58 59 61 60 60 61 61 60 58 57 58 61 64 67
12 12 14 18 24 31 37 41 44 45 41 43 44 44 45 45 48 49 49 47 48 51 53 52 51 53 55 53 50 50 49 50 54 57 57 58 59 57 56 55 55 55 55 57 57 56 55 56 57 57 61 65 68 69
16 17 17 17 17 19 23 27 33 41 45 43 41 41 43 45 46 46 51 55 52 48 46 49 53 53 51 51 49 49 49 51 54 54 50 46 45 47 49 50 51 51 50 50 51 52 55 58 61 64 64 64 63 63
21 20 20 20 20 21 23 25 25 25 27 31 37 45 48 47 47 47 48 48 48 50 53 47 42 38 37 39 44 48 50 48 44 43 45 47 48 47 48 48 48 48 49 52 55 56 58 60 60 61 61 59 59 61
26 26 26 26 26 26 25 25 24 25 27 30 32 32 32 32 37 43 46 49 49 49 48 44 39 41 42 44 44 46 47 48 49 47 46 47 49 48 48 49 49 52 53 55 58 58 58 57 56 57 58 60 60 58
33 33 33 33 33 33 33 32 32 31 30 31 32 34 35 36 36 37 36 36 37 38 41 42 40 38 38 40 42 44 45 46 46 45 43 43 44 44 46 49 51 53 55 54 53 53 54 54 54 56 58 59 56 55
41 42 42 42 41 41 41 39 39 38 37 36 36 36 37 37 37 36 36 37 37 37 33 37 39 37 34 32 32 33 34 34 35 37 39 42 46 48 49 50 51 51 50 51 52 52 52 54 54 56 54 54 53 53
49 50 49 49 49 49 48 47 44 41 40 38 36 35 34 34 33 32 31 30 29 29 32 31 29 27 25 25 26 29 31 34 38 42 42 42 43 45 46 48 49 50 50 50 51 52 53 54 55 54 51 50 51 56
53 54 53 53 51 50 47 44 42 39 36 33 31 29 26 22 21 21 21 22 24 24 23 23 22 22 24 27 32 36 38 42 42 41 43 43 45 46 48 49 50 50 50 50 53 54 56 55 54 51 49 51 54 57
47 46 45 44 42 37 35 34 33 32 28 25 23 22 24 27 28 28 25 23 22 23 24 25 26 29 34 36 37 38 39 42 43 45 46 47 48 48 48 48 50 53 54 55 55 56 54 53 53 51 51 52 52 53
19 21 26 21 15 17 24 28 27 26 23 22 23 21 19 19 21 23 23 24 24 25 28 30 32 34 38 38 40 42 44 45 46 48 50 50 49 49 49 52 54 54 56 57 56 54 52 52 51 50 50 50 49 49
3 12 21 10 7 12 19 22 21 24 23 23 21 20 21 22 23 24 23 26 30 31 32 36 40 41 42 44 46 47 49 49 49 49 50 52 53 54 53 54 56 56 57 56 54 52 50 50 49 49 49 49 48 47
8 6 5 8 9 8 8 11 22 24 23 24 24 28 31 31 32 31 30 29 31 34 38 42 45 47 48 49 50 50 49 50 52 53 54 55 54 55 55 55 54 54 53 53 52 51 51 51 51 51 51 50 49 47
7 6 4 6 9 9 10 13 14 21 29 32 35 33 28 27 27 29 32 35 39 41 43 46 48 49 51 53 53 53 52 52 52 55 57 55 56 56 55 55 56 55 54 54 54 55 56 55 55 55 54 51 49 47
11 12 12 16 16 18 20 20 19 18 18 19 20 22 26 29 33 36 39 41 43 46 47 49 49 50 51 52 52 51 52 54 54 55 57 57 56 58 59 59 59 59 59 59 60 60 60 60 60 58 54 52 49 45
8 11 12 14 14 15 15 15 17 19 21 24 27 29 32 35 37 40 42 43 43 45 45 47 48 50 52 55 56 57 55 56 55 55 55 56 57 59 59 59 59 59 59 60 60 60 59 59 58 56 52 50 48 45
10 11 13 14 16 18 20 22 24 27 29 31 34 35 37 38 37 36 38 40 43 47 51 53 53 52 51 50 51 52 54 54 55 56 57 57 58 58 58 58 58 57 57 56 55 55 55 56 55 54 52 50 47 45
15 17 19 21 22 24 27 29 31 33 34 35 35 35 36 39 43 45 46 47 48 49 49 50 51 53 54 55 55 55 56 56 56 56 55 55 54 52 51 50 50 51 53 55 57 58 57 57 56 54 52 50 48 46
25 27 28 29 30 30 32 34 36 37 38 40 41 43 44 44 43 44 46 47 48 50 51 52 55 56 58 57 56 54 53 51 50 47 45 44 44 43 43 47 49 50 53 54 53 50 48 45 45 44 44 44 44 45

GFSWCAN_500_spd_006.txt.gz
Wind_Speed
48 47 54 64 56 53 50 47 44 42 37 35 35 35 38 41 44 46 45 44 43 43 42 41 40 38 35 33 33 32 32 30 30 30 31 32 34 33 34 34 35 38 40 38 40 40 41 41 43 44 45 45 49 52
54 59 64 60 55 52 49 46 42 40 38 34 33 33 34 36 39 41 41 41 41 42 41 41 40 39 38 37 38 38 38 36 36 34 35 36 38 39 38 39 37 39 40 42 41 40 41 44 45 46 46 48 55 54
51 59 57 54 52 50 47 45 42 39 37 36 33 31 31 31 32 33 34 35 38 39 41 42 42 42 41 41 41 40 41 40 39 38 38 38 39 39 41 41 43 41 43 44 43 41 42 45 46 50 52 57 60 56
45 47 49 45 46 47 46 45 43 40 38 36 34 32 31 30 30 30 30 30 32 33 35 37 39 40 40 40 39 40 40 37 38 39 40 39 39 41 40 42 44 38 44 43 47 45 47 46 47 51 56 60 57 55
46 47 45 47 45 42 43 44 42 40 38 37 35 34 33 32 31 30 30 30 30 31 31 33 35 36 36 36 37 37 39 39 37 36 36 37 39 39 40 42 39 34 39 41 41 42 43 43 47 52 55 56 55 55
35 35 43 41 38 40 38 37 38 40 38 38 38 36 34 33 32 32 32 33 32 31 31 31 33 33 35 35 34 34 33 32 32 31 33 35 35 38 40 38 30 30 34 39 41 42 43 47 51 54 55 55 54 54
32 30 35 39 42 37 38 40 40 38 37 38 38 37 36 36 35 35 33 31 32 32 33 34 34 32 33 33 32 29 31 29 30 30 30 31 31 36 38 38 28 34 38 40 42 44 48 50 53 54 53 53 53 54
33 25 29 31 39 38 36 34 33 38 40 37 36 35 35 36 37 37 35 33 32 33 34 37 37 31 29 29 30 28 29 30 29 32 33 32 35 37 42 34 40 40 40 42 45 47 50 53 54 54 54 55 56 57
37 33 34 33 34 35 33 32 35 35 37 38 38 39 39 39 38 36 35 35 35 36 37 36 33 30 28 29 30 30 31 33 35 36 38 39 42 44 41 44 45 47 48 47 46 48 49 51 52 53 52 53 57 60
41 38 39 37 36 36 38 36 34 35 36 38 38 37 36 35 35 35 36 37 37 38 38 36 33 35 33 32 32 33 34 36 39 40 43 46 47 45 44 46 46 47 47 45 46 49 50 50 47 48 51 56 60 62
40 44 42 38 35 32 36 37 36 34 34 35 36 36 35 35 35 36 37 38 38 37 36 33 33 34 33 32 29 29 32 35 37 38 42 44 43 41 42 39 40 42 43 45 47 49 50 51 53 55 56 59 63 66
42 45 43 41 40 37 38 37 39 38 37 35 34 34 33 34 35 34 32 32 32 33 34 33 29 28 30 31 35 37 37 37 39 38 40 41 37 38 40 45 48 48 47 47 49 51 52 52 54 56 60 63 64 66
24 28 34 42 43 41 38 40 41 39 38 36 35 35 34 33 34 35 36 36 35 34 34 32 32 32 34 37 38 39 41 42 42 43 45 44 43 46 48 48 50 49 50 51 53 55 55 56 58 58 59 61 64 66
30 29 29 32 30 45 42 41 42 39 39 42 40 39 40 40 41 42 40 38 38 37 37 38 38 40 40 40 41 41 44 45 47 49 48 48 50 53 54 52 51 53 54 55 57 58 58 57 56 57 60 64 63 61
31 34 35 37 37 37 40 38 50 43 40 41 43 45 46 45 44 44 45 45 46 46 45 45 47 48 47 48 47 49 51 51 52 53 53 53 52 50 53 53 52 54 57 57 55 54 53 54 59 61 59 58 60 65
19 22 25 28 32 36 41 44 44 45 46 46 47 44 45 44 44 46 47 48 49 50 52 53 52 52 53 54 55 55 53 50 51 53 53 52 50 49 53 57 56 51 47 48 49 52 57 55 53 55 59 64 65 65
12 12 12 12 14 18 24 32 39 42 43 44 43 43 42 41 40 42 43 44 45 46 48 48 50 51 50 47 46 45 43 46 47 49 51 51 49 46 43 42 43 44 48 53 52 51 53 56 57 57 59 60 61 61
13 12 11 11 11 11 12 13 15 20 26 33 38 42 43 43 43 43 42 43 45 46 47 49 50 52 51 50 48 45 42 41 44 43 41 42 42 42 42 44 45 44 48 53 54 51 53 54 55 57 58 57 57 58
18 18 18 18 18 17 17 16 17 18 19 20 22 24 25 27 29 32 36 38 42 43 46 48 49 49 47 47 45 41 40 42 44 46 45 42 43 47 51 52 51 52 50 49 50 53 56 57 57 57 57 57 55 54
21 21 21 22 23 24 24 24 24 24 25 26 26 27 27 28 28 29 31 33 34 35 36 37 38 38 41 40 39 39 43 46 48 48 47 44 41 40 40 41 43 46 49 52 55 56 55 54 56 56 54 54 56 55
28 28 29 29 29 29 30 30 31 32 33 33 34 34 35 36 37 37 38 39 38 38 38 39 39 38 35 31 31 34 34 33 34 35 36 36 38 41 43 46 46 47 49 51 51 51 54 54 53 53 55 56 55 55
36 36 37 38 38 38 38 38 39 39 40 41 41 40 40 40 40 40 39 39 37 36 36 34 31 29 29 29 30 30 30 28 29 33 35 38 42 46 49 49 49 49 50 53 54 54 53 53 55 57 56 57 57 55
44 45 46 47 47 47 47 48 48 48 47 47 46 46 44 41 38 37 35 33 31 28 23 23 24 26 28 28 27 27 29 32 36 37 40 42 45 48 51 52 53 53 55 55 54 55 56 57 57 59 59 59 56 54
49 50 51 52 53 53 53 52 51 50 49 46 42 39 36 32 29 26 23 22 23 26 27 29 30 29 29 29 31 33 35 38 41 43 45 48 51 54 55 55 56 56 56 56 58 58 57 59 61 60 59 56 54 52
43 41 46 47 46 45 42 38 38 37 34 31 30 28 23 22 21 21 22 24 27 26 27 27 29 31 32 33 35 37 42 46 49 50 52 53 55 56 57 58 59 60 61 60 59 59 61 61 59 58 56 54 53 52
8 9 6 3 3 5 8 7 10 16 22 22 22 20 18 19 21 20 18 22 25 26 27 28 31 34 36 37 40 45 49 52 55 57 57 59 59 60 61 60 60 60 63 63 62 60 59 58 58 57 56 56 55 54
6 6 3 3 2 1 2 3 5 7 12 19 23 23 22 24 24 22 25 28 30 31 32 32 33 35 40 44 47 50 54 57 59 61 62 61 61 60 60 61 63 63 62 62 61 61 60 60 60 59 58 57 57 56
4 3 1 2 3 4 4 3 4 8 9 11 16 21 26 26 29 32 33 34 33 32 33 37 41 43 46 49 52 55 58 60 60 59 59 61 61 61 61 61 60 59 59 59 59 60 61 61 60 59 59 58 58 57
7 7 8 8 6 6 9 11 13 14 15 16 19 24 27 30 30 30 30 32 34 38 41 44 47 50 52 53 54 55 55 56 60 60 57 56 57 59 60 60 61 61 61 61 62 61 60 60 59 57 57 56 55 54
12 12 11 12 14 16 16 17 19 21 21 21 21 23 25 28 31 34 37 40 43 45 47 49 50 50 51 52 53 53 53 53 53 54 57 58 59 60 60 60 59 58 56 54 52 52 53 54 55 57 57 58 57 57
8 9 10 11 13 14 16 17 19 21 23 25 27 29 32 35 37 40 42 44 45 46 47 50 52 52 51 52 52 53 54 55 58 60 60 59 57 54 52 49 47 46 46 45 47 50 51 51 52 53 52 50 48 47
15 16 17 18 19 21 22 24 26 28 30 32 34 36 38 41 43 44 45 47 48 48 49 49 49 50 51 52 55 57 59 59 56 52 49 47 44 43 43 43 42 42 44 46 45 44 45 46 46 45 43 41 38 36
23 24 25 25 26 27 29 30 32 32 33 34 35 36 37 39 41 43 45 46 47 48 49 51 52 54 55 56 57 54 51 48 44 41 38 39 41 42 41 40 40 40 41 39 39 40 41 42 43 43 41 38 34 31

GFSWCAN_500_spd_009.txt.gz
Wind_Speed
53 51 45 48 47 42 48 45 43 41 37 33 33 36 40 44 51 51 52 52 51 49 47 45 42 40 37 35 35 33 32 31 31 31 31 30 32 32 32 32 32 35 39 40 42 44 47 42 45 45 44 45 45 46
49 47 45 44 46 48 47 46 44 39 36 30 32 35 39 43 46 47 48 48 48 46 44 43 42 42 40 39 38 38 36 35 35 35 35 35 37 37 37 37 36 37 39 41 42 42 43 44 47 45 46 48 47 47
46 45 35 43 53 48 47 45 42 39 37 34 30 30 33 38 41 43 45 45 45 45 44 44 43 42 41 40 40 40 39 39 40 40 40 40 41 41 41 41 41 40 41 43 42 41 42 45 46 45 47 47 47 47
36 43 35 51 52 49 47 45 41 39 37 34 33 33 32 32 34 35 38 41 43 43 43 43 43 43 42 41 42 43 42 42 42 42 41 41 41 43 42 43 44 41 39 39 43 41 43 43 42 43 45 46 48 51
38 40 40 54 49 49 46 43 40 38 37 35 33 31 30 30 30 30 32 34 35 38 38 39 41 40 40 40 40 41 40 39 38 38 39 40 42 42 43 44 40 35 37 41 41 40 42 41 42 45 47 48 50 53
43 47 47 58 47 49 46 43 39 36 34 34 33 32 29 28 28 28 28 29 29 30 31 33 33 33 33 34 34 34 33 34 34 33 36 37 33 37 42 40 28 31 34 38 39 39 39 42 44 46 48 50 52 53
46 51 62 59 50 48 45 43 41 38 35 33 31 30 30 30 30 30 28 27 28 29 29 30 30 31 30 31 31 31 31 30 32 33 34 33 31 36 38 34 22 28 31 34 38 42 44 44 48 50 50 50 52 53
37 46 47 46 44 44 44 42 40 39 38 37 35 34 33 32 32 30 30 30 29 30 32 33 33 29 28 29 30 30 31 31 33 33 34 32 35 38 41 30 36 37 41 42 44 47 48 50 51 51 50 49 50 53
27 26 34 41 42 42 39 38 39 38 37 38 38 37 36 37 36 35 34 33 33 33 34 34 33 30 28 28 30 31 33 33 33 35 34 36 39 40 37 38 40 43 46 49 51 50 47 47 48 49 50 52 53 54
28 28 31 32 33 36 40 42 39 40 39 38 36 36 38 36 34 34 34 34 35 35 36 35 33 33 31 29 29 31 33 36 37 35 36 39 39 38 41 42 42 45 46 46 47 46 47 47 47 48 51 51 51 50
32 26 30 34 36 35 37 35 35 34 34 35 38 41 38 37 37 37 39 39 39 38 37 36 32 31 29 31 31 34 36 37 38 38 37 37 35 35 37 38 38 38 39 41 45 47 47 47 48 50 52 53 57 58
34 30 26 31 31 30 33 35 36 33 32 35 35 35 35 36 36 39 41 38 37 36 34 32 31 32 34 34 35 36 35 36 38 38 41 41 41 39 39 41 44 45 46 48 48 49 48 51 52 53 53 53 56 60
36 34 30 31 31 31 31 29 31 33 34 34 35 35 36 37 40 41 40 38 37 35 33 30 29 30 34 36 37 37 39 41 41 43 45 47 45 47 48 49 50 52 53 55 57 56 53 52 53 55 51 52 58 61
31 37 37 35 35 36 35 33 31 32 37 37 37 37 37 39 41 41 38 36 35 34 35 36 34 35 34 36 38 41 43 45 47 48 49 48 50 54 56 58 59 58 57 56 54 53 53 55 54 52 53 60 59 59
26 28 35 31 37 39 38 37 36 38 37 39 40 41 41 41 41 41 41 40 40 40 40 41 42 42 42 44 46 48 50 52 54 56 55 56 57 58 55 55 54 52 52 53 55 56 53 51 54 60 61 59 61 60
32 30 32 31 35 33 36 33 37 42 42 41 43 44 43 42 44 46 47 47 47 47 47 48 48 50 52 52 54 55 56 56 54 51 50 49 47 47 49 52 55 55 54 52 52 52 52 54 56 59 59 59 62 64
21 26 31 35 37 38 38 39 38 42 48 45 46 50 49 46 47 47 48 48 49 50 50 51 52 50 52 54 54 51 51 50 45 41 41 41 42 43 45 45 45 46 47 49 53 56 59 61 60 60 63 59 59 63
14 14 15 16 19 24 30 34 37 41 43 44 45 46 45 44 44 44 43 45 45 45 45 46 47 48 50 50 50 51 51 46 42 43 41 42 45 47 47 46 46 50 52 54 55 54 54 53 53 54 57 60 62 64
10 11 12 13 14 15 16 17 20 21 22 23 24 25 27 28 29 30 32 35 38 40 43 44 47 48 48 49 49 49 48 48 48 48 47 48 50 49 48 49 51 53 50 48 48 51 55 57 59 61 62 62 60 60
15 16 16 17 17 17 17 18 17 18 18 19 19 20 21 22 23 25 26 27 28 30 32 34 36 37 39 41 42 42 43 43 42 42 44 45 46 45 44 44 43 42 43 46 50 52 53 56 58 59 59 61 60 57
17 18 18 19 20 22 23 23 25 25 26 26 27 28 29 30 31 32 33 34 35 36 37 39 41 41 43 44 45 45 44 42 40 39 40 40 41 41 39 39 40 44 47 49 54 56 59 60 60 61 61 58 58 62
24 24 25 26 27 28 28 29 30 31 32 32 34 35 35 37 38 40 41 42 43 43 44 44 44 44 45 44 42 39 37 36 37 38 39 37 36 38 40 43 47 50 54 57 60 62 61 60 61 61 61 62 61 59
33 34 35 35 36 36 37 39 40 40 41 42 43 44 44 46 47 47 47 46 45 45 44 44 42 42 40 35 32 32 35 37 38 38 38 39 41 43 46 49 53 56 60 63 64 65 66 65 64 63 62 63 63 61
40 41 43 44 44 45 46 47 49 49 50 50 50 50 50 50 49 48 46 43 40 38 36 34 31 29 29 31 34 36 37 37 38 40 42 44 46 50 54 58 61 64 66 67 67 67 65 64 64 66 67 67 65 64
42 44 45 46 48 48 49 49 50 50 50 51 50 49 45 40 37 36 34 31 29 29 29 30 31 33 32 32 34 36 38 40 42 44 46 49 53 57 61 64 67 68 69 67 66 67 68 68 67 66 65 64 64 62
32 29 27 26 18 17 16 11 12 13 16 19 24 28 25 22 22 21 19 22 23 23 23 24 27 29 31 33 35 37 40 41 42 45 49 54 58 62 66 68 69 68 69 70 69 65 63 64 65 65 65 65 65 64
4 5 3 2 1 3 4 4 5 8 10 11 10 13 16 16 20 19 19 21 23 25 26 28 29 30 33 36 39 40 43 46 49 54 57 61 65 66 66 66 67 68 66 64 64 65 65 65 64 62 61 60 58 57
9 7 5 5 6 7 7 6 5 6 10 11 11 13 18 21 19 21 24 29 32 33 35 34 34 35 37 38 42 46 49 53 57 61 63 62 63 65 66 64 63 63 65 66 65 62 60 58 55 54 53 53 54 56
10 10 10 10 10 9 7 7 8 10 10 11 12 15 17 21 24 26 29 31 34 35 35 36 39 42 45 49 51 54 58 60 60 59 62 63 63 61 61 63 65 64 60 57 56 54 52 51 50 50 51 50 49 50
7 7 9 9 11 12 14 14 16 17 19 20 22 23 24 26 27 29 31 33 36 38 41 44 47 50 52 54 55 56 58 60 60 60 59 58 60 61 61 59 56 53 50 48 49 49 47 47 48 48 47 47 49 49
10 11 12 12 13 15 16 17 18 19 20 22 23 26 28 31 33 35 38 40 42 45 47 49 51 52 54 54 54 54 54 55 56 57 58 59 57 55 52 47 44 45 46 45 43 42 43 43 42 42 43 44 45 47
19 19 20 20 20 20 21 23 24 25 27 29 30 32 34 35 37 39 41 43 44 45 47 48 49 51 52 53 53 53 53 53 54 54 53 51 46 40 39 41 43 43 41 41 41 40 39 39 39 41 42 43 44 45
27 28 28 28 28 27 27 27 26 24 24 26 27 30 33 37 39 42 44 45 46 47 48 48 48 48 48 48 48 49 49 49 47 44 40 34 34 37 40 41 41 40 38 35 34 35 36 38 39 40 41 41 42 42

GFSWCAN_500_spd_012.txt.gz
Wind_Speed
57 53 51 51 46 41 40 37 31 35 35 36 34 34 37 43 51 52 51 51 49 47 45 44 41 38 36 36 35 34 32 30 29 29 29 28 29 28 28 28 28 31 34 36 39 42 45 43 45 46 48 49 50 50
53 47 44 45 40 36 37 34 32 36 31 34 30 31 36 41 43 45 48 51 49 46 45 44 41 40 39 39 38 38 36 34 34 34 34 34 34 33 33 35 34 37 36 39 41 41 43 46 47 48 48 48 48 49
45 44 43 40 35 34 37 30 35 33 32 34 34 30 37 37 37 38 45 47 48 47 45 44 42 41 41 41 40 38 38 38 39 39 38 39 40 40 40 41 41 40 41 42 41 39 42 46 48 46 47 47 47 47
43 40 36 35 33 34 29 38 37 34 31 33 32 32 37 47 50 38 37 42 45 46 45 44 43 43 42 41 40 40 40 40 41 42 42 43 44 45 44 44 44 41 39 38 42 39 43 43 42 44 45 45 45 47
35 32 34 37 33 31 38 38 38 36 32 28 28 27 31 38 44 44 38 40 39 41 41 41 42 41 41 40 40 41 42 42 42 42 42 42 43 42 43 43 40 31 36 39 42 40 42 40 40 40 41 42 46 49
35 36 32 33 35 37 39 37 37 34 33 33 30 27 28 30 35 37 37 37 36 36 36 37 37 37 38 38 39 39 39 38 39 37 36 37 34 37 42 41 29 30 37 40 40 39 39 39 39 42 45 48 51 54
31 32 25 33 37 31 38 37 37 37 35 35 32 28 26 25 25 28 29 28 27 28 30 33 33 33 32 32 31 30 30 30 32 32 32 31 31 35 38 38 26 33 38 38 39 42 42 44 47 49 51 53 53 53
33 29 28 39 39 30 34 33 35 33 30 29 30 29 29 27 26 25 25 26 26 27 28 27 28 25 26 26 27 28 28 30 31 32 33 34 38 40 40 33 35 36 38 40 43 45 47 49 52 54 53 49 49 51
39 37 32 44 42 38 31 33 32 32 32 31 29 28 27 27 26 25 25 26 27 28 28 27 27 26 28 27 28 28 30 31 33 34 33 36 36 37 37 37 37 38 41 44 47 49 50 50 49 48 47 49 52 53
22 29 36 45 38 40 43 34 34 32 31 29 28 28 27 26 25 27 28 29 30 30 30 29 30 30 28 28 29 32 33 35 38 35 37 38 38 39 40 40 40 40 42 44 47 48 48 49 49 49 51 53 54 55
14 17 36 50 45 43 42 37 35 36 35 35 34 33 31 31 33 34 35 36 35 36 36 35 31 30 29 29 30 34 37 39 40 40 39 39 36 36 37 36 39 42 44 45 47 49 51 52 52 55 57 57 57 58
24 24 26 41 47 41 39 41 40 41 39 38 36 36 35 36 36 39 41 39 39 37 36 34 31 31 32 32 36 39 39 41 43 41 40 40 39 38 40 44 46 47 47 47 49 51 53 56 57 58 58 58 57 55
27 24 23 26 32 32 34 38 39 39 42 39 38 36 35 38 41 44 43 41 40 37 34 32 32 32 34 38 38 37 39 40 40 41 43 44 43 44 46 48 49 50 53 56 59 61 61 61 60 56 55 54 50 53
29 30 25 23 25 28 29 30 29 30 30 31 31 31 33 36 36 36 34 34 35 35 35 35 36 36 35 36 35 36 39 41 44 45 44 45 48 52 54 57 60 63 65 64 63 60 57 55 55 51 50 51 53 57
34 33 31 28 24 24 26 27 28 29 27 26 28 32 33 34 35 34 35 35 36 37 37 39 40 39 37 39 40 43 45 47 49 49 52 55 57 58 59 59 58 57 55 55 55 54 54 51 49 50 53 56 59 63
36 35 35 32 30 29 28 30 32 33 32 31 30 31 32 34 37 38 40 40 39 40 42 43 44 45 45 46 49 50 52 54 54 54 55 56 57 56 55 54 52 51 52 53 52 49 49 51 53 55 55 56 58 60
32 33 35 33 34 34 35 34 35 36 36 36 36 36 36 38 39 41 43 44 45 45 46 49 50 50 52 53 52 51 51 51 51 52 53 53 53 49 46 46 48 47 46 47 49 51 52 54 58 61 58 54 54 57
25 28 29 31 35 36 36 37 38 40 40 40 39 40 42 42 43 45 46 47 48 48 49 49 50 50 51 50 50 51 51 51 52 52 50 48 47 48 50 51 51 54 55 52 53 55 56 52 50 49 49 51 55 60
12 13 15 17 19 21 24 28 33 33 36 38 40 40 42 44 46 47 47 47 48 48 48 48 48 47 46 46 45 44 43 42 42 42 44 46 48 49 51 53 52 51 52 52 49 46 46 47 48 51 55 58 62 65
10 11 11 12 13 14 15 16 20 20 22 23 23 23 26 27 28 28 30 30 30 30 31 31 33 34 34 35 37 39 41 43 45 47 48 50 51 51 50 48 47 46 47 45 44 45 48 50 55 59 63 67 69 70
10 11 12 13 14 15 16 18 19 20 22 23 24 25 25 26 26 27 28 29 30 31 34 36 38 39 41 42 44 45 47 49 50 50 50 50 50 49 47 45 45 44 45 46 47 49 53 58 62 67 69 72 74 73
18 17 18 18 19 20 22 22 24 25 26 27 29 30 31 32 33 35 36 37 37 38 40 42 44 46 47 49 50 51 51 50 50 50 47 45 43 43 43 44 45 46 49 53 55 58 62 66 70 73 75 76 73 72
27 27 27 27 28 28 30 31 33 34 35 36 37 38 39 40 42 43 44 44 45 47 49 51 52 52 52 52 50 48 46 44 42 38 39 41 43 44 45 46 48 50 53 56 59 63 68 72 75 77 76 75 76 74
32 33 34 35 36 38 39 40 42 42 43 45 46 46 47 50 52 53 52 52 52 53 53 52 51 49 47 45 43 39 37 38 38 40 41 41 42 44 47 49 52 54 57 60 64 69 73 77 76 76 77 74 72 72
34 37 39 41 42 43 44 46 47 48 49 51 52 52 53 55 55 56 56 54 51 47 43 40 38 36 35 34 35 37 39 40 39 39 41 43 46 48 50 51 54 58 62 67 71 74 74 76 76 73 74 75 74 71
36 37 36 38 38 39 38 35 36 34 34 30 29 28 30 34 35 35 31 28 27 25 23 24 26 27 29 29 31 33 35 37 39 41 44 46 48 50 53 57 62 67 70 72 72 73 73 71 72 73 70 66 62 59
16 14 14 14 10 9 10 10 8 10 12 12 12 13 14 19 11 11 14 19 18 18 21 22 24 28 31 34 36 37 38 39 41 43 46 50 54 58 61 64 68 69 71 72 71 69 69 69 66 62 58 56 55 53
12 10 5 6 9 9 11 12 13 12 11 11 13 14 15 14 17 18 17 18 22 26 28 31 34 36 38 40 40 41 42 45 48 51 55 58 61 64 66 68 69 69 68 67 67 66 63 59 55 53 52 49 48 48
7 8 10 13 15 14 15 15 14 12 12 12 12 13 15 16 17 20 22 25 28 31 33 36 38 39 40 42 45 47 50 53 56 59 61 64 66 66 66 65 65 65 64 62 60 54 51 50 49 47 47 46 44 44
9 11 12 13 12 13 14 15 15 16 17 19 20 21 22 23 25 26 28 29 31 34 36 38 41 44 46 49 52 55 57 59 61 62 62 62 62 63 62 60 58 57 54 48 45 47 48 47 46 44 42 43 44 45
14 16 17 19 21 22 22 22 22 23 23 24 25 26 28 29 31 33 35 37 39 41 43 45 47 48 50 51 53 54 56 57 57 57 57 56 56 55 55 53 50 43 39 41 44 44 42 38 36 37 39 40 42 44
21 23 25 26 27 29 29 29 29 29 29 29 30 30 29 29 29 31 34 37 40 42 44 46 48 49 49 50 50 49 49 50 51 52 52 52 51 49 46 41 37 36 39 42 42 36 33 33 34 35 38 41 44 45
28 29 29 27 28 29 29 30 30 29 28 25 22 23 26 29 33 37 40 41 42 42 43 43 44 45 46 46 47 47 47 48 48 48 47 45 43 41 38 37 36 38 40 41 37 32 31 32 33 36 40 43 45 45

GFSWCAN_500_spd_015.txt.gz
Wind_Speed
69 77 73 73 65 62 58 53 48 45 42 43 40 40 38 38 40 46 49 55 54 52 48 45 43 39 34 32 30 29 27 25 25 24 23 23 24 24 23 23 24 26 29 29 32 35 38 39 40 43 45 47 48 49
72 68 63 59 56 53 51 45 41 38 42 39 39 36 37 36 39 42 47 50 53 50 47 44 41 39 36 36 34 32 31 29 28 27 29 30 30 29 30 32 31 32 33 36 36 36 39 42 44 46 46 47 47 47
63 60 58 55 51 46 41 39 35 36 38 37 36 34 34 33 35 34 41 40 41 48 47 44 42 39 37 36 36 34 32 30 31 32 32 33 35 35 36 37 37 37 39 39 39 36 40 44 44 44 44 44 44 45
52 52 48 44 41 37 36 33 29 41 33 33 32 30 31 31 35 42 41 36 37 45 44 44 42 41 39 38 37 35 34 34 35 36 36 36 38 39 40 42 42 39 36 36 38 38 41 40 39 40 41 42 42 43
47 46 42 38 34 32 35 33 33 34 31 34 33 27 28 34 41 33 35 39 37 38 42 41 41 40 39 39 38 38 38 38 38 38 38 39 40 41 43 43 38 28 35 40 41 38 39 37 37 39 39 39 41 43
38 37 34 31 29 33 31 31 33 32 31 29 32 28 33 40 44 44 39 38 36 35 37 38 39 38 38 39 39 38 38 38 38 39 40 40 38 39 42 39 27 30 35 37 38 39 40 40 42 42 44 45 47 49
31 31 26 25 25 26 29 33 32 27 25 26 29 26 27 40 35 34 36 34 34 31 31 32 33 33 34 35 35 35 35 36 38 37 36 35 33 36 37 35 32 32 35 38 40 42 42 43 44 46 47 49 51 52
26 24 28 21 26 29 31 29 31 29 32 30 29 30 30 31 32 30 28 28 28 29 31 31 32 30 29 29 30 31 31 32 32 32 32 32 35 36 38 34 34 34 36 38 40 43 44 46 48 49 48 48 49 49
24 23 28 27 26 31 30 33 27 28 29 28 31 31 29 27 26 25 26 27 29 30 29 27 24 23 26 24 24 25 27 29 31 31 32 33 35 38 36 34 35 36 38 39 41 42 43 43 45 47 48 51 53 55
26 23 27 33 24 24 31 32 29 29 29 29 29 27 26 26 25 24 25 26 25 25 25 23 22 23 22 21 23 26 28 30 34 36 38 39 40 39 37 37 38 38 39 39 39 42 45 47 49 51 52 53 54 56
30 28 24 34 27 29 25 24 27 31 27 25 23 25 24 24 24 24 25 26 26 27 25 23 22 22 22 25 27 31 34 35 38 39 40 42 42 38 38 38 38 38 39 40 43 46 48 49 51 54 57 60 62 61
22 28 27 30 37 31 32 26 24 27 29 30 30 27 25 25 24 27 29 29 29 29 28 26 25 26 27 29 32 35 38 42 42 40 41 41 38 37 37 38 39 41 44 46 48 50 53 56 59 60 61 59 58 58
12 12 14 36 42 28 39 36 32 28 26 27 26 27 27 28 33 36 34 32 31 30 28 27 30 31 33 35 35 34 36 37 38 40 40 37 37 39 42 44 46 49 51 53 56 59 62 62 59 57 56 57 58 57
15 16 17 28 40 37 32 40 40 38 33 32 32 33 35 38 37 36 32 31 31 33 34 33 32 32 32 33 35 36 38 39 41 40 39 40 44 47 50 53 56 59 61 63 64 64 64 62 59 58 58 57 54 52
21 19 17 20 25 31 36 32 28 29 33 35 34 36 37 37 34 30 29 28 27 28 29 30 31 33 35 36 37 38 40 42 42 43 45 48 51 53 56 58 60 61 61 61 60 60 59 56 56 56 55 55 55 55
28 25 25 23 22 21 23 26 27 27 27 27 26 27 25 25 27 27 27 28 29 31 32 34 35 36 36 39 41 43 43 44 46 50 52 54 55 56 57 58 58 58 57 55 53 53 54 52 53 54 56 58 61 60
33 32 31 30 28 28 25 24 25 27 28 28 29 31 31 30 29 29 31 32 33 35 36 38 40 41 43 44 45 44 46 48 49 49 50 52 53 52 52 52 50 48 49 50 54 57 59 60 58 54 53 52 50 48
34 35 34 33 33 32 31 31 30 30 31 32 33 35 36 36 37 37 37 38 39 40 43 44 45 45 45 45 45 47 48 49 51 50 48 46 45 44 43 44 46 48 51 53 54 55 55 55 51 48 49 49 50 51
15 17 21 26 30 31 32 34 34 34 35 36 37 38 39 40 41 41 42 43 43 44 46 47 49 48 48 48 46 44 43 41 40 39 39 41 43 45 47 49 51 52 54 54 54 52 52 51 50 51 52 53 58 61
9 10 12 13 15 16 18 21 25 26 28 28 31 33 35 36 38 39 39 40 40 40 40 39 38 37 36 35 35 36 37 38 40 42 45 47 49 50 52 53 53 53 52 51 49 49 49 51 53 55 58 61 63 65
10 11 11 12 13 12 14 15 16 17 17 20 22 24 25 26 27 28 29 30 31 30 31 32 33 33 35 37 39 41 42 45 47 49 50 52 53 53 53 52 50 48 46 46 48 49 51 53 55 57 60 63 66 70
13 13 13 13 14 14 15 15 16 17 18 19 21 22 24 26 28 29 30 31 33 34 36 38 39 40 42 43 45 48 50 52 53 54 54 53 51 51 48 45 43 44 47 47 49 51 53 56 59 61 64 67 72 77
20 20 20 21 22 23 24 24 25 25 26 28 29 31 32 34 35 37 38 39 41 42 44 46 48 49 51 52 53 54 54 53 52 50 49 47 44 43 42 44 46 46 47 50 52 55 57 59 62 66 70 75 79 81
26 27 27 27 28 29 30 32 33 34 35 37 38 40 41 42 43 45 46 47 49 51 52 54 55 55 55 54 52 50 47 44 41 38 37 40 42 44 45 45 46 48 51 54 56 58 61 65 69 73 76 79 79 76
29 30 31 32 33 34 35 37 38 39 41 42 44 46 47 48 50 51 52 54 55 56 56 55 52 47 43 38 34 31 32 33 35 38 40 42 43 44 46 48 51 53 54 56 59 63 68 71 74 76 76 74 74 72
32 32 33 34 36 37 38 37 38 39 39 39 38 36 34 34 34 34 37 35 32 32 31 26 23 23 23 24 27 27 30 32 35 39 42 43 45 47 49 50 53 56 59 62 65 68 71 73 72 71 71 68 64 59
34 33 30 27 23 22 19 17 14 11 10 11 13 14 14 15 16 18 14 10 8 13 15 17 18 21 26 29 29 31 35 39 43 46 48 49 50 51 53 56 59 62 65 67 70 70 70 69 67 63 60 55 53 51
13 12 8 6 5 7 8 10 11 14 16 17 17 17 16 16 16 16 15 15 18 20 21 24 29 33 35 37 40 43 45 47 48 49 50 52 55 57 59 62 64 66 67 67 67 65 61 58 57 51 48 48 47 44
2 3 6 8 12 14 14 15 17 18 18 19 19 19 18 19 19 20 21 23 24 25 27 29 32 35 37 39 42 44 47 49 51 53 55 58 60 61 63 64 64 63 62 59 58 57 55 49 43 43 45 42 39 38
8 10 13 14 15 16 17 18 19 20 21 22 22 23 23 23 23 24 26 27 28 29 31 33 35 37 40 43 45 48 50 53 55 57 58 59 59 59 58 57 56 56 55 54 52 48 43 41 41 43 41 37 36 35
14 16 17 19 22 23 25 26 28 28 29 30 30 30 30 30 30 31 30 29 29 30 32 35 38 41 44 46 47 49 51 52 52 53 53 54 54 54 53 53 53 52 50 47 43 40 39 40 41 42 38 35 35 36
23 23 24 26 28 31 31 31 30 31 32 33 33 33 32 32 31 29 28 29 31 34 38 43 46 46 47 48 49 49 51 51 52 52 51 51 51 50 50 49 48 46 44 42 40 39 39 40 40 40 38 36 36 37
31 33 34 33 32 30 29 30 32 32 32 31 30 29 28 29 30 33 35 38 41 45 49 52 52 51 52 52 51 50 49 49 49 49 48 48 47 47 46 46 45 44 43 41 41 40 40 40 39 39 37 36 36 37

GFSWCAN_500_spd_018.txt.gz
Wind_Speed
74 69 63 58 61 63 72 72 68 67 59 56 55 54 54 51 48 45 48 50 55 57 57 56 52 49 44 40 35 31 29 24 21 19 17 16 15 15 16 17 18 21 23 25 27 30 34 35 38 41 43 44 45 45
64 68 66 71 73 71 65 61 60 58 57 54 53 51 48 46 43 41 44 49 51 55 56 53 51 47 43 40 36 34 31 28 26 23 20 21 21 21 22 24 25 26 29 31 31 33 38 42 45 45 45 44 43 42
68 72 60 65 64 61 58 56 54 52 49 48 46 44 42 41 39 41 43 46 49 48 53 50 48 45 42 40 38 35 32 30 28 25 27 26 26 26 28 30 30 31 35 35 36 37 42 45 44 42 42 41 41 41
67 68 67 64 61 57 54 50 47 46 46 45 42 40 39 38 37 38 39 40 42 39 48 47 46 43 41 39 37 35 32 31 31 31 30 30 30 31 33 34 34 34 37 40 42 40 41 39 39 40 40 41 41 40
61 59 58 54 51 47 45 43 42 42 41 41 38 37 37 34 32 35 40 41 37 37 40 44 44 42 40 38 37 36 33 33 34 34 34 34 35 37 37 38 37 38 40 42 39 38 38 38 38 39 40 40 41 41
54 51 49 46 44 40 37 34 35 39 39 37 36 34 33 33 37 36 41 40 35 35 35 41 43 41 40 39 38 37 36 36 37 37 38 38 38 39 41 41 38 36 35 36 37 38 40 41 42 41 41 42 42 43
45 42 39 38 38 34 32 37 40 36 36 38 34 33 33 40 43 32 38 39 37 36 32 37 39 40 38 39 40 39 37 37 38 39 40 39 38 40 40 41 35 31 32 35 39 40 42 42 43 43 44 44 45 44
35 33 34 35 35 33 34 36 38 37 33 36 34 33 44 40 38 27 34 35 37 33 30 29 31 33 35 34 33 34 33 37 38 38 37 36 38 37 39 34 33 33 35 37 37 40 42 44 45 46 45 43 45 48
33 34 33 28 28 32 34 32 30 30 30 32 35 36 37 31 30 32 32 33 36 35 34 32 29 29 31 32 34 35 34 34 36 36 35 36 37 36 34 33 35 37 38 39 40 41 42 42 43 43 45 48 51 53
24 22 29 30 32 33 29 29 25 25 27 35 33 32 32 32 41 35 34 37 36 33 29 27 27 28 29 29 31 32 33 34 35 33 35 36 35 34 36 37 37 38 40 42 42 42 43 44 45 48 50 53 55 58
27 29 29 28 29 29 23 25 25 32 30 29 27 28 31 31 24 23 25 26 28 29 27 25 24 23 23 25 26 30 32 33 36 35 36 36 34 35 36 37 38 40 41 42 42 42 43 45 48 51 55 58 60 61
22 25 27 22 29 31 23 30 21 23 31 23 28 32 31 28 28 28 27 27 25 24 20 19 21 22 23 25 28 31 33 34 36 35 37 39 34 32 34 35 35 36 37 39 42 45 49 52 55 58 60 61 60 58
27 26 29 27 25 28 33 24 26 24 23 25 25 24 25 27 26 26 23 21 20 18 19 21 24 27 28 28 29 31 34 37 39 42 40 33 32 35 37 38 39 41 44 47 50 53 57 59 60 60 58 55 52 53
24 24 24 25 31 26 31 27 29 31 30 28 26 29 30 33 32 26 23 23 24 26 26 26 28 30 31 33 36 38 40 39 38 37 35 34 37 39 41 43 45 48 52 55 57 58 59 58 55 52 50 50 52 55
16 17 16 20 33 33 28 30 33 26 29 27 26 30 32 31 29 26 27 28 29 31 33 34 32 31 31 33 32 33 35 36 36 36 37 40 43 45 47 49 52 54 55 57 57 54 52 49 48 49 52 55 57 58
15 14 13 14 16 32 35 28 23 26 36 38 33 37 34 32 32 32 33 34 35 34 30 27 27 30 31 33 35 35 35 36 37 40 43 46 48 50 51 52 54 55 53 50 48 46 46 49 52 54 56 58 59 58
18 19 18 16 17 22 25 24 23 25 27 29 29 32 32 31 31 28 26 26 28 29 29 30 32 32 34 36 36 38 39 40 43 45 47 48 49 51 53 53 51 48 45 44 46 49 51 54 56 58 59 58 58 55
28 26 27 26 23 23 23 23 23 24 25 27 27 28 29 30 30 31 32 32 32 32 32 32 33 34 37 39 42 44 45 46 47 48 50 50 49 48 45 42 42 43 46 48 51 53 55 57 58 57 57 54 52 51
35 34 34 33 31 29 29 29 29 30 29 30 32 33 35 36 37 38 39 38 38 39 39 40 41 42 43 46 47 47 48 48 46 44 42 41 40 40 42 44 47 49 51 53 55 56 57 57 56 53 51 51 52 54
8 12 16 22 27 29 30 33 34 34 34 34 35 36 37 38 39 40 41 41 41 40 40 40 40 41 40 40 40 39 38 38 38 38 39 41 44 46 48 50 52 54 56 55 55 54 53 50 50 51 51 52 54 56
6 8 9 9 10 11 14 15 17 19 21 23 25 26 27 29 30 30 30 30 30 30 31 33 33 33 34 34 35 37 38 40 43 44 45 47 49 52 53 54 55 55 53 51 49 47 47 49 51 51 53 55 58 60
8 9 10 11 11 12 13 14 14 16 18 18 20 21 22 23 24 25 26 28 29 29 31 33 34 36 37 39 41 43 45 47 49 52 53 54 54 54 53 52 50 47 45 44 46 49 51 52 53 55 58 60 62 65
13 14 14 15 17 18 19 19 20 20 22 23 24 25 26 28 29 30 32 34 36 37 39 41 43 45 46 48 50 52 53 53 53 53 53 52 50 46 42 39 40 43 46 49 50 51 53 54 57 59 61 63 67 71
21 18 21 24 25 25 25 26 27 28 29 30 31 33 34 36 37 39 41 42 43 45 46 47 49 50 52 53 54 53 52 51 49 44 39 36 35 35 38 42 44 47 49 51 52 53 55 57 59 62 65 69 72 74
27 28 30 31 29 31 32 32 33 33 35 35 36 37 39 41 42 44 46 48 49 50 51 52 53 54 52 49 42 35 32 30 28 28 32 35 38 40 41 43 46 49 52 55 57 59 60 62 64 67 70 71 71 68
34 34 33 32 31 31 30 31 32 34 34 35 36 36 35 34 33 31 28 31 30 30 29 27 26 25 21 19 22 25 27 30 33 36 38 39 40 43 47 50 54 56 58 59 60 62 64 66 68 69 69 65 62 60
35 35 35 35 33 31 26 25 22 21 18 16 14 12 12 12 12 14 15 17 16 15 15 14 14 17 21 22 23 27 31 33 35 38 42 45 48 51 54 56 58 59 61 62 63 64 65 65 64 62 60 58 56 49
27 21 16 15 12 9 5 7 9 10 11 13 15 17 17 18 20 20 21 22 21 21 21 22 25 27 28 29 32 35 38 42 44 46 49 51 53 55 57 59 60 61 62 62 61 60 59 58 57 55 54 50 46 42
7 6 6 5 6 10 14 13 13 14 15 17 18 19 20 21 22 23 24 24 25 25 26 27 29 31 32 34 35 37 38 41 43 46 49 51 53 55 56 57 57 58 58 58 57 55 54 53 53 51 46 43 41 40
6 7 10 11 12 14 15 16 18 21 23 24 26 28 29 31 31 31 31 31 31 32 32 32 32 32 32 33 35 38 41 45 48 50 51 53 54 55 56 57 57 56 55 53 52 51 50 49 47 44 42 40 40 39
14 16 17 19 21 24 25 26 27 29 31 33 34 34 34 34 35 35 35 35 34 33 33 33 34 36 39 41 44 47 51 54 55 56 57 57 57 56 55 54 53 52 51 50 50 49 49 47 45 42 41 39 39 38
24 25 27 28 30 31 32 34 35 34 32 31 31 33 34 35 34 34 34 33 33 35 37 39 42 45 48 51 54 58 60 60 60 60 59 57 56 54 53 53 52 51 50 50 49 48 46 44 42 40 40 39 38 38
29 31 32 33 32 31 32 32 32 32 32 32 31 30 29 27 27 28 31 33 37 40 43 46 49 52 56 59 60 61 61 60 59 57 56 56 55 54 54 53 52 51 50 49 47 45 42 40 40 40 39 38 38 37

GFSWCAN_500_spd_021.txt.gz
Wind_Speed
49 45 45 42 48 77 89 72 59 57 67 84 84 77 72 70 68 63 63 63 57 58 56 57 61 58 56 53 47 40 36 33 28 23 19 16 13 12 11 11 12 14 17 18 21 23 27 28 32 33 36 39 41 43
51 58 72 79 84 60 42 52 67 71 82 59 64 76 72 68 61 58 55 57 53 54 55 57 58 58 55 53 47 41 38 34 31 29 24 20 18 16 16 17 18 21 23 25 26 29 33 35 36 39 41 42 43 43
70 63 59 53 50 51 49 50 57 59 69 61 62 62 61 57 53 52 48 50 51 51 54 56 57 58 55 52 46 44 40 36 32 32 29 26 24 22 22 23 23 26 28 29 31 33 36 39 41 43 43 43 42 43
50 49 46 49 56 56 57 56 59 60 63 60 57 57 55 53 51 45 43 46 48 48 53 54 53 55 53 50 47 44 40 38 36 35 32 30 29 27 28 30 30 32 34 35 36 36 40 41 45 43 42 43 42 43
57 50 52 54 56 56 62 62 63 64 61 57 54 51 48 46 44 39 41 43 44 43 49 48 50 52 49 47 44 43 41 40 38 36 35 34 33 33 34 35 36 36 38 37 39 41 40 42 42 40 42 43 44 44
57 59 59 59 57 57 56 54 52 52 52 51 48 45 43 43 44 37 36 37 39 40 41 46 48 48 47 45 43 40 39 39 37 36 36 36 36 38 39 40 40 40 39 40 41 41 41 41 42 44 44 44 44 45
56 55 53 52 50 48 47 48 48 48 46 45 44 43 42 40 36 37 34 33 34 36 38 39 43 45 44 41 40 39 38 37 37 38 38 39 40 42 42 43 41 39 38 39 37 39 42 42 45 45 45 45 46 46
45 45 44 43 43 42 43 42 42 42 41 40 40 39 39 38 34 34 35 35 35 38 34 36 41 44 43 40 40 40 39 39 40 40 41 41 42 43 45 42 39 37 37 37 39 40 43 45 45 45 46 46 45 45
37 35 38 37 35 36 35 37 37 39 39 38 37 38 39 37 37 40 43 45 33 33 32 33 34 36 40 40 39 39 39 40 41 41 41 41 42 44 41 38 36 36 38 40 43 43 43 44 45 45 45 46 46 48
31 26 26 30 31 31 32 33 34 38 39 38 39 37 33 42 27 36 36 40 41 37 35 33 30 32 35 35 36 38 38 39 40 39 40 43 44 41 36 34 36 39 42 43 44 46 45 45 45 45 44 46 49 53
27 27 22 22 24 24 27 28 25 30 35 36 37 37 41 35 29 41 42 40 41 41 37 34 34 32 32 34 35 38 39 41 42 43 44 45 42 34 34 37 38 42 46 45 43 43 43 42 43 45 48 52 55 58
25 20 28 29 26 20 16 21 26 32 33 34 40 31 34 36 38 35 41 44 39 34 33 31 30 29 30 32 34 36 37 39 43 41 41 42 37 34 36 39 40 42 43 43 42 42 43 45 48 51 54 57 59 60
27 28 27 29 23 25 21 24 22 26 31 30 34 35 32 31 31 35 35 27 25 21 21 23 25 28 29 30 31 33 36 38 39 41 41 39 36 38 40 40 40 41 41 41 43 45 47 50 52 54 57 58 55 50
25 26 23 22 22 25 23 22 20 24 28 26 26 28 30 34 30 29 28 24 21 20 22 23 25 27 28 29 32 35 38 40 42 42 40 38 39 38 40 41 41 42 44 45 47 49 52 53 57 57 53 48 47 49
20 23 23 22 25 26 23 24 24 20 18 27 24 26 29 27 24 25 25 24 24 23 24 26 29 31 32 35 36 39 41 43 43 40 35 36 39 40 40 42 45 47 48 50 52 54 56 56 53 49 47 49 51 55
18 18 19 22 24 24 24 26 23 24 24 25 25 26 26 25 26 28 26 26 26 28 31 32 32 34 36 39 41 41 40 39 36 37 40 41 42 44 46 47 49 52 53 55 56 56 54 50 47 49 51 54 57 59
17 17 16 14 15 23 27 24 30 29 27 26 28 28 29 29 29 29 31 34 32 33 34 35 38 39 38 37 36 36 37 37 38 40 43 46 47 49 50 50 52 54 55 55 53 49 48 49 52 54 56 59 61 62
13 16 15 14 16 16 15 26 28 28 27 26 25 29 34 38 37 37 37 36 34 33 31 30 30 30 31 33 35 37 39 41 43 44 47 49 50 51 53 54 53 52 49 47 48 50 52 55 57 59 61 61 61 60
18 18 17 17 19 21 23 19 20 22 26 26 25 27 29 30 32 32 32 33 34 34 35 35 35 36 36 39 41 42 42 44 48 49 49 50 50 50 49 46 46 47 48 51 53 55 58 59 60 60 59 58 56 55
15 19 22 25 26 27 26 27 28 29 29 30 32 33 35 36 37 38 38 38 39 39 40 41 42 43 43 43 44 44 45 45 45 45 44 44 44 44 46 48 50 52 54 56 58 60 60 59 57 54 53 52 54 57
5 4 6 9 12 15 20 21 23 25 27 28 30 32 32 35 35 35 36 36 36 37 37 37 37 36 37 37 37 37 37 38 40 42 44 45 48 50 52 54 56 57 58 59 58 56 53 49 49 50 52 54 55 56
5 5 5 7 9 10 11 13 14 16 18 20 22 24 24 26 26 27 28 29 29 29 30 31 31 33 34 35 37 39 41 43 45 48 50 53 55 57 58 59 59 57 55 52 48 44 45 48 50 51 53 55 58 61
8 9 8 8 11 13 14 16 18 19 20 21 22 23 24 26 27 28 30 31 32 33 35 36 38 40 41 43 45 47 49 51 52 54 55 56 56 54 52 49 46 42 41 41 43 48 50 51 52 56 60 62 64 66
16 17 16 16 17 17 20 22 24 26 27 28 29 30 31 32 34 35 37 38 39 41 42 44 45 47 48 49 51 52 53 54 54 54 46 44 43 39 37 38 40 43 46 50 51 51 53 57 59 62 64 65 66 69
24 23 24 25 25 27 28 29 28 28 30 32 33 35 36 37 38 40 41 43 44 45 46 47 48 49 49 49 49 48 45 42 34 33 36 38 36 37 40 43 46 49 52 52 55 58 59 61 63 65 67 69 69 68
28 28 30 31 32 34 33 31 29 29 30 31 32 33 34 34 34 34 34 34 33 33 34 34 32 30 29 28 26 24 23 24 28 32 36 38 40 42 44 46 48 51 55 57 59 61 63 65 67 68 68 66 64 62
31 32 33 35 36 35 31 28 26 25 24 23 22 20 19 18 16 17 18 18 19 20 21 21 22 23 24 24 25 26 28 31 34 36 39 41 43 46 48 50 52 54 57 59 61 63 64 65 65 64 63 61 59 57
34 34 30 26 21 18 13 10 10 11 12 13 13 14 15 15 17 18 20 21 23 25 26 27 28 29 30 31 32 33 34 36 38 40 42 44 46 47 49 51 53 55 57 59 61 62 62 62 61 59 57 55 53 52
18 15 12 10 10 8 9 11 11 12 13 14 16 18 21 23 25 26 28 30 32 34 35 36 35 35 36 36 37 39 40 42 43 44 46 48 49 52 55 58 61 63 64 64 64 63 61 59 56 54 52 51 50 49
8 8 9 10 12 13 15 16 18 20 22 24 26 27 29 31 34 36 37 37 38 38 38 37 37 37 38 39 40 41 43 45 47 50 53 55 58 61 64 67 68 68 67 65 63 61 58 56 54 51 50 49 48 46
14 15 17 18 20 22 24 26 29 31 32 33 34 35 36 36 37 36 37 37 38 38 39 39 38 39 39 41 44 46 49 52 55 57 59 62 66 67 67 66 63 60 57 56 55 54 53 52 51 49 48 46 44 41
22 24 26 28 29 31 32 33 34 34 34 34 34 35 35 35 35 35 35 33 32 32 32 34 37 40 43 46 49 52 55 58 61 63 65 65 63 60 55 52 49 48 48 46 46 45 45 45 44 42 41 39 38 38
26 27 28 28 29 30 32 33 35 35 34 34 33 33 32 31 29 28 27 27 29 31 34 38 41 45 49 53 56 59 61 61 61 59 58 56 53 50 48 48 48 48 47 46 44 43 42 40 39 39 39 39 39 39

GFSWCAN_500_spd_024.txt.gz
Wind_Speed
27 26 27 32 36 41 38 37 46 47 49 84 102 100 86 89 88 77 67 58 40 57 61 54 51 54 55 55 53 49 46 43 36 30 26 21 18 15 12 12 13 12 12 12 15 16 19 21 24 25 28 31 33 36
24 28 28 31 32 34 37 36 42 49 71 98 103 90 91 86 82 61 52 69 45 31 46 61 55 55 57 60 55 48 44 40 35 33 30 25 22 19 17 15 16 17 16 17 18 21 24 27 27 30 32 34 38 40
41 39 38 36 33 35 37 38 45 62 86 92 91 74 86 82 70 53 36 50 72 57 47 56 55 53 58 56 55 51 49 45 39 37 32 31 27 23 22 21 22 21 21 23 24 26 31 33 32 36 36 40 42 43
61 65 52 44 46 55 63 68 76 82 83 76 78 76 77 74 62 57 45 38 44 44 46 61 53 52 54 55 54 50 50 43 36 37 37 35 31 28 26 28 27 28 28 30 30 32 36 38 41 41 41 44 44 43
49 50 49 51 48 50 54 58 63 69 73 75 73 72 69 66 84 37 44 36 53 54 49 52 49 49 49 54 52 51 50 48 44 42 40 37 33 32 33 33 33 34 35 36 37 39 38 43 44 44 45 45 43 44
53 51 48 51 52 53 57 59 65 62 62 61 62 60 62 60 69 56 40 31 38 44 43 47 47 46 47 48 51 51 48 47 47 47 44 39 35 37 37 37 37 38 39 41 43 44 46 46 45 45 45 45 46 45
44 46 48 47 53 49 55 59 53 62 59 64 60 62 57 55 55 47 37 32 36 40 40 39 40 43 45 46 48 49 47 47 48 46 43 40 40 41 40 40 42 41 42 44 43 45 49 48 47 46 45 46 47 47
39 36 39 36 41 48 47 47 51 60 59 57 56 56 50 48 42 39 33 31 31 36 37 37 37 41 44 45 47 47 45 44 44 43 42 41 42 43 44 45 45 44 46 45 44 45 48 48 48 46 48 49 48 48
43 45 44 44 46 47 50 49 44 48 51 50 48 47 47 45 39 32 31 29 31 32 31 34 33 37 40 42 43 43 43 40 40 42 43 42 43 45 46 46 47 46 46 44 45 46 45 46 47 48 49 49 48 47
32 34 38 41 42 42 43 44 45 45 44 45 46 47 44 42 37 33 32 32 31 27 36 33 31 33 37 41 42 41 41 41 43 44 44 45 45 45 46 46 44 42 44 45 47 47 48 47 48 48 47 47 46 47
23 25 27 30 32 35 39 40 40 40 42 42 43 44 43 40 35 36 37 38 40 26 37 42 34 32 34 37 38 40 41 43 44 44 45 45 45 43 43 43 42 42 43 45 48 49 50 49 48 48 47 47 50 52
23 22 16 22 30 31 35 40 39 39 38 35 35 37 35 33 32 36 40 41 46 30 30 27 25 28 31 34 37 38 39 41 44 44 44 46 44 43 41 39 40 43 45 47 49 50 48 48 47 47 48 51 54 57
19 26 22 18 14 23 24 24 31 34 32 34 36 35 30 36 31 33 36 40 43 37 33 28 24 26 28 30 31 34 38 41 43 45 47 47 42 39 38 40 42 44 47 48 47 47 47 46 47 50 52 55 57 59
9 21 23 19 14 17 18 19 24 24 29 29 30 30 33 33 22 28 30 37 32 26 29 33 33 34 35 35 36 37 39 41 43 43 43 39 39 41 42 43 45 46 46 46 45 44 46 49 51 54 55 57 60 59
14 14 18 18 13 21 15 14 23 24 24 30 23 27 31 25 27 23 24 27 29 30 29 30 29 30 31 32 33 34 36 38 39 39 40 41 42 44 46 45 45 44 43 43 46 49 50 54 56 57 59 58 54 52
12 14 14 13 14 20 19 18 13 18 26 27 24 24 29 27 28 28 29 28 28 29 25 24 27 28 29 32 34 35 38 41 40 41 44 45 44 42 42 43 44 44 47 50 52 54 55 57 58 57 53 52 54 57
14 15 15 13 14 16 17 18 20 20 21 19 23 28 24 23 24 21 21 24 28 30 34 33 31 33 34 36 39 39 40 41 42 40 38 38 40 40 41 45 49 52 54 56 57 57 56 54 53 53 54 57 59 61
12 13 15 16 17 18 18 18 19 22 21 23 22 24 24 25 28 29 27 26 28 29 30 33 34 36 37 36 35 34 33 34 36 39 40 41 42 47 51 53 53 57 58 57 54 53 53 53 55 58 60 62 64 65
14 17 17 15 14 14 16 17 15 21 26 28 30 29 27 25 26 28 30 32 35 38 37 36 36 36 37 38 37 37 38 40 42 45 47 50 52 53 52 56 59 55 53 52 53 54 57 59 61 62 64 65 65 63
17 16 17 17 17 18 20 22 19 24 29 29 26 25 25 25 27 29 32 34 36 37 37 36 37 39 40 40 41 43 46 47 49 51 52 53 53 52 51 51 51 52 54 56 58 60 61 62 64 65 63 60 57 54
2 7 11 16 18 21 22 24 25 22 28 30 32 32 32 32 33 36 39 40 41 41 40 41 42 44 45 44 44 44 44 43 43 44 45 46 46 47 50 53 55 57 59 62 63 64 64 63 59 55 53 51 52 54
7 6 4 3 2 4 5 9 12 15 18 20 22 24 25 28 30 31 32 33 34 34 34 35 36 36 37 37 37 38 39 40 42 44 46 48 51 53 56 59 61 62 63 63 62 58 54 51 49 49 50 55 57 58
5 6 7 8 7 8 8 7 9 12 14 17 19 20 21 23 24 25 27 28 29 30 32 33 34 35 37 39 41 42 44 46 49 51 52 54 56 57 58 58 56 52 52 53 50 48 48 49 51 56 59 60 61 64
13 14 15 15 13 15 18 20 21 22 21 21 24 27 29 30 32 33 34 35 36 38 39 41 42 43 45 47 48 49 50 52 53 54 54 55 54 52 49 46 45 48 49 46 48 52 54 58 60 60 62 64 66 66
18 19 22 26 25 28 30 26 24 27 29 30 31 31 31 34 36 38 39 40 41 42 43 45 46 47 47 48 48 48 48 47 47 45 43 42 40 39 43 46 48 49 48 51 53 54 55 58 61 62 62 64 65 67
25 27 27 30 30 29 28 30 32 33 33 32 31 31 32 33 34 35 35 36 37 37 37 38 37 36 34 33 31 30 30 29 29 29 31 32 34 35 39 42 44 48 52 54 56 56 57 59 61 63 66 69 71 72
26 27 29 32 32 35 37 37 34 30 28 26 23 23 24 24 24 23 23 23 24 24 25 25 25 26 27 28 30 32 33 34 35 36 37 39 41 43 45 47 49 51 52 54 56 59 62 64 67 70 72 75 74 71
31 33 34 34 32 28 23 20 19 18 16 16 15 15 15 16 17 18 18 20 22 25 28 30 32 34 36 37 39 39 40 41 42 43 44 45 46 48 50 51 52 55 57 60 63 66 68 70 73 74 72 67 64 61
31 26 22 17 14 13 11 11 13 13 14 14 14 17 20 22 24 26 28 30 32 34 37 39 41 41 42 42 42 42 42 43 44 45 47 48 49 50 54 56 59 62 64 65 67 70 72 72 67 60 56 54 53 52
14 13 12 12 12 14 16 17 19 20 22 24 26 28 30 32 34 35 37 38 39 40 40 40 40 41 42 43 43 44 45 45 46 47 49 51 54 56 58 61 63 66 69 71 70 68 64 58 53 51 51 49 47 46
14 15 17 19 21 22 24 26 28 30 32 34 35 36 37 38 38 39 39 39 39 40 40 40 40 40 39 39 39 39 41 44 46 50 53 57 60 63 66 68 69 68 66 64 61 58 55 52 51 51 50 48 47 45
23 25 26 28 29 31 32 32 33 33 32 34 36 37 38 39 38 38 38 37 37 36 35 35 34 35 36 38 42 45 49 52 56 59 63 65 66 66 65 64 63 61 59 58 56 55 54 53 53 52 50 49 48 46
25 26 27 28 29 31 32 33 34 34 35 34 33 32 32 32 31 31 31 30 31 31 32 34 37 40 44 48 51 55 58 60 61 62 62 62 61 62 61 60 60 59 58 57 56 55 54 53 52 51 50 49 48 46

GFSWCAN_500_spd_027.txt.gz
Wind_Speed
31 31 31 30 32 36 37 38 40 40 41 45 57 74 98 99 91 85 81 76 68 57 40 51 53 53 55 53 52 45 47 49 45 42 37 30 25 21 18 16 14 13 12 12 12 13 15 15 17 18 21 23 25 29
24 22 23 24 28 32 36 35 31 37 37 44 52 75 98 96 87 82 78 69 51 35 38 41 53 55 52 52 54 46 46 38 40 42 37 32 27 24 21 18 17 15 15 14 15 16 17 18 19 20 23 26 31 34
16 19 19 24 27 32 31 28 32 35 36 44 59 80 96 94 88 82 72 67 51 41 38 48 49 51 52 55 52 47 54 40 47 43 41 36 33 28 25 22 22 18 18 18 19 21 21 24 25 27 29 31 35 38
19 18 20 23 28 32 35 34 35 35 38 46 68 91 85 85 83 77 71 55 41 51 47 47 52 55 54 52 49 50 49 50 42 44 43 39 36 33 28 28 26 24 23 24 24 27 28 32 34 36 39 41 42 44
43 29 22 24 31 33 35 36 34 42 42 70 90 96 83 78 73 66 62 70 37 37 38 59 54 51 53 50 46 48 48 44 41 44 47 45 40 36 33 33 31 30 31 30 32 32 33 36 39 41 43 46 47 47
50 44 36 25 25 32 37 42 45 56 86 97 93 76 85 74 59 59 44 51 46 36 28 40 36 50 57 46 40 45 46 45 47 50 50 48 43 38 37 36 35 35 35 36 37 38 40 41 43 45 47 48 47 47
53 51 49 51 47 46 47 53 70 86 101 79 79 81 85 75 63 56 53 29 54 48 40 50 43 47 49 48 41 45 47 47 51 52 52 49 45 43 42 41 39 40 39 40 42 43 44 45 46 49 50 48 48 47
50 52 54 56 57 58 61 76 86 74 65 72 72 68 70 78 46 25 31 27 29 29 37 36 41 43 47 43 39 40 41 44 49 50 48 48 48 47 48 47 45 43 42 44 45 46 48 50 51 50 48 48 47 48
49 52 50 52 55 58 73 78 65 49 66 62 62 69 66 56 43 22 28 25 17 20 26 29 32 34 37 37 37 37 37 39 45 47 48 46 47 48 48 46 45 46 47 47 46 47 50 52 51 52 50 49 50 51
42 46 49 51 50 56 57 55 56 48 53 68 60 56 46 32 26 42 23 19 19 19 25 30 28 28 28 30 32 35 38 40 43 44 43 45 44 44 45 45 45 46 48 48 47 48 49 50 51 49 50 50 52 53
36 40 43 44 46 50 51 54 56 54 51 50 45 40 36 34 33 32 29 30 28 22 22 24 25 25 28 28 29 32 35 38 41 43 44 44 44 44 44 45 46 46 46 47 48 49 50 50 50 51 52 53 53 52
29 33 33 34 35 40 46 50 44 44 49 46 39 35 34 30 28 27 25 24 22 21 21 23 23 23 22 24 27 31 34 38 41 42 43 44 42 42 43 45 45 44 45 47 48 49 49 51 51 53 53 53 51 50
24 23 27 30 33 33 36 38 40 43 42 40 40 38 35 36 37 36 33 30 26 27 27 16 18 27 29 28 28 31 33 37 40 42 42 42 42 42 42 42 42 42 43 44 48 50 51 52 53 53 48 47 51 54
20 24 22 24 28 23 28 32 32 32 33 35 36 38 39 38 35 33 29 28 32 34 37 21 24 21 17 23 29 30 35 38 39 39 37 38 39 39 38 38 39 41 45 48 50 51 52 50 47 46 49 52 54 57
14 13 10 17 24 26 29 28 29 29 31 31 33 36 37 30 29 24 22 22 28 35 33 39 26 23 24 27 31 33 34 37 39 39 38 37 36 38 39 41 44 47 50 51 50 48 46 46 47 49 53 56 60 62
9 7 9 15 21 18 15 17 19 19 22 27 28 29 28 25 24 18 15 20 27 29 29 30 33 32 32 33 33 32 33 35 35 35 36 38 40 42 43 46 46 45 43 44 43 45 47 50 56 57 60 62 60 58
7 9 8 9 11 12 16 14 13 12 17 21 19 15 14 20 21 20 19 22 21 21 23 25 26 25 26 27 30 32 34 35 36 39 43 45 45 45 43 41 42 41 42 46 47 51 56 59 59 61 60 57 57 58
4 6 8 9 10 12 13 11 15 15 21 24 26 25 19 18 18 17 19 18 19 22 23 25 28 33 36 38 37 37 39 40 42 43 42 42 41 42 44 45 46 46 48 52 56 59 60 59 57 56 57 59 60 63
3 4 6 9 9 12 12 13 15 17 18 19 21 22 21 21 21 21 23 25 26 27 29 31 32 34 36 38 39 41 42 43 43 44 45 45 45 47 48 49 52 54 55 57 56 55 56 56 57 59 61 64 65 67
8 9 10 11 11 13 14 18 18 18 19 20 23 24 25 26 26 28 28 28 29 31 31 33 34 36 36 38 41 42 44 46 47 47 47 47 49 50 52 54 55 53 52 53 54 56 58 60 62 65 65 65 65 64
10 12 13 15 16 16 16 16 18 18 19 19 23 28 30 30 31 30 29 31 32 33 35 37 38 40 42 42 43 45 47 49 49 50 51 52 50 49 47 48 49 51 54 57 60 62 64 66 66 65 63 59 56 53
5 5 4 7 10 13 16 19 17 19 18 20 22 26 31 31 33 34 34 34 36 37 39 40 41 42 42 43 43 43 44 44 44 43 44 45 46 48 50 53 55 58 60 61 63 63 62 63 63 61 58 56 56 56
7 6 7 7 6 6 4 6 8 11 13 17 19 21 22 23 24 25 28 29 30 31 32 32 33 34 35 37 38 39 41 42 44 46 48 50 52 54 56 57 58 59 59 58 56 55 56 56 55 53 55 57 60 62
8 8 8 9 10 13 14 15 17 19 21 23 23 24 27 29 30 30 32 33 34 36 37 38 39 41 42 43 44 46 47 48 50 52 53 54 54 55 55 54 54 51 49 50 52 54 55 56 57 57 60 61 62 65
17 17 17 20 22 23 25 28 29 31 31 33 36 34 31 33 34 35 36 37 38 40 42 43 44 45 46 47 47 47 47 47 46 45 44 43 41 40 39 37 38 39 41 44 47 50 52 55 57 60 63 64 64 65
20 21 24 26 27 30 32 35 36 35 38 36 31 30 30 31 33 35 36 36 36 36 35 35 36 36 35 35 34 33 32 33 33 33 35 36 38 40 41 42 45 47 49 52 54 56 58 59 60 62 64 66 68 70
24 25 26 29 33 36 35 34 34 33 31 27 24 23 23 24 26 26 26 26 25 25 25 24 24 24 26 28 31 33 36 39 41 43 45 46 48 49 49 50 51 52 54 55 56 58 59 61 63 65 68 70 71 72
25 26 29 31 30 32 30 29 26 21 19 18 17 16 16 15 16 17 17 19 20 23 26 28 30 32 35 38 40 42 45 46 47 47 47 47 48 50 50 51 52 53 55 57 59 61 64 66 68 69 71 73 74 71
27 28 25 26 27 24 21 17 15 15 16 17 17 18 19 21 23 25 27 29 31 33 36 38 40 42 43 44 45 45 45 45 46 48 49 49 49 50 51 52 54 55 57 60 63 65 68 71 73 73 71 69 65 62
24 22 23 21 19 18 19 19 21 22 23 24 26 28 29 31 33 35 37 38 40 41 41 42 43 43 43 44 45 46 46 46 47 47 46 46 47 49 51 55 59 62 66 69 71 72 72 71 69 67 64 61 58 56
19 20 20 22 24 26 27 29 30 32 33 34 35 35 36 36 37 37 38 39 41 41 42 43 42 42 42 42 42 42 42 44 45 47 50 53 56 60 63 66 69 70 70 70 69 69 68 66 65 63 61 59 57 54
22 24 26 27 29 30 30 31 32 32 32 34 35 36 36 37 38 38 37 36 36 36 35 35 36 36 37 38 40 42 45 48 52 56 59 63 66 67 68 68 68 67 66 65 63 62 60 58 57 56 55 54 53 51
25 27 27 26 26 27 28 29 29 28 28 29 29 29 29 28 27 28 28 29 30 31 32 33 36 38 41 44 48 51 54 57 59 61 61 61 62 62 62 62 63 63 62 62 61 60 58 57 56 54 52 51 49 48

GFSWCAN_500_spd_030.txt.gz
Wind_Speed
27 30 32 39 44 45 45 44 45 46 46 44 39 34 53 75 95 97 88 82 73 64 60 59 62 56 53 55 56 55 51 50 49 48 46 45 40 36 31 25 23 24 21 20 19 18 16 16 20 21 19 18 20 23
24 30 30 34 36 39 41 42 45 47 45 43 38 32 49 72 91 94 90 75 67 39 55 62 62 57 54 50 56 55 50 48 45 43 46 44 41 36 31 26 26 23 19 18 16 14 16 16 15 15 16 19 23 26
22 24 25 27 28 29 31 36 39 40 38 37 32 33 47 71 89 88 65 75 72 49 26 44 47 51 52 54 54 53 50 46 44 41 42 43 38 34 33 29 28 24 21 19 19 17 18 18 18 20 23 26 28 31
16 18 20 23 25 26 26 28 31 34 39 37 37 41 57 77 88 83 73 72 79 70 42 27 31 42 51 54 54 52 50 47 47 44 44 50 43 38 35 34 32 29 27 23 23 21 24 25 26 29 30 33 35 38
18 19 21 26 29 30 30 30 30 32 37 41 44 50 74 84 86 71 59 69 71 62 36 30 30 40 49 52 52 51 52 49 43 45 48 43 42 40 41 40 38 33 31 29 28 29 30 31 33 35 38 40 42 44
24 23 27 31 37 35 32 30 29 31 37 43 50 69 84 88 88 67 54 64 54 48 40 28 38 38 44 45 52 47 46 42 45 46 41 33 39 44 45 44 40 38 36 34 33 34 35 36 37 39 42 44 46 48
23 27 31 33 36 35 34 32 32 34 40 53 71 83 86 85 83 75 64 61 52 29 38 26 32 43 38 37 34 45 42 43 46 42 44 48 50 49 46 46 44 42 41 39 38 38 39 40 42 44 46 48 49 50
37 26 28 36 35 34 32 32 40 41 56 71 81 83 85 78 59 49 58 48 46 31 20 34 44 51 42 43 54 48 41 38 40 42 44 45 44 45 46 47 47 47 45 43 43 44 45 46 47 48 49 50 51 52
39 39 33 32 32 30 31 44 54 66 75 75 74 70 70 66 54 46 51 50 47 23 25 35 33 37 30 33 42 46 40 35 37 42 46 45 46 48 49 48 48 49 49 49 48 47 48 48 49 50 51 52 53 52
73 71 67 55 52 54 62 74 77 76 79 76 72 64 61 61 37 48 39 34 36 33 32 40 45 37 29 33 33 37 41 40 37 38 40 43 45 48 49 47 46 46 46 47 48 49 49 49 49 51 52 52 53 53
64 62 58 55 53 55 67 74 79 82 81 80 79 54 46 44 44 35 35 30 22 19 17 22 30 42 37 37 35 35 34 35 36 38 38 38 39 40 42 43 43 44 45 47 46 46 47 49 51 52 51 52 53 53
38 45 56 54 41 39 51 49 62 70 73 74 48 27 25 26 28 31 23 18 5 10 12 17 26 29 29 30 35 37 36 36 37 37 38 39 39 39 39 41 42 44 44 45 47 49 50 51 50 50 51 52 54 55
30 32 33 31 43 45 33 36 48 36 50 39 34 24 23 20 17 16 18 16 15 15 15 19 25 27 25 27 30 31 32 33 34 35 36 36 36 36 38 40 42 44 46 49 50 49 47 47 48 50 53 55 56 56
31 28 27 33 38 37 37 39 36 35 28 14 19 15 15 16 20 22 22 18 17 20 19 21 20 20 22 30 28 28 26 28 32 33 34 33 34 36 38 42 44 44 44 44 44 45 47 49 52 54 55 54 51 47
23 25 25 24 24 25 28 33 38 38 32 25 23 24 22 24 25 24 21 18 19 19 22 28 25 30 29 27 27 23 24 24 24 26 29 35 34 34 37 38 38 37 37 40 44 47 50 52 53 50 49 51 52 54
18 20 20 25 25 21 18 18 20 23 27 26 26 27 25 23 19 17 20 17 17 19 22 25 31 31 27 22 25 27 24 26 28 31 32 34 33 33 34 35 38 42 47 50 51 52 52 52 51 53 54 54 56 60
15 20 23 19 21 16 16 22 21 19 18 19 20 18 19 20 22 21 17 14 12 12 14 15 20 25 27 31 30 30 31 29 28 29 29 31 35 38 41 43 47 51 53 53 52 51 52 53 53 57 57 58 64 64
12 14 16 16 16 16 18 19 19 19 20 17 20 20 19 20 27 26 23 17 15 15 15 17 19 21 23 26 28 29 31 34 35 36 39 42 43 44 48 51 53 52 52 52 54 54 54 55 57 60 63 63 62 61
12 11 11 10 9 10 10 12 13 14 17 18 18 19 17 14 15 20 20 18 19 21 22 22 24 25 27 29 33 37 39 40 42 43 45 47 49 51 52 52 52 53 54 54 55 55 57 60 61 61 60 60 62 63
3 5 7 8 9 11 13 14 15 15 15 17 19 20 19 21 22 21 22 23 24 24 25 27 30 32 34 36 38 41 43 46 48 48 48 49 50 51 52 52 52 53 55 57 58 57 56 57 58 60 63 64 65 65
3 5 5 5 7 9 10 16 17 17 17 18 19 21 23 25 26 27 28 29 30 31 32 33 34 35 37 38 39 41 44 47 50 52 52 52 52 52 53 53 51 50 50 51 53 55 59 61 63 64 65 65 65 64
4 4 4 5 5 8 11 14 17 19 19 20 21 22 24 27 29 31 32 32 34 35 36 38 39 41 42 44 46 48 50 51 52 53 53 50 47 47 48 49 50 53 55 56 58 59 59 60 60 60 60 59 58 59
7 5 6 4 2 1 0 1 3 6 8 10 12 14 16 19 21 26 27 29 30 32 33 34 36 37 38 39 41 41 42 42 44 45 46 47 49 51 52 54 55 56 58 58 58 58 57 57 56 54 55 56 58 59
6 7 6 6 7 10 9 12 12 13 15 20 19 20 22 26 27 26 26 29 32 33 35 37 38 39 41 42 43 44 46 47 48 49 50 51 51 52 51 51 50 50 50 48 47 48 48 49 50 52 55 57 59 62
3 7 10 13 16 19 21 22 20 25 23 29 32 26 27 31 32 32 32 33 35 38 39 41 43 44 44 45 45 45 45 45 44 44 43 42 41 40 40 41 42 44 46 47 49 51 53 55 57 59 61 62 63 64
13 14 17 22 23 25 27 27 28 29 31 33 34 34 33 33 32 35 37 36 36 35 36 36 36 36 36 36 36 35 34 33 33 33 35 37 40 43 46 49 51 53 54 55 57 58 59 60 61 62 64 64 65 66
18 20 23 25 26 28 29 30 30 32 36 32 31 31 30 28 26 25 26 27 26 26 25 25 25 25 26 27 29 31 33 36 39 42 45 48 50 52 53 55 55 56 57 58 59 60 62 63 64 64 65 66 67 67
23 24 25 26 28 29 28 30 33 33 31 27 24 20 18 18 19 19 19 19 20 22 23 26 29 31 33 36 39 42 45 47 49 51 53 54 54 54 54 56 57 58 59 59 60 60 60 61 62 65 68 71 74 76
25 26 26 29 29 27 30 31 29 27 25 23 22 23 23 23 24 26 28 29 31 34 35 37 39 41 43 44 45 46 47 48 49 50 51 52 53 54 54 54 54 55 56 58 60 63 66 68 71 74 76 77 76 75
28 28 28 25 26 27 27 27 27 28 29 30 31 32 33 34 35 36 37 39 39 40 41 41 41 42 44 46 47 47 48 48 48 48 48 49 50 52 53 55 58 61 64 67 70 73 75 76 76 75 74 73 70 68
23 21 23 25 26 27 29 31 32 32 32 33 33 34 34 35 36 37 37 37 38 39 40 40 40 39 39 39 39 40 41 43 45 47 50 54 57 60 63 65 67 69 70 71 71 71 71 71 70 69 67 66 64 62
20 22 24 26 28 29 28 26 27 28 30 31 32 32 32 31 31 31 31 31 30 30 31 32 33 34 36 38 40 42 45 48 51 54 56 58 61 62 64 64 64 64 63 62 61 60 59 58 58 57 56 56 55 53
23 25 27 27 25 25 25 26 27 28 27 26 25 24 23 23 23 23 24 25 27 29 31 32 34 37 40 42 44 46 48 49 50 50 49 49 49 49 49 49 49 48 48 48 47 47 47 48 48 49 49 49 49 48

GFSWCAN_500_spd_033.txt.gz
Wind_Speed
31 35 40 42 45 50 51 45 44 50 49 49 47 46 45 42 39 44 74 88 89 85 83 77 74 68 62 62 61 58 62 60 58 55 50 50 51 46 43 40 34 31 33 33 31 29 26 21 24 22 19 20 21 23
26 32 37 40 41 44 46 43 43 49 49 46 45 44 40 40 38 48 75 88 88 82 80 74 70 65 61 61 57 61 62 61 59 54 52 50 48 43 40 41 35 33 31 29 28 24 21 18 16 14 14 17 20 21
21 23 27 31 35 37 37 37 42 46 44 45 42 38 34 34 40 53 77 85 83 79 77 70 67 66 61 56 60 61 60 59 54 50 50 48 47 42 39 38 32 34 31 29 27 23 21 18 17 17 18 20 22 24
21 22 24 27 30 35 36 39 39 40 42 42 37 34 31 29 59 60 76 81 81 78 68 64 52 59 60 54 56 60 63 58 52 51 50 49 47 40 37 35 35 33 32 30 29 25 23 23 23 23 23 25 27 30
19 21 22 25 28 30 33 35 34 35 36 37 34 29 28 40 57 65 74 77 76 70 63 56 41 45 53 57 53 58 60 56 57 56 50 50 43 40 38 39 41 37 33 32 31 30 30 29 29 29 31 32 34 36
18 20 23 24 25 24 26 27 28 29 29 28 29 29 35 58 64 72 73 78 71 55 62 35 37 33 41 57 58 56 52 56 57 56 54 49 45 41 40 42 47 43 37 37 36 35 35 36 36 37 38 38 39 41
19 19 22 26 27 25 24 24 27 31 33 34 29 31 45 62 82 76 73 73 71 57 47 36 38 34 41 49 53 54 53 52 54 55 51 45 43 45 44 39 43 42 43 43 40 41 40 39 39 41 42 44 45 47
25 29 33 35 35 33 31 31 35 38 39 41 40 39 56 76 82 75 62 52 71 61 25 26 26 27 38 46 51 52 51 48 47 49 50 46 45 44 46 39 40 37 38 41 43 43 43 43 44 46 48 49 50 51
27 32 32 32 30 27 26 29 35 41 43 41 44 56 71 75 69 55 38 30 48 51 44 22 22 22 35 36 38 45 46 46 55 47 47 43 44 46 44 45 43 41 39 42 45 46 47 47 48 49 50 51 52 53
30 26 26 24 23 25 29 32 36 41 47 56 69 74 74 72 57 50 36 27 36 47 39 24 43 18 37 39 41 39 43 43 41 51 46 44 41 42 41 43 43 42 41 45 46 47 47 48 49 50 51 51 52 52
42 34 29 28 29 33 34 39 46 55 67 73 73 71 74 56 45 33 23 24 41 49 29 16 19 11 47 39 30 38 36 41 42 42 37 35 39 38 42 43 42 44 45 45 46 47 48 48 50 50 50 51 53 54
58 61 57 57 58 59 60 64 67 69 72 68 59 52 42 31 22 13 34 28 19 22 23 21 21 26 43 27 26 32 35 36 42 45 47 48 41 37 37 39 40 39 38 40 42 44 45 47 48 51 53 54 54 54
53 53 68 78 68 59 65 65 68 70 71 66 62 38 25 16 23 39 38 24 21 18 12 18 24 35 43 42 34 38 42 41 40 41 39 37 38 38 38 39 40 42 42 42 43 45 47 48 50 52 52 51 52 53
39 41 38 46 63 66 67 63 52 66 58 51 45 17 19 20 29 27 20 16 15 14 12 12 15 21 26 31 33 31 30 30 30 32 33 34 34 34 35 36 37 38 36 33 39 48 49 47 48 49 49 51 54 58
28 35 41 44 32 41 37 53 52 22 30 32 28 18 15 15 17 16 16 15 13 9 10 11 18 24 26 28 29 28 28 31 31 28 28 30 32 33 32 31 32 35 39 44 46 47 44 43 45 48 54 58 60 60
23 21 20 24 29 27 22 21 20 15 13 14 13 9 4 7 11 11 10 10 10 12 12 14 17 21 26 28 29 27 30 32 25 25 27 28 29 31 33 36 38 38 38 38 39 39 41 46 52 58 59 58 57 59
16 19 20 18 16 17 15 14 13 13 11 9 8 8 8 10 13 13 11 12 15 17 16 18 22 28 31 30 28 24 22 28 30 32 32 33 35 35 34 35 37 38 40 42 45 48 52 56 58 58 58 59 60 62
16 20 18 11 9 8 5 8 9 9 10 9 10 12 13 12 14 15 18 18 16 13 13 13 15 18 26 32 36 35 35 35 34 35 36 33 34 38 39 39 42 45 48 50 53 55 57 58 59 59 60 61 62 64
17 17 13 12 12 14 15 14 15 14 15 16 16 17 16 16 15 15 18 21 22 20 16 16 18 20 21 23 25 28 29 31 33 35 37 39 40 41 43 46 49 52 53 53 55 57 58 59 60 61 63 64 64 63
13 13 11 9 8 8 10 12 14 14 15 15 15 15 15 16 17 17 16 14 15 20 19 22 24 27 28 29 30 32 34 35 37 38 39 40 43 47 50 52 53 53 53 54 56 58 60 61 62 61 60 61 62 64
6 5 6 7 8 10 10 11 13 15 15 15 15 16 17 18 20 21 22 23 23 26 28 31 32 33 34 35 37 38 40 42 43 45 47 49 50 51 52 54 55 57 58 58 58 56 56 57 58 59 61 61 62 62
10 11 10 10 12 12 13 14 17 16 15 17 18 20 22 23 23 25 26 28 30 32 34 35 37 38 39 40 41 42 43 44 46 48 50 52 53 55 56 56 55 54 53 54 55 57 59 59 60 61 60 60 58 58
7 6 10 8 7 9 8 9 10 11 9 9 9 10 13 16 18 21 21 24 26 29 32 35 37 40 42 43 44 45 46 47 47 48 49 49 49 50 50 52 53 54 55 55 55 54 54 54 54 55 55 54 55 58
4 7 5 4 3 3 3 4 3 7 8 9 13 15 19 21 24 25 26 27 29 31 32 33 35 37 39 41 42 43 44 46 47 48 49 50 51 51 52 52 52 51 49 49 49 50 51 52 55 57 60 62 63 65
5 3 3 4 5 7 10 14 17 17 19 22 22 25 27 29 30 35 35 35 35 35 37 39 41 42 43 44 44 45 45 45 45 45 44 44 44 43 42 42 43 44 46 49 52 55 59 61 64 65 66 67 68 68
7 7 9 11 15 17 19 22 23 23 26 25 26 31 35 37 41 39 38 39 39 38 38 37 37 37 38 37 36 35 35 34 35 35 35 36 38 40 43 47 50 54 57 59 62 64 65 66 66 67 68 69 70 70
14 15 15 17 20 22 24 26 27 29 31 31 34 37 39 38 36 36 34 31 29 27 27 27 26 25 25 25 27 29 31 33 36 38 42 45 48 51 54 56 58 60 61 63 64 65 66 67 68 68 69 69 69 69
17 18 21 23 25 28 29 31 33 34 34 36 39 38 34 32 29 27 26 26 26 26 27 28 29 31 33 35 38 40 42 45 47 49 51 53 54 55 56 58 60 61 61 61 62 63 64 66 67 69 71 73 75 78
23 26 26 28 30 32 34 35 36 37 38 37 34 32 31 31 32 32 33 34 35 36 37 39 40 41 42 44 46 47 47 48 49 50 51 52 52 51 51 52 54 57 60 63 66 69 72 74 75 76 77 77 77 77
28 29 30 32 33 34 33 34 34 35 35 34 34 35 35 35 36 36 37 38 39 39 40 41 42 42 42 42 43 43 43 43 42 42 43 45 47 50 54 57 60 63 65 67 67 67 67 66 66 65 64 64 63 63
29 31 32 31 30 31 32 33 34 33 32 32 33 33 33 33 33 33 33 34 34 34 34 35 35 35 35 35 36 36 38 39 41 44 47 49 51 51 50 48 47 48 48 49 48 48 47 48 48 50 51 53 53 54
25 25 27 28 29 31 31 30 30 30 31 32 32 32 30 29 27 26 25 25 25 25 25 26 28 29 31 33 35 38 40 41 42 41 37 33 31 32 32 34 35 37 38 39 39 40 40 42 43 45 46 47 47 47
23 25 27 28 30 29 29 29 30 30 30 30 30 27 24 22 21 21 21 22 23 24 26 28 30 32 34 35 35 33 28 23 21 21 22 24 25 26 27 29 32 34 36 37 38 38 38 39 40 41 41 40 39 38

GFSWCAN_500_spd_036.txt.gz
Wind_Speed
20 25 29 35 47 53 51 49 53 55 54 51 51 49 51 49 49 43 34 44 63 81 87 87 84 77 73 63 58 56 55 59 55 56 56 55 53 50 45 39 35 34 34 32 30 31 27 28 29 28 26 25 26 25
33 27 30 35 39 39 45 47 49 50 47 47 46 47 48 49 48 42 37 34 62 69 85 87 84 78 71 69 64 59 56 57 57 58 59 55 53 50 50 41 35 37 34 36 36 30 28 26 24 23 22 20 20 20
22 25 27 30 36 41 42 43 44 46 44 44 45 47 47 48 46 38 32 35 59 65 75 82 80 78 77 72 64 61 63 63 58 57 59 52 52 52 49 43 38 32 35 39 33 30 27 25 23 22 22 20 18 18
20 21 22 30 34 37 38 37 37 39 40 42 43 44 46 45 38 30 29 35 53 70 73 75 75 67 71 66 62 58 66 62 59 57 57 55 51 50 48 46 39 32 31 35 35 32 27 24 25 25 24 24 23 23
22 25 27 30 32 34 34 32 32 36 38 40 40 38 38 36 34 31 30 42 50 51 69 61 71 58 50 60 57 62 63 65 60 56 55 55 51 50 48 47 45 33 31 34 33 28 32 28 28 28 28 29 30 31
19 21 23 24 27 27 26 25 29 34 38 37 32 32 30 31 31 31 36 50 60 55 52 47 58 55 48 49 52 60 56 65 62 56 51 56 51 50 53 50 41 37 36 36 37 36 35 33 32 32 34 34 36 37
19 21 22 22 21 22 22 25 27 30 31 30 30 29 27 28 26 34 49 47 56 59 54 57 56 51 37 34 45 55 56 60 61 57 53 53 52 55 50 52 42 37 36 39 40 41 39 38 38 39 40 40 42 44
19 20 21 22 23 23 23 24 24 24 25 24 23 22 26 26 35 43 54 58 42 53 61 57 53 40 42 33 38 55 54 54 55 54 55 51 54 56 53 49 43 39 38 41 35 41 43 42 46 46 46 46 47 49
21 21 22 21 22 25 27 28 28 26 25 23 23 24 22 40 45 38 58 57 54 52 51 51 44 31 34 43 39 45 52 51 48 46 50 53 52 53 49 48 43 43 42 45 42 39 40 43 46 45 46 47 50 52
27 28 27 26 27 30 32 32 31 30 28 24 25 25 33 37 45 53 37 34 41 46 48 50 38 24 29 33 35 37 42 51 50 51 48 46 48 50 52 47 49 51 46 40 41 43 48 50 49 48 48 51 52 53
24 23 21 22 25 28 31 29 26 23 22 21 31 49 65 64 54 35 24 30 40 43 52 31 15 20 17 31 37 41 39 40 44 45 48 46 45 47 50 45 44 45 46 49 48 49 46 43 43 46 49 51 51 51
28 30 34 37 35 34 34 31 28 34 48 48 63 56 51 43 35 35 29 20 33 48 45 28 22 11 17 10 35 41 42 44 41 46 43 40 41 47 48 45 43 45 38 39 41 41 42 43 43 44 45 48 48 39
67 65 64 68 62 57 52 53 59 58 57 57 59 48 35 25 21 23 23 20 20 26 21 27 25 15 21 14 23 48 37 41 44 38 46 38 33 45 43 42 41 42 41 37 38 41 44 44 45 44 46 46 46 55
57 63 67 70 63 64 55 41 37 39 54 47 38 28 24 11 8 12 13 14 13 14 19 16 20 21 21 22 23 34 29 36 40 36 35 32 32 36 42 43 41 37 37 39 41 41 40 38 46 51 45 46 52 58
53 62 67 56 45 49 47 39 53 52 40 35 23 12 9 10 10 10 16 21 13 13 10 9 11 16 18 24 33 40 35 30 35 39 34 32 31 30 30 32 33 34 37 39 39 38 39 41 45 51 55 55 54 51
42 51 56 50 51 52 45 37 37 29 20 28 22 17 20 22 21 19 18 14 9 5 2 1 1 4 8 14 19 25 32 33 31 28 26 26 27 27 28 30 33 34 35 36 38 41 45 47 49 49 48 49 51 56
28 28 27 22 29 19 23 18 18 18 12 10 9 8 9 10 9 8 7 7 7 7 7 7 10 11 14 16 18 22 25 28 27 26 26 27 28 27 29 33 37 39 41 43 44 45 47 47 48 49 51 55 59 64
20 17 17 17 16 15 12 10 8 7 7 4 2 3 5 6 11 13 11 10 9 9 9 12 14 16 20 24 28 28 28 27 28 28 27 32 32 34 38 39 40 41 42 45 48 49 50 50 52 57 62 65 66 66
7 13 12 10 5 11 6 3 6 5 4 5 6 6 7 7 10 11 12 13 14 15 16 17 17 16 18 19 20 23 26 27 28 29 30 32 34 37 40 41 43 45 48 51 54 53 53 58 61 64 65 65 66 66
15 12 11 11 10 10 10 9 9 7 7 6 6 9 7 8 10 10 10 9 11 15 19 23 24 22 22 23 24 25 27 30 32 35 37 39 41 43 45 46 48 51 52 52 54 59 62 64 64 64 65 66 68 68
8 9 10 11 9 6 7 8 9 10 11 11 12 13 13 13 14 15 17 17 17 17 17 18 21 24 27 29 31 33 35 38 40 42 44 46 48 49 50 51 53 56 58 60 61 62 63 65 66 65 63 63 64 64
8 8 7 8 8 9 10 9 9 9 10 12 12 14 15 17 18 20 21 22 24 25 26 27 28 29 31 33 35 38 40 42 44 46 48 49 51 53 55 57 58 59 61 63 64 63 61 60 61 62 62 62 62 62
8 6 5 4 4 7 7 8 6 5 1 2 4 7 10 13 15 18 15 19 20 24 27 31 34 37 38 41 42 44 45 47 48 50 51 52 54 55 56 56 56 56 57 58 58 58 58 58 58 58 58 59 60 62
10 14 9 6 5 3 4 2 0 3 3 5 11 12 14 15 16 19 22 26 27 27 27 30 33 34 36 39 42 43 45 46 47 48 49 50 51 52 53 53 53 53 53 53 53 53 53 54 55 58 61 65 68 71
10 8 7 6 3 3 3 5 9 11 15 19 21 21 21 24 28 27 30 35 37 37 40 40 38 40 41 42 43 44 45 46 47 47 47 47 47 46 46 46 46 46 46 48 50 53 57 61 64 68 71 73 74 75
7 5 6 7 8 10 12 15 17 21 26 28 27 29 30 31 33 35 39 42 43 43 44 42 39 38 37 36 34 33 34 34 34 34 35 35 37 38 40 43 46 50 54 57 60 63 65 67 69 70 72 73 74 74
9 11 13 14 16 18 21 24 28 31 30 31 33 35 36 38 41 45 46 44 41 39 37 34 31 29 28 28 29 30 31 33 35 37 40 43 45 48 51 53 56 58 59 60 61 62 62 63 65 68 71 75 78 80
16 17 19 21 23 26 28 31 33 33 36 39 40 40 42 44 47 47 44 42 38 35 33 33 34 35 36 37 38 39 41 43 45 47 49 50 51 52 52 52 52 52 52 53 56 60 63 65 65 65 64 64 64 65
19 21 22 25 27 30 31 33 36 38 39 39 41 44 46 47 45 41 40 38 38 38 39 39 39 40 41 43 44 45 45 45 45 45 45 45 45 44 44 46 48 51 52 52 48 44 43 44 46 47 49 51 53 55
23 25 28 31 32 34 36 36 36 37 40 43 43 43 40 38 38 38 37 37 36 36 36 36 36 36 37 37 38 38 38 37 37 37 38 39 41 43 44 42 36 32 31 32 35 37 39 40 41 43 44 47 48 50
29 30 31 32 32 33 35 36 37 38 39 38 37 36 37 37 37 36 33 31 30 29 29 28 28 28 28 29 29 30 31 33 35 36 38 35 30 25 25 26 27 28 30 33 35 36 37 38 40 41 43 45 46 47
27 27 29 31 33 34 35 35 36 36 35 35 36 37 37 35 32 29 26 25 24 23 23 23 24 25 27 28 30 31 32 30 24 19 18 20 21 23 24 26 27 29 32 34 35 36 36 37 38 40 42 43 44 45
27 28 30 31 32 33 34 33 32 32 35 37 37 34 31 28 24 22 21 21 21 22 23 25 26 27 27 26 21 15 13 13 15 16 19 22 24 25 26 27 28 30 31 33 35 36 37 37 38 39 40 41 42 43

GFSWCAN_500_spd_039.txt.gz
Wind_Speed
21 15 8 12 23 27 32 37 43 63 60 58 55 53 57 51 47 41 37 36 37 51 69 82 82 82 80 76 66 61 57 54 50 54 55 50 54 51 48 42 39 37 32 33 33 34 34 22 24 26 26 24 22 22
19 20 13 18 25 30 36 40 60 56 56 58 53 50 54 49 42 37 36 33 34 49 61 76 83 82 81 79 75 66 54 53 53 53 54 53 53 53 50 47 42 39 34 34 32 30 28 24 24 25 26 24 22 19
20 23 28 23 29 35 44 56 52 50 53 53 48 48 48 43 38 33 34 34 34 48 54 69 78 80 79 76 71 67 58 57 57 55 53 50 52 51 48 48 44 40 35 32 32 32 30 27 26 27 26 25 23 21
17 22 28 38 42 43 49 44 41 40 46 44 43 45 41 36 35 32 34 32 24 38 51 53 47 67 73 70 69 67 61 57 57 57 53 58 58 49 47 46 46 42 38 35 34 29 28 30 30 32 31 27 24 24
15 22 27 33 35 36 37 38 40 41 40 40 39 37 35 33 31 30 31 31 26 41 50 58 53 34 36 56 60 64 62 59 58 59 59 55 53 49 48 46 43 42 39 35 32 25 28 29 32 34 30 30 29 28
24 26 28 30 31 33 34 35 36 36 35 35 34 31 31 29 28 29 25 26 29 40 47 39 55 55 44 37 36 51 60 58 58 58 60 59 54 46 44 45 41 39 38 37 39 37 32 31 35 34 34 34 33 33
25 28 30 30 29 29 30 30 30 30 30 30 29 27 25 25 26 25 24 23 24 37 49 44 37 39 38 34 40 47 47 55 57 56 61 59 57 48 39 44 45 43 42 40 42 38 34 34 37 40 39 38 37 38
25 27 30 29 28 27 29 30 30 31 30 27 24 23 24 25 24 22 24 24 22 32 41 45 23 27 35 36 36 31 41 52 55 57 57 58 57 51 44 36 42 42 42 42 41 37 35 32 30 31 40 44 45 43
25 25 25 25 26 27 28 28 26 26 26 26 25 23 21 25 23 21 26 31 41 37 38 40 29 26 28 32 34 34 34 42 50 53 54 51 53 51 46 42 38 45 47 46 44 40 40 40 39 42 42 42 40 42
25 26 26 27 26 24 23 25 25 25 24 22 21 18 18 21 22 26 34 42 42 52 49 25 41 41 34 31 25 22 29 35 43 48 48 49 46 47 52 51 45 44 48 52 51 45 42 42 45 44 44 43 46 51
26 24 26 28 28 29 27 25 24 22 20 17 17 14 17 23 32 38 27 28 51 46 44 39 41 34 24 31 36 28 17 32 43 43 42 46 45 45 45 46 45 46 48 49 49 49 48 52 48 48 45 48 55 49
32 32 30 29 29 27 26 25 23 18 15 24 36 44 39 34 45 29 23 23 23 27 39 40 36 32 18 26 36 21 27 28 29 36 40 42 40 42 45 45 43 44 47 51 51 49 46 48 58 49 47 55 47 42
45 42 39 39 38 48 40 32 39 45 50 56 52 52 50 35 26 25 17 13 16 24 28 31 33 22 19 23 32 40 30 28 34 33 34 36 39 39 38 42 46 50 53 53 48 48 43 40 40 42 44 41 43 44
64 64 59 54 60 62 61 57 54 44 30 42 40 32 18 9 26 21 22 21 14 24 30 12 8 3 8 11 8 10 26 35 37 37 38 36 32 22 34 36 37 44 52 50 44 34 45 34 33 37 41 43 42 48
55 53 53 64 68 66 61 53 51 32 21 20 21 24 21 23 25 25 25 26 26 21 19 16 17 18 16 12 16 16 19 28 37 38 38 36 41 37 33 41 37 37 36 35 36 36 35 38 41 42 40 42 43 48
44 48 38 41 47 48 46 44 38 34 21 19 25 24 24 19 14 20 17 10 21 20 17 15 13 8 8 12 18 25 25 18 28 35 37 37 34 34 30 31 32 32 30 30 32 34 37 38 39 39 43 47 51 54
41 37 38 35 29 31 34 32 30 32 29 24 23 21 21 20 19 17 15 14 12 12 10 9 7 7 7 7 7 7 10 13 16 19 25 29 29 27 28 28 29 31 32 31 32 34 38 43 47 49 50 51 53 55
23 26 29 23 22 22 21 21 21 20 19 14 15 14 10 9 9 8 6 5 3 4 4 4 7 8 9 12 13 15 16 18 19 20 21 22 22 23 26 30 31 33 35 36 40 43 46 49 50 52 55 56 58 61
13 15 17 16 14 15 16 13 10 10 8 6 6 5 4 4 6 7 8 9 10 9 11 11 11 10 12 14 17 21 23 26 28 29 30 30 29 29 31 33 36 38 40 43 45 48 50 52 55 57 58 60 62 62
10 7 8 7 6 5 5 2 2 1 3 3 4 1 1 4 7 10 11 9 8 9 11 14 16 16 16 17 19 21 22 23 23 25 27 30 32 34 36 39 42 44 46 48 49 51 53 55 56 58 59 60 63 66
11 10 9 7 6 7 8 7 7 6 4 4 3 3 4 5 8 10 12 12 13 13 13 15 16 17 18 20 22 24 26 28 31 33 35 37 39 41 43 44 46 48 50 51 53 54 56 57 59 61 63 65 66 67
17 14 12 12 10 8 7 8 6 6 6 7 7 8 9 10 12 13 15 15 18 19 20 21 22 23 24 25 27 28 30 32 34 37 40 42 44 47 48 50 52 53 55 57 58 60 61 62 63 63 64 65 66 67
10 9 9 8 5 6 6 7 5 5 2 4 6 7 10 12 13 15 15 18 20 21 21 21 22 23 25 27 30 33 37 39 41 43 45 47 50 51 53 55 56 57 58 58 59 59 61 62 63 62 62 61 62 64
12 13 10 4 3 4 5 7 4 4 2 2 5 8 11 13 14 16 18 20 22 23 25 26 28 30 32 34 37 39 41 44 47 49 50 50 51 52 52 53 54 55 55 55 55 54 54 54 55 57 60 63 67 70
12 10 7 6 4 3 3 2 3 5 7 9 13 18 20 21 23 25 26 28 29 30 33 36 38 39 41 44 45 45 43 44 46 48 49 50 49 48 47 46 45 45 45 47 49 52 55 58 61 64 67 69 70 71
10 9 8 7 6 6 8 8 10 14 17 20 24 26 27 28 30 31 32 33 36 39 43 44 45 46 46 46 43 41 38 37 36 35 35 36 37 38 40 42 45 48 50 53 56 58 61 62 62 62 61 62 63 63
9 8 8 8 10 12 15 17 20 22 25 29 31 34 37 37 36 37 39 42 45 47 47 46 43 40 38 36 35 35 35 36 37 38 40 41 43 45 47 50 51 53 53 53 53 52 52 52 54 54 50 47 47 49
13 13 14 15 18 20 22 25 27 30 34 37 37 36 36 39 42 44 47 48 47 45 42 40 38 38 38 38 38 39 40 41 42 42 43 44 45 45 45 45 45 44 44 45 46 47 42 37 36 41 44 46 48 49
17 19 21 22 23 24 26 29 33 36 36 35 37 41 42 46 48 49 46 43 41 39 39 39 39 38 38 37 37 37 38 38 38 38 37 37 36 35 36 38 40 40 36 31 29 31 33 37 41 43 43 44 44 45
20 21 23 25 27 30 33 35 35 35 37 40 43 46 47 47 44 42 40 40 40 39 37 35 33 31 31 30 30 29 28 28 28 29 30 32 34 33 29 24 23 25 27 29 31 34 36 37 38 39 40 41 42 42
22 24 27 31 33 32 32 33 36 40 44 45 46 45 42 40 40 42 41 38 35 31 28 26 25 24 24 24 25 26 27 28 29 27 22 17 16 18 20 22 25 26 26 27 29 32 34 36 38 39 40 39 39 39
27 29 29 28 30 33 36 39 42 44 44 43 40 38 40 44 41 36 31 28 24 23 22 22 22 23 24 26 26 25 20 13 11 12 13 16 19 19 19 20 22 24 26 29 32 35 37 39 39 38 36 35 35 35
24 24 27 30 32 35 37 39 40 40 39 37 38 42 42 37 31 27 23 21 21 22 23 23 23 23 22 15 9 8 8 10 13 14 14 15 16 17 19 21 23 26 30 34 37 39 40 39 35 32 32 32 32 33

GFSWCAN_500_spd_042.txt.gz
Wind_Speed
30 30 15 7 4 13 14 21 37 45 53 47 61 63 58 49 58 53 49 49 40 38 43 58 69 74 83 81 77 71 65 60 53 50 50 53 52 55 49 48 49 44 40 37 35 34 29 16 24 27 21 25 25 23
27 17 9 7 11 17 18 30 42 47 48 47 65 53 48 48 52 47 48 41 36 33 41 56 63 70 73 77 78 72 63 62 55 55 53 52 55 51 52 48 46 47 41 37 36 33 26 21 23 28 27 27 27 22
27 18 13 14 17 23 28 35 41 41 48 64 58 50 45 46 44 45 40 34 32 28 31 41 51 55 66 75 76 76 67 61 55 52 50 48 45 49 45 51 46 43 39 36 36 36 31 22 20 25 30 33 30 27
28 24 20 19 22 27 31 33 54 63 59 51 49 43 41 44 43 40 36 30 30 27 25 35 54 55 45 48 76 71 67 62 58 54 55 53 48 48 49 48 50 48 41 44 41 33 29 21 20 27 32 36 32 29
23 34 38 43 47 52 54 55 49 46 46 45 42 39 41 44 40 35 32 31 30 28 26 31 44 40 59 63 70 67 64 63 59 54 56 55 52 49 47 47 50 46 46 44 41 31 31 25 27 30 33 32 32 31
22 30 27 32 37 38 38 41 41 39 44 42 40 39 42 40 35 33 30 30 28 22 20 39 47 44 48 54 57 61 57 56 57 58 56 53 52 49 47 46 43 38 37 40 43 44 38 34 32 32 35 34 33 32
25 25 29 31 30 29 30 33 35 36 35 35 35 37 36 35 32 27 21 20 25 23 22 37 37 33 23 31 34 42 52 53 52 55 58 55 51 51 51 44 37 36 37 40 41 41 39 34 35 39 38 40 39 38
29 31 32 31 31 31 33 33 34 34 34 33 32 30 29 26 23 25 23 20 19 19 50 48 37 35 41 40 34 31 36 48 50 51 54 54 54 50 53 45 40 35 34 32 36 38 38 37 36 35 34 38 34 35
30 29 30 31 32 32 32 32 32 32 32 31 29 27 27 28 25 21 19 16 18 28 46 39 42 47 44 31 27 22 27 31 38 44 48 49 52 55 53 45 41 37 37 36 36 38 44 35 36 37 38 37 39 40
30 31 31 33 34 35 35 34 33 31 31 30 28 26 25 23 18 18 17 13 12 41 38 44 44 40 37 34 31 28 29 24 26 37 37 48 49 48 44 42 41 40 39 41 41 35 35 41 44 47 44 44 43 41
31 30 30 31 31 31 31 31 30 28 26 23 20 20 19 19 18 15 17 22 22 49 39 40 33 30 23 27 33 35 23 20 26 30 33 39 42 45 42 40 39 38 39 39 42 45 45 44 44 48 45 46 47 48
33 32 32 33 34 34 32 29 26 23 19 18 19 18 17 17 17 19 28 28 35 56 33 23 40 37 28 32 35 32 24 21 30 29 29 36 39 39 39 37 39 40 40 42 42 44 46 47 46 48 49 50 51 51
34 32 32 32 30 27 24 24 25 17 18 22 24 24 26 27 25 22 26 35 50 34 24 27 34 37 31 27 28 27 29 28 16 20 24 31 39 41 39 37 36 40 42 44 46 45 44 46 48 48 52 49 51 53
33 29 28 29 26 29 33 38 45 43 41 44 43 38 32 26 23 30 30 25 37 28 36 38 37 34 18 23 29 31 30 28 30 34 25 24 27 29 31 32 34 35 41 45 43 41 44 38 37 49 55 47 41 37
41 40 42 44 50 48 48 46 43 38 33 32 22 12 14 12 15 17 21 29 36 29 22 23 24 13 10 10 13 18 23 28 34 38 37 33 27 24 28 30 35 34 30 35 42 37 37 42 41 30 36 38 37 39
45 48 51 46 39 36 35 28 22 14 9 10 19 17 15 19 25 29 30 27 25 22 18 12 19 12 12 13 17 20 20 21 26 29 33 36 37 37 32 32 34 35 38 40 43 33 31 33 33 33 34 36 38 41
40 40 39 34 33 36 33 27 19 11 20 26 26 26 27 25 24 24 24 27 23 22 22 20 16 13 14 18 14 17 22 24 17 15 19 20 25 29 31 33 37 35 30 26 27 30 33 34 35 37 38 41 44 47
29 31 28 28 31 29 28 29 25 24 24 23 23 24 24 23 22 22 20 17 15 14 15 15 13 11 10 10 11 12 11 12 13 13 14 16 17 18 18 20 22 25 26 27 30 33 35 37 39 44 47 49 53 56
22 20 20 19 18 19 23 23 21 17 17 16 16 15 13 11 11 9 7 6 4 3 4 6 6 6 7 7 8 10 12 15 16 18 20 22 23 24 26 28 30 32 33 36 39 42 44 46 49 52 55 57 59 61
15 17 14 10 12 16 12 14 13 12 12 10 10 10 8 6 4 2 2 3 5 6 7 9 12 13 14 15 16 17 18 19 20 22 23 24 26 27 29 31 33 36 38 41 44 46 48 51 54 57 59 61 62 64
6 3 2 7 10 11 6 4 5 4 4 4 5 5 3 2 3 4 5 5 7 8 9 10 11 13 14 16 19 22 24 26 27 28 29 31 33 35 37 39 41 43 46 48 50 52 54 57 59 60 62 64 66 68
14 14 12 9 9 9 10 5 2 3 3 3 3 2 1 1 2 5 6 7 9 11 13 14 16 17 20 22 24 25 26 28 30 32 34 36 38 40 43 45 47 49 51 53 55 57 59 61 63 64 65 67 68 69
15 12 11 8 9 8 6 3 1 1 2 4 4 4 5 6 9 11 12 16 18 20 21 22 23 23 23 23 24 26 27 29 31 33 35 38 41 44 46 48 51 53 54 56 57 59 60 61 62 61 61 61 60 60
9 9 10 8 5 5 5 4 2 1 1 3 5 7 10 13 16 19 21 24 26 27 28 29 30 32 32 34 35 37 38 40 41 41 42 42 42 43 46 47 48 49 49 48 49 50 50 50 51 53 56 58 61 63
16 13 7 6 2 2 1 2 3 5 7 8 11 14 17 20 23 26 29 30 30 30 31 32 34 35 38 39 41 44 46 47 47 46 44 42 42 42 42 42 42 42 43 45 47 49 51 54 56 58 59 60 60 59
14 10 8 7 6 6 6 6 7 9 12 14 17 19 22 27 31 30 29 30 32 34 38 41 45 48 51 52 51 49 45 43 41 40 40 40 40 41 42 43 45 48 50 51 53 54 55 55 54 53 52 51 51 49
8 7 7 7 7 7 9 11 13 16 19 22 25 28 32 32 32 33 35 37 40 44 48 51 52 52 48 43 40 38 37 37 38 39 40 41 42 43 44 44 45 45 46 46 46 44 44 44 45 43 39 38 42 47
11 11 10 11 13 15 16 19 20 22 25 28 31 31 32 33 36 39 43 47 51 53 51 46 43 40 39 38 38 38 37 37 37 37 37 37 37 38 38 38 37 37 36 37 37 34 30 31 34 37 39 40 41 42
15 16 17 18 19 19 20 22 26 28 31 31 31 32 35 38 42 47 49 50 47 42 41 41 40 39 37 35 34 33 32 31 30 29 28 27 26 28 29 30 29 24 21 23 26 27 28 29 31 34 38 41 42 44
20 20 19 20 21 23 25 27 28 29 29 31 35 39 42 44 47 48 44 42 42 43 40 36 32 29 27 25 25 24 24 24 24 25 26 26 23 17 14 16 19 20 19 19 23 26 30 34 37 40 42 43 42 39
21 20 20 22 24 26 26 26 27 31 34 37 41 44 46 46 43 41 42 43 39 33 28 25 22 21 21 21 21 22 24 24 22 15 10 10 12 15 15 14 15 18 21 25 29 32 36 39 41 40 36 34 32 32
20 22 23 25 24 24 26 29 32 35 38 42 43 45 43 39 40 43 39 33 26 23 21 20 20 21 22 22 22 19 11 7 7 9 11 10 9 10 13 16 19 22 26 29 32 36 39 41 35 31 33 32 31 31
21 19 19 21 24 27 30 33 36 38 40 41 41 39 39 41 40 34 28 23 23 23 22 22 21 20 19 12 6 4 5 7 7 7 7 8 11 13 16 19 22 25 28 31 36 39 41 35 29 31 31 30 30 29

GFSWCAN_500_spd_045.txt.gz
Wind_Speed
33 37 32 25 20 19 17 22 28 33 41 55 61 60 58 57 56 55 49 55 50 42 41 47 47 48 47 51 61 71 59 68 69 61 54 56 53 49 53 57 49 48 49 49 44 44 43 31 20 27 25 27 33 33
35 26 17 13 9 6 6 10 18 24 42 55 60 62 58 50 59 57 55 44 49 40 35 38 44 43 35 39 53 69 61 57 60 59 57 55 52 50 48 52 49 52 46 49 47 45 38 28 25 22 22 30 33 33
27 12 7 9 5 5 9 18 25 29 45 49 55 58 55 56 64 51 45 44 42 37 34 32 39 42 35 38 52 65 67 52 57 58 55 54 56 47 48 44 49 51 45 44 47 42 37 33 30 28 23 26 30 34
20 12 11 12 17 24 23 27 31 35 41 46 51 56 58 64 56 45 42 46 40 38 34 30 34 37 42 36 39 58 41 52 61 60 59 56 54 49 44 42 48 49 52 46 47 45 41 42 32 30 31 33 36 37
28 19 17 18 19 25 29 32 34 34 39 45 55 62 64 54 45 42 41 40 41 34 29 27 26 31 38 35 36 41 62 51 60 60 59 54 53 51 49 43 42 48 49 48 47 46 39 39 37 35 36 35 37 35
31 38 36 35 33 32 35 43 50 53 50 51 53 50 45 39 38 38 41 39 32 30 27 21 23 35 36 41 36 29 43 54 54 52 55 55 49 50 51 43 37 38 45 43 49 43 45 45 44 38 34 33 35 37
22 33 31 36 41 46 49 48 48 45 44 42 41 39 36 37 38 38 35 30 26 26 27 21 23 31 38 40 33 28 31 46 47 52 56 52 51 50 48 45 36 34 36 40 42 45 46 44 45 45 46 39 35 39
20 24 29 30 31 34 36 38 38 38 38 39 40 41 40 38 37 34 30 27 28 29 30 18 24 32 47 40 30 23 25 32 45 52 51 50 51 48 52 48 40 37 37 35 34 36 40 39 44 46 47 43 40 39
23 22 23 24 26 30 31 31 33 35 37 39 40 39 37 34 29 26 25 24 24 26 23 24 40 35 29 32 30 27 22 27 37 41 44 45 45 51 52 47 41 40 37 36 34 36 35 38 32 34 39 39 35 35
26 28 29 29 30 31 32 33 33 33 33 33 32 31 29 29 27 25 22 19 19 19 17 40 42 30 40 29 17 24 28 21 29 36 37 44 41 44 51 44 40 38 38 36 37 36 37 35 33 37 30 33 38 43
28 30 31 31 31 30 30 29 29 28 28 29 29 28 27 26 24 22 19 16 20 33 39 36 27 33 37 37 30 28 28 27 20 24 27 31 35 43 42 37 34 33 31 33 33 32 34 37 39 40 41 42 42 43
31 29 30 33 35 36 36 35 33 32 30 28 27 26 23 23 21 20 15 19 31 38 39 29 28 39 42 30 31 29 26 29 22 22 23 24 23 28 30 28 25 26 28 30 33 35 37 38 40 40 42 44 46 49
30 31 31 31 31 30 29 28 27 25 24 23 21 25 22 22 20 20 19 23 23 38 32 31 35 33 31 27 32 36 24 21 14 17 24 26 27 25 25 25 27 28 29 31 33 38 42 43 43 42 43 44 46 48
26 25 25 25 24 22 22 20 19 18 16 13 11 14 16 18 21 20 17 20 42 35 24 33 28 31 32 31 29 36 31 30 27 23 20 23 19 20 23 26 31 34 36 38 39 39 40 43 44 45 46 45 43 44
27 26 30 34 36 36 35 35 34 33 31 29 26 22 21 17 16 21 24 34 29 15 21 27 29 33 32 32 33 35 34 32 31 32 28 28 27 26 22 23 25 26 28 30 34 32 33 33 35 37 39 42 43 46
42 42 44 40 37 31 27 25 24 21 19 17 11 8 15 20 26 29 37 27 17 14 19 28 30 23 18 21 26 30 32 33 31 31 34 34 31 28 31 34 32 31 32 35 35 38 42 44 43 43 40 39 40 44
36 32 29 30 28 23 19 15 18 21 23 24 25 28 30 31 30 27 26 26 25 25 30 29 21 12 8 10 14 20 20 22 22 23 27 28 30 30 29 31 33 36 36 37 40 41 37 36 35 36 38 41 40 41
28 29 30 29 28 28 27 31 31 31 30 30 28 29 29 29 29 30 28 21 17 11 8 11 17 19 12 13 13 14 13 14 16 16 16 18 20 21 25 30 31 31 32 32 33 35 37 39 40 43 46 48 49 51
24 24 24 25 25 23 22 22 23 24 24 24 24 24 23 22 20 18 16 15 15 14 14 11 9 7 7 8 10 12 13 13 14 16 18 20 22 24 25 27 29 32 34 36 38 39 41 43 45 47 50 52 53 54
9 13 16 17 18 17 19 17 16 17 19 19 19 18 15 15 14 13 12 11 10 7 6 8 9 9 9 10 11 12 14 16 18 19 20 22 24 27 31 35 37 39 41 42 43 45 47 49 50 52 53 54 56 58
9 10 11 12 11 17 14 12 10 12 10 12 12 12 10 8 8 7 5 3 2 1 3 4 6 9 12 14 16 19 22 24 26 27 29 31 32 34 36 38 40 42 43 44 46 48 50 52 54 56 58 60 62 65
4 6 6 9 11 12 6 7 10 10 9 9 9 8 6 5 3 2 2 2 2 4 6 9 11 13 15 17 19 21 23 26 27 30 32 34 36 38 40 42 43 45 47 49 51 53 55 57 58 60 62 63 65 66
10 9 10 12 11 12 10 10 11 10 8 7 6 6 6 8 9 10 10 12 14 17 19 20 22 23 24 25 26 27 29 30 32 35 36 38 40 43 45 48 50 52 54 55 56 57 58 60 61 62 63 64 64 64
15 12 10 12 11 10 9 10 8 6 5 6 7 8 10 12 14 16 19 21 23 26 29 32 36 38 39 39 38 37 38 39 41 44 46 48 49 51 51 51 51 51 51 51 52 53 54 54 55 56 56 57 58 59
10 12 13 11 8 8 4 4 3 4 5 7 9 11 13 16 18 21 23 26 27 30 36 39 40 42 44 47 49 50 51 52 52 50 49 48 46 46 46 45 45 45 46 46 47 48 50 51 52 53 53 53 52 51
18 14 11 7 3 1 2 3 5 7 9 12 14 17 20 23 25 26 29 30 32 36 40 43 44 46 49 51 53 54 52 49 46 43 41 40 40 40 41 42 43 44 45 46 46 46 45 44 44 43 43 43 41 40
13 10 7 4 2 4 6 9 11 13 15 17 19 21 23 24 26 27 30 33 36 39 43 46 50 53 53 49 45 43 41 40 39 39 39 39 39 39 39 39 39 38 37 36 35 35 35 34 33 32 34 36 37 38
9 6 6 7 8 11 14 16 18 18 19 21 22 24 25 27 29 31 34 38 42 46 51 53 49 45 43 42 41 40 38 37 36 34 33 32 31 30 29 27 26 27 28 27 24 23 26 27 28 30 35 39 41 43
10 10 12 13 16 19 19 19 20 22 23 24 25 25 27 31 34 38 42 46 50 50 46 45 44 41 37 34 31 29 27 25 24 23 23 22 23 24 24 21 16 15 18 20 19 21 25 29 32 36 39 41 42 40
16 16 18 20 21 21 21 22 24 25 25 25 27 30 33 36 40 43 46 46 44 44 44 40 34 28 25 23 21 20 20 20 20 21 22 19 13 9 11 13 13 13 15 18 22 25 28 32 36 39 41 34 32 34
21 23 24 24 23 23 25 27 25 24 26 29 32 34 37 40 43 43 43 43 43 39 33 26 22 20 20 19 20 21 21 21 18 11 7 8 10 10 9 11 13 16 19 22 25 28 31 35 37 41 33 30 31 31
25 23 22 22 24 26 24 22 26 28 30 32 35 38 41 42 41 41 42 39 33 27 24 23 22 22 22 20 20 19 12 6 5 7 8 7 7 9 12 14 17 19 22 25 27 30 33 36 38 41 34 29 30 30
21 21 23 23 21 23 25 27 28 31 33 36 38 40 40 39 38 40 36 30 26 25 24 23 21 20 19 16 8 4 4 6 6 5 6 7 9 11 14 17 20 23 25 28 29 31 33 37 39 41 38 31 30 31

GFSWCAN_500_spd_048.txt.gz
Wind_Speed
30 32 38 43 38 35 34 35 36 39 45 48 50 47 51 55 54 56 68 65 59 55 47 46 48 50 54 47 49 41 40 49 48 54 53 69 59 35 51 50 50 48 50 44 48 49 47 38 37 39 30 20 28 29
27 36 31 25 26 27 24 23 22 28 31 38 42 41 50 50 52 56 61 59 55 47 49 48 44 43 36 41 43 43 40 38 68 44 43 58 68 64 45 51 43 45 51 49 48 48 45 39 37 30 24 25 28 34
32 23 18 20 21 12 12 16 19 25 32 33 37 43 49 48 51 60 58 52 52 50 41 47 36 34 36 35 37 39 43 34 43 61 52 54 66 63 54 53 46 44 47 39 41 48 48 45 38 37 37 36 28 30
19 9 11 11 8 3 4 1 13 26 35 36 42 48 48 46 44 59 57 60 54 46 41 38 37 38 34 33 34 37 39 41 50 57 48 45 45 53 55 48 41 41 49 49 32 32 26 42 42 45 40 44 39 35
22 7 8 14 16 15 16 19 25 34 41 42 49 51 51 43 46 47 44 45 46 44 40 27 28 29 33 35 37 32 25 36 50 57 61 52 46 51 54 51 42 38 42 49 55 50 43 42 39 29 39 45 40 40
30 26 19 17 17 18 22 27 34 40 45 51 48 47 45 44 45 49 43 44 39 39 34 36 25 26 27 31 36 34 26 36 45 47 42 45 51 53 52 52 45 38 37 37 44 47 53 48 46 51 47 43 44 45
34 34 36 37 38 37 34 35 39 44 46 46 46 43 43 50 44 38 34 32 34 33 31 30 21 22 26 31 32 33 25 39 35 45 43 42 47 53 51 49 40 41 37 32 35 40 48 46 45 48 47 50 49 49
22 25 27 35 38 43 45 47 44 46 41 42 42 46 47 42 36 34 33 35 32 35 29 23 18 12 20 21 26 32 33 47 35 43 32 44 45 45 49 47 40 40 38 38 38 33 29 34 38 42 45 44 45 48
19 22 24 27 33 36 40 43 46 47 47 45 43 40 38 35 32 30 32 34 32 30 27 22 17 17 23 26 27 35 30 45 48 42 37 33 31 42 51 44 42 42 40 39 35 33 33 33 31 32 33 40 43 45
17 19 23 24 27 30 35 39 40 40 40 39 39 39 37 34 34 34 31 29 27 26 26 27 21 24 27 36 33 32 32 32 33 36 38 37 34 34 42 42 41 37 37 36 34 35 33 34 34 36 37 36 37 37
22 23 23 24 24 25 27 32 35 37 38 38 37 35 33 31 27 26 26 22 21 21 20 23 25 28 39 39 34 28 31 27 27 28 26 26 31 35 37 37 38 35 37 38 37 35 35 34 33 33 36 39 40 41
20 22 24 25 26 27 28 28 28 28 28 27 27 26 25 22 21 20 18 19 18 18 17 29 34 31 40 41 36 38 36 25 19 25 24 23 24 30 29 28 30 30 31 31 31 31 31 31 33 35 38 40 43 44
21 22 23 24 25 25 25 25 25 24 22 20 21 25 24 22 18 14 9 6 19 21 28 40 29 19 31 20 24 29 25 34 21 25 32 29 17 18 18 20 24 26 29 30 30 30 31 33 39 40 43 44 47 47
24 25 26 25 24 24 24 23 22 23 23 21 23 20 19 17 17 19 22 14 14 23 23 23 10 16 13 13 26 37 30 18 39 30 28 29 24 21 22 24 25 29 31 35 38 41 42 43 45 45 46 47 47 46
19 18 16 16 14 13 13 14 13 13 12 12 17 18 18 17 17 20 22 23 27 15 19 22 24 25 19 15 24 30 27 19 30 30 19 20 15 20 21 21 23 27 28 28 31 34 39 42 44 46 45 44 43 42
33 34 33 30 29 27 24 23 22 21 22 18 16 18 15 15 20 20 26 34 26 29 27 33 36 35 29 27 29 30 34 32 28 26 22 25 26 25 26 25 25 27 28 27 29 32 33 34 36 39 42 45 48 51
32 29 27 21 19 15 15 15 14 10 10 11 13 19 21 21 29 30 28 28 28 33 29 34 34 33 19 22 21 23 25 27 24 22 23 24 27 30 30 30 31 31 33 34 33 36 39 41 42 43 43 43 43 44
27 25 25 26 21 22 25 27 28 29 31 29 27 23 26 25 22 18 14 15 13 15 19 23 20 12 9 9 14 14 24 23 25 26 27 29 31 32 31 31 31 33 36 38 38 39 41 40 40 41 43 45 46 47
21 23 25 24 24 27 29 31 31 29 26 26 26 25 21 16 16 19 17 15 12 6 6 7 7 4 2 2 2 3 4 5 7 9 12 14 16 18 20 22 24 27 29 31 33 35 36 37 39 42 43 45 47 48
19 20 21 20 21 25 25 26 24 26 27 26 23 20 19 16 15 14 13 10 8 7 6 4 2 0 1 3 4 6 8 11 13 16 18 20 22 24 26 29 31 33 36 38 40 42 44 46 48 49 50 52 54 56
14 14 16 18 18 19 15 18 20 20 21 21 20 18 15 16 14 12 9 8 8 5 3 2 4 5 7 9 11 13 15 18 20 23 25 28 30 32 33 35 37 40 42 44 45 48 50 52 53 55 57 59 60 62
7 7 8 10 10 13 11 13 15 15 15 16 16 13 12 12 10 9 9 10 6 6 6 7 7 9 12 16 21 26 28 31 34 36 39 42 42 43 44 45 46 47 48 50 51 53 54 56 57 59 60 62 63 64
4 6 6 7 7 8 12 13 14 12 9 10 10 9 8 9 9 8 7 6 8 10 12 15 17 21 25 30 34 36 37 38 39 40 44 46 46 46 46 48 49 50 51 53 54 55 57 58 59 60 60 60 61 61
5 6 10 11 12 11 11 14 12 9 7 7 8 8 8 9 10 12 14 17 19 20 22 24 27 30 35 38 41 45 45 46 48 54 55 52 50 49 49 49 50 51 52 52 52 52 52 53 53 54 54 54 55 55
11 12 13 14 14 13 10 7 5 5 5 7 8 9 10 12 14 16 18 20 22 25 28 31 35 38 41 45 47 49 54 58 58 54 50 47 45 44 44 44 44 43 44 44 45 46 47 49 49 49 48 46 44 43
12 12 14 12 9 5 4 2 2 4 7 9 11 13 15 17 19 22 24 27 30 33 36 38 40 42 45 48 53 57 56 53 50 47 45 43 42 42 41 41 41 42 42 41 40 39 37 35 34 32 32 31 32 34
16 13 10 8 5 2 1 3 7 10 13 15 17 19 21 22 25 27 30 33 35 36 38 40 43 48 52 54 53 51 49 47 46 44 42 41 39 37 36 35 33 32 30 28 27 26 25 23 23 24 28 31 35 39
13 11 8 6 3 4 7 10 14 16 18 20 21 23 24 28 30 32 33 35 36 39 43 49 52 51 50 49 48 46 41 37 34 31 29 28 26 25 24 23 22 22 20 16 15 17 17 20 25 28 31 36 38 42
11 9 7 6 9 11 14 17 19 20 22 23 25 27 30 30 31 33 35 38 42 47 52 51 48 48 47 43 35 30 27 25 23 22 21 21 21 22 20 15 10 12 12 11 15 18 22 24 27 30 34 37 39 40
13 12 12 13 15 17 20 22 23 25 26 28 29 29 29 31 34 37 41 45 50 51 48 47 47 42 34 27 25 23 22 22 23 22 22 19 12 8 9 10 9 10 13 16 19 21 24 27 29 32 36 38 39 39
16 16 17 19 22 24 24 26 26 28 28 27 28 30 33 36 39 43 48 50 49 47 46 44 36 30 27 27 26 26 25 23 21 14 7 7 9 7 7 8 11 13 16 19 22 24 27 29 31 33 36 38 40 39
19 21 22 24 24 24 25 27 28 26 28 30 32 34 37 41 45 49 49 48 46 45 39 33 30 29 28 27 24 22 20 11 6 6 7 5 5 6 8 10 13 16 19 22 25 27 29 31 33 34 37 39 41 40
22 23 23 23 24 26 26 26 28 30 31 33 36 38 42 46 47 46 45 44 40 35 32 32 30 27 24 22 17 9 5 6 6 5 4 5 7 9 11 14 17 20 23 26 28 29 31 33 34 35 37 40 42 39

GFSWCAN_500_spd_051.txt.gz
Wind_Speed
32 32 33 34 36 41 45 48 51 54 57 57 56 55 53 50 46 48 54 54 75 49 58 60 57 51 50 53 53 50 49 48 45 43 42 43 52 60 64 40 35 39 62 50 46 45 44 45 40 41 48 34 32 26
29 35 40 41 36 34 36 40 38 38 40 41 45 51 56 54 48 45 48 53 68 41 50 50 55 48 41 42 37 42 48 41 42 43 38 38 43 51 61 53 31 24 36 43 54 56 49 39 42 45 35 42 35 37
31 27 19 20 23 24 24 19 24 31 29 32 40 39 46 57 56 51 46 48 55 50 36 48 46 40 39 39 37 39 41 41 37 32 35 35 43 52 48 65 57 42 27 33 44 50 50 44 43 40 38 39 41 44
27 14 13 15 15 14 18 19 17 22 23 24 29 38 39 46 51 52 50 50 48 53 41 42 38 42 32 37 34 35 39 41 39 36 32 43 35 51 46 47 54 55 49 36 36 37 48 37 42 47 47 40 43 51
25 16 13 11 11 16 12 5 15 21 20 23 34 37 40 40 40 38 42 43 50 47 40 45 28 35 35 35 40 37 37 39 38 38 32 40 40 32 40 39 44 43 50 44 37 42 45 45 39 42 45 44 40 53
27 30 24 13 9 17 18 23 27 26 25 30 34 39 39 34 39 39 45 43 38 42 41 37 33 38 45 40 31 33 34 34 35 32 36 37 45 51 33 30 37 38 44 42 42 43 43 44 42 47 37 41 38 44
27 32 30 25 24 24 31 30 31 35 36 38 39 39 38 37 36 45 46 42 44 40 38 31 30 26 29 32 26 31 33 31 27 35 39 42 32 33 57 36 31 36 37 42 48 48 43 47 43 42 42 41 47 41
23 32 33 33 36 39 39 39 40 40 40 40 36 34 40 37 48 43 44 39 46 31 27 29 30 25 27 29 32 31 31 35 34 29 40 37 37 42 42 42 36 32 33 41 43 44 42 36 30 32 37 39 43 49
21 26 34 34 33 34 35 36 36 36 35 34 35 38 44 45 40 36 37 33 31 31 29 30 29 21 22 28 28 30 30 31 31 34 36 33 38 40 39 41 40 37 38 34 33 37 36 31 30 27 25 27 33 37
19 22 27 34 38 41 41 39 39 39 41 44 43 41 40 37 34 34 33 33 36 35 30 29 26 23 19 24 20 22 24 27 33 40 32 30 29 46 39 37 33 31 30 34 36 37 34 33 33 33 33 32 31 34
17 19 21 26 31 34 34 35 37 38 38 37 36 35 33 32 32 32 33 30 31 30 26 24 23 18 20 23 24 29 22 19 35 38 29 31 31 31 34 31 28 27 31 32 31 30 31 32 34 34 35 36 37 40
16 15 15 20 24 26 28 30 30 31 31 29 26 27 26 24 25 26 27 25 24 22 21 23 23 26 20 23 31 32 30 23 23 31 32 36 29 23 28 28 25 24 24 28 33 33 32 32 34 36 35 36 40 43
16 17 18 20 20 21 22 23 24 24 26 27 28 24 22 20 19 19 17 19 16 17 16 15 15 17 22 29 34 32 30 23 27 18 31 29 32 34 32 28 26 25 27 29 30 32 33 34 35 36 37 38 42 47
16 16 15 14 15 17 18 19 20 20 20 20 18 16 12 12 15 20 15 14 17 18 17 17 16 17 29 29 28 26 24 29 35 24 24 30 35 29 25 25 22 23 30 34 36 38 40 43 46 48 50 50 54 55
16 15 14 13 12 12 12 11 10 10 14 17 14 14 13 13 17 24 18 15 20 25 26 19 12 20 23 25 19 24 26 22 18 28 21 19 25 26 24 24 24 25 26 29 33 36 38 40 44 47 50 52 53 55
9 9 10 11 12 12 13 14 17 13 11 13 11 12 14 12 14 20 23 21 21 19 20 21 18 9 12 9 13 13 15 17 15 17 11 19 20 16 25 29 25 27 24 27 30 33 35 38 39 40 42 44 47 48
23 22 21 20 16 19 21 16 14 17 20 19 19 17 15 12 14 18 19 13 20 22 18 18 17 12 15 10 7 7 7 14 19 20 18 10 16 17 20 20 23 25 27 29 32 34 36 40 42 43 45 47 50 51
27 25 22 19 17 17 21 25 27 26 24 24 24 25 26 26 22 18 15 12 10 8 7 6 9 12 10 6 11 16 16 16 17 18 21 24 26 27 27 28 27 28 30 32 34 35 37 38 40 41 42 44 45 46
23 23 21 21 25 28 29 30 32 31 29 30 30 26 24 21 22 20 15 13 10 10 5 10 17 18 19 16 4 5 2 8 7 8 9 10 10 12 13 15 18 20 22 24 26 28 31 33 34 36 38 39 41 43
25 27 29 29 27 25 23 24 24 24 26 23 22 22 20 20 18 14 11 9 8 9 8 9 9 8 7 6 5 7 9 10 12 14 15 17 19 21 24 25 28 31 33 35 37 39 41 42 43 45 46 47 48 49
24 25 25 26 25 21 24 25 25 24 24 22 22 21 17 19 20 19 18 16 14 13 11 8 8 6 7 6 8 11 15 18 20 23 27 29 30 31 33 36 40 42 44 44 44 44 46 48 50 51 52 52 54 55
18 18 20 22 23 22 25 24 22 23 23 23 22 19 19 17 14 14 13 16 9 8 7 8 9 10 12 15 17 21 23 26 29 32 34 36 38 41 43 44 46 46 47 47 48 49 50 51 53 53 54 56 58 58
12 12 10 11 16 16 21 20 20 17 15 16 15 13 13 13 12 11 12 7 6 7 9 11 14 17 20 23 26 29 32 35 37 40 43 45 45 46 45 45 46 46 48 50 51 52 53 54 54 55 55 55 54 54
7 7 6 10 11 13 14 16 13 10 9 10 11 10 11 10 9 9 9 10 12 14 17 20 22 25 28 30 32 34 37 40 44 47 49 50 51 50 50 49 49 48 47 47 47 46 46 46 47 47 47 47 46 45
8 11 11 13 13 13 11 9 8 6 7 8 8 8 9 10 10 12 14 16 19 21 24 27 29 31 33 36 39 42 46 50 52 53 52 50 48 47 46 45 43 43 42 42 43 43 42 41 40 38 35 32 30 30
10 13 14 15 13 10 7 6 4 5 6 7 8 10 12 14 16 18 21 23 26 28 30 33 35 37 40 43 48 53 55 54 53 52 51 48 45 41 37 35 35 34 33 32 31 30 28 25 24 23 22 22 25 28
18 17 16 12 10 7 4 1 3 6 8 11 13 15 17 19 21 24 26 28 30 32 35 37 40 42 48 54 55 53 51 50 48 42 37 32 29 27 25 24 22 21 20 20 19 17 15 13 15 17 21 24 27 31
16 12 10 8 6 3 2 5 8 10 13 15 17 20 22 24 26 28 29 32 34 36 39 42 47 52 56 54 50 49 47 39 32 28 26 23 21 21 20 21 20 17 12 9 10 9 12 16 18 21 24 27 30 33
10 10 9 8 7 6 8 11 13 15 18 21 23 25 26 28 28 30 33 36 38 41 45 51 55 56 51 49 48 41 33 28 26 24 25 26 25 24 19 10 7 8 6 8 11 14 17 20 22 25 27 30 32 35
12 11 11 11 11 12 14 16 19 22 24 25 26 28 28 29 31 34 37 40 44 48 53 57 54 51 49 44 37 32 30 28 28 27 25 24 17 9 8 7 5 7 9 12 14 18 21 23 26 27 29 32 34 36
13 14 15 14 15 17 19 21 24 25 25 27 28 28 31 33 36 39 42 46 51 56 56 52 51 46 41 37 34 32 29 27 24 21 15 8 8 7 5 6 8 10 12 15 18 21 24 27 28 29 31 33 35 37
17 17 17 18 19 20 23 24 24 26 27 28 30 32 35 37 40 43 48 53 56 53 51 49 44 43 40 35 29 25 22 20 13 7 7 7 6 6 7 8 10 13 17 20 23 25 27 29 30 32 33 34 36 37
19 19 20 21 23 24 24 25 26 27 29 31 33 35 37 40 44 48 53 52 50 48 45 42 40 34 26 20 15 10 6 4 5 6 6 6 7 8 9 12 15 18 21 24 27 28 29 31 33 34 35 36 38 39

GFSWCAN_500_spd_054.txt.gz
Wind_Speed
26 27 29 32 33 36 39 39 40 44 48 55 59 62 62 61 60 60 60 58 56 55 54 56 56 54 49 48 46 43 45 46 47 43 41 41 42 40 40 37 45 57 58 50 40 43 47 41 42 43 45 47 43 48
30 35 35 35 39 37 38 44 44 44 44 44 45 47 51 52 51 51 51 51 51 49 59 53 56 55 51 44 41 43 45 44 44 44 41 40 43 43 39 40 41 59 56 52 36 26 46 48 41 37 34 39 40 39
28 30 29 28 22 23 24 28 32 35 33 39 47 52 54 49 46 48 48 45 42 47 65 64 60 57 43 44 44 42 41 44 46 46 46 44 44 43 41 38 39 45 57 55 33 14 25 28 41 38 34 33 37 39
33 30 25 20 19 18 18 23 26 33 31 31 39 36 41 48 49 45 42 40 37 37 46 57 29 37 57 47 40 38 35 37 39 37 41 47 46 42 39 38 38 39 45 61 55 24 17 18 30 44 38 37 34 34
32 26 18 10 12 17 18 18 20 24 24 26 31 32 36 43 42 42 39 37 35 44 43 40 23 32 39 45 43 39 38 36 36 36 38 41 37 37 39 36 26 27 33 46 64 47 39 33 30 31 39 48 49 48
27 26 17 12 18 15 14 13 17 19 21 24 26 29 35 39 46 44 46 39 36 46 48 23 24 34 32 36 35 35 38 36 36 34 34 36 35 34 39 34 40 28 33 33 42 49 41 40 32 29 33 40 45 48
22 29 28 22 21 23 24 21 22 22 27 30 31 36 34 40 40 41 40 36 32 25 31 29 25 25 27 39 30 31 35 35 35 36 33 33 34 32 30 36 36 41 48 34 38 42 39 39 38 35 33 33 46 46
21 24 28 32 34 34 35 36 40 39 38 38 41 42 42 39 39 38 36 37 37 33 35 31 30 30 26 37 37 33 29 37 34 36 36 38 33 32 28 30 34 33 34 31 31 36 33 33 32 32 32 33 36 37
23 23 25 31 32 34 36 36 37 40 42 43 43 40 37 34 40 46 36 38 39 37 29 28 27 29 26 25 22 29 28 34 39 37 37 38 34 30 32 23 21 33 39 41 32 32 30 30 29 27 26 32 33 31
22 27 28 26 29 31 31 33 44 45 44 42 47 44 31 34 34 36 31 40 39 31 31 25 22 24 25 26 25 27 27 28 30 37 38 34 30 40 40 37 33 24 33 38 33 33 34 31 27 27 29 33 34 32
17 20 27 30 30 34 41 43 45 46 47 45 41 40 40 38 35 33 31 34 31 25 24 21 23 26 21 19 23 25 18 22 28 34 40 41 37 38 37 38 37 41 35 32 34 39 40 34 31 31 31 31 34 37
14 15 18 23 28 32 34 36 37 39 40 38 38 40 40 39 36 34 31 30 30 28 25 23 24 24 24 19 22 26 18 9 17 20 27 37 34 30 25 37 31 41 33 35 36 37 37 34 32 30 32 35 37 40
15 14 15 16 19 22 24 25 26 25 26 27 26 27 27 27 27 25 24 23 24 23 23 21 21 21 19 17 24 32 28 14 13 11 17 23 25 22 16 14 14 29 31 36 34 39 41 42 39 39 41 45 43 45
15 15 15 15 16 16 17 18 19 19 20 19 18 17 20 22 20 19 20 20 19 18 18 18 20 22 21 22 23 28 31 24 19 21 17 18 21 22 23 27 29 29 32 36 38 42 45 45 44 44 48 51 52 51
18 17 17 15 14 15 15 15 14 15 15 13 12 10 13 15 16 15 15 18 19 16 15 16 12 11 9 13 17 25 23 24 16 19 19 19 19 21 24 23 23 24 27 30 32 30 32 34 37 42 44 45 45 45
9 8 10 15 17 18 18 16 17 16 14 13 15 19 19 21 23 25 25 28 26 21 18 15 11 10 10 11 8 11 15 15 17 24 18 6 14 22 20 23 25 25 25 28 29 30 32 34 37 38 40 41 44 45
21 23 22 21 21 25 19 18 19 20 17 14 16 17 20 22 26 23 20 18 17 16 17 18 14 14 13 7 5 1 4 3 7 1 9 10 8 7 9 11 13 17 20 24 27 28 28 28 30 33 35 38 42 44
18 15 14 18 14 11 16 18 21 22 18 18 18 19 25 23 21 21 20 20 16 13 11 13 12 10 7 8 8 8 7 8 10 10 11 11 11 12 12 14 16 18 21 23 22 23 24 25 28 30 32 35 38 40
24 23 25 28 30 30 29 29 28 26 25 24 26 27 25 20 15 13 11 9 9 10 9 6 4 4 8 10 12 13 2 3 4 4 2 2 3 5 8 10 13 15 17 19 22 24 25 27 29 31 34 37 40 42
26 27 29 31 33 34 33 33 32 30 29 27 26 24 22 20 17 17 15 14 10 9 10 10 7 8 9 7 6 5 4 3 4 6 9 11 15 17 21 23 26 29 31 32 34 35 37 38 40 41 42 44 45 48
26 26 28 26 22 21 22 25 22 22 21 20 18 17 14 12 10 10 13 14 15 15 12 9 8 9 6 3 7 9 11 13 15 17 19 21 23 25 28 30 33 35 38 39 41 42 43 44 46 47 49 50 51 52
25 26 26 30 25 22 24 22 22 22 20 19 19 18 15 15 15 18 18 17 10 10 7 5 5 7 9 11 13 14 16 18 20 22 25 28 31 34 36 39 41 43 44 45 46 48 50 51 51 52 54 54 54 53
21 21 24 27 24 25 26 25 23 20 22 22 21 19 19 17 13 13 13 8 5 5 6 7 9 12 14 17 19 21 23 25 28 31 34 38 40 42 44 45 47 49 50 50 50 51 51 51 49 48 47 46 45 45
17 17 21 21 17 19 20 19 16 13 14 15 15 12 11 11 8 7 4 3 5 8 11 14 17 19 21 23 25 27 30 34 39 44 47 50 51 50 50 49 48 48 47 46 45 45 45 44 43 42 41 39 36 33
17 17 18 18 15 15 13 13 12 9 9 9 8 7 6 4 3 4 6 10 12 16 18 20 23 25 27 30 33 36 41 47 52 55 53 51 50 49 46 42 39 37 35 34 34 33 32 32 30 28 26 23 21 20
15 15 18 17 14 11 9 8 7 6 5 5 5 5 5 7 9 12 15 17 20 22 24 27 29 32 35 39 43 46 53 56 53 49 46 42 38 34 30 27 25 24 23 22 20 19 19 18 17 15 14 15 18 21
19 19 18 15 11 8 6 4 3 2 3 5 6 9 12 15 17 19 21 22 24 27 30 32 36 39 43 47 54 58 54 50 46 42 36 29 25 22 21 21 21 21 21 20 17 13 10 9 11 15 17 20 22 24
21 19 15 11 9 6 4 2 3 5 8 11 14 17 19 20 21 22 24 27 30 32 35 39 43 47 52 58 57 52 46 40 35 31 26 24 23 24 23 23 22 15 8 7 7 7 11 13 15 18 21 23 25 27
18 13 10 9 8 7 6 7 9 11 14 17 20 21 22 23 24 26 29 31 34 37 41 46 51 57 58 54 49 43 38 33 30 28 25 24 23 22 20 12 7 8 5 6 8 11 13 15 18 21 24 26 27 29
15 11 11 11 11 10 11 12 14 16 20 22 23 24 25 26 28 30 33 35 39 42 47 54 59 55 51 46 43 40 35 30 26 24 21 19 16 10 6 7 6 6 8 9 11 14 17 21 23 26 28 30 32 34
12 12 12 13 14 15 15 17 19 22 24 24 25 26 28 30 32 34 36 39 43 48 54 58 53 49 46 43 38 32 26 22 19 16 14 10 6 7 7 6 7 8 10 13 16 19 22 25 27 29 30 33 35 37
15 14 15 16 17 18 19 21 24 25 25 27 28 29 31 34 36 37 40 43 47 51 54 53 46 42 37 29 23 20 16 13 10 7 4 6 6 6 7 8 10 12 14 17 21 24 27 30 32 32 34 36 39 40
18 18 18 20 20 21 23 25 26 26 28 29 30 32 34 35 37 40 43 46 48 50 51 45 39 34 25 19 17 16 15 14 12 10 8 7 8 8 10 11 13 16 19 23 26 29 32 33 33 34 37 40 42 43

GFSWCAN_500_spd_057.txt.gz
Wind_Speed
16 20 24 29 33 36 39 43 46 52 58 59 58 57 55 54 53 55 55 55 54 55 55 50 46 44 43 40 39 35 37 37 40 38 38 38 35 32 30 29 28 29 34 36 54 63 61 52 43 42 34 38 43 43
19 23 31 37 39 39 40 45 46 46 46 50 57 62 61 58 54 54 55 55 57 60 59 56 53 50 46 45 42 43 41 37 42 41 38 38 37 36 33 33 33 33 32 37 41 47 62 64 43 39 32 26 35 41
27 33 35 38 36 37 38 39 45 45 48 48 45 47 53 57 56 57 54 56 57 57 58 58 54 50 48 44 44 46 42 39 41 44 42 40 39 39 38 36 36 37 39 40 45 38 50 54 60 38 33 25 29 35
28 30 28 22 20 18 22 28 30 32 33 39 50 43 41 42 47 56 60 60 59 59 59 55 52 51 49 47 44 42 41 40 42 43 42 42 40 42 42 41 41 41 42 40 41 42 40 46 47 38 11 37 37 35
20 25 22 15 18 16 19 27 30 30 28 33 37 42 43 40 41 38 38 46 51 51 51 50 45 49 48 45 44 39 39 41 37 38 42 39 41 42 44 45 45 45 43 42 40 41 31 37 48 24 17 17 23 40
19 21 17 16 15 9 9 11 28 31 28 31 33 33 34 38 39 39 35 36 36 38 37 35 40 43 50 41 34 36 39 42 40 36 35 34 34 32 36 43 44 42 42 41 34 33 31 31 53 46 39 30 22 28
16 17 21 20 20 12 10 13 19 23 24 28 27 32 37 41 41 37 30 26 34 33 30 34 41 46 52 48 38 36 45 43 37 35 33 33 31 34 37 37 36 39 41 37 31 21 26 30 39 43 40 34 31 27
15 17 20 22 24 23 21 25 28 28 29 29 32 35 36 34 38 34 36 32 33 32 25 17 26 30 36 41 42 39 39 44 40 38 36 37 36 36 39 37 35 32 36 43 47 32 30 31 37 40 40 39 35 34
16 20 21 24 26 30 34 35 30 32 33 33 35 38 35 36 43 37 37 34 35 35 18 19 31 25 21 25 28 30 34 37 31 34 37 38 42 41 32 33 37 31 33 41 49 39 40 35 35 41 41 35 34 30
22 22 25 28 30 35 42 46 45 42 37 36 35 40 40 44 41 38 36 28 34 18 27 33 31 30 27 24 26 29 28 28 28 27 33 35 33 38 36 32 32 32 27 30 35 38 37 35 33 36 34 35 37 33
27 27 31 32 31 33 34 35 37 43 44 35 39 42 45 43 38 36 33 24 33 24 27 31 32 31 25 20 21 23 24 24 23 24 30 35 34 33 33 35 35 37 35 24 28 37 44 44 37 39 38 38 39 36
21 24 29 36 35 34 38 38 37 35 35 46 40 38 37 37 26 32 33 31 31 29 24 26 27 28 27 24 21 22 21 15 18 20 24 27 25 30 34 35 29 39 39 37 35 33 31 34 37 40 42 41 43 40
18 19 22 26 29 30 32 34 36 38 39 37 38 40 36 35 33 36 32 32 32 31 25 21 22 23 20 18 16 15 23 21 17 12 8 13 18 24 29 30 28 29 32 34 34 35 37 37 38 42 44 41 46 45
12 15 17 19 20 22 24 24 25 27 26 25 29 28 25 26 27 25 22 17 17 16 16 16 18 20 19 16 17 20 26 23 16 10 15 11 13 17 20 23 21 25 28 32 28 32 38 37 41 42 46 45 45 49
15 14 13 14 14 14 15 18 22 23 22 21 20 20 20 21 20 19 18 17 17 15 13 14 15 16 18 20 19 18 22 33 20 10 14 14 13 18 20 24 25 29 29 30 30 33 36 38 38 41 41 43 49 48
15 15 15 16 16 15 14 13 14 11 12 14 15 18 18 18 18 19 21 19 17 13 12 12 12 12 11 10 11 13 15 23 29 24 20 21 24 22 25 25 25 26 31 31 31 30 30 31 33 34 37 37 38 41
17 20 16 18 18 17 15 18 20 16 17 20 23 22 20 18 19 19 20 20 20 18 16 13 12 8 6 8 8 4 3 3 7 12 10 12 10 7 4 14 22 25 26 26 23 27 24 28 28 28 29 31 32 34
21 22 23 20 16 16 19 21 20 19 20 22 24 26 27 28 28 26 25 23 22 20 18 13 9 8 5 3 1 3 3 7 8 10 11 11 11 12 12 13 16 19 21 21 19 18 17 19 21 23 26 29 31 32
14 16 15 12 17 21 25 20 20 22 24 28 29 28 27 27 26 23 20 17 16 14 14 13 8 6 4 5 7 10 9 7 8 8 6 4 3 3 4 6 9 12 14 17 19 22 24 26 28 30 32 35 37 39
26 29 32 33 33 32 29 26 25 28 28 25 23 21 20 19 17 14 12 11 11 11 9 9 8 5 8 8 6 6 5 3 1 2 5 6 9 11 13 16 18 21 24 27 29 32 34 36 39 40 42 44 45 47
34 34 33 33 33 32 31 30 28 27 26 25 24 22 19 17 15 14 14 15 16 17 14 13 12 10 7 4 2 3 5 7 9 11 13 15 18 20 23 26 29 31 33 36 38 41 43 45 46 48 49 50 51 52
25 26 27 25 22 22 24 22 19 18 17 17 17 17 21 21 20 19 20 16 11 11 9 4 1 2 5 7 9 11 12 14 16 19 22 24 27 31 35 38 41 43 45 46 47 48 49 50 50 51 51 50 50 49
25 26 29 27 22 24 25 23 21 18 18 20 19 17 17 17 15 15 13 9 5 3 3 5 7 10 12 14 16 17 19 22 25 28 31 34 39 44 47 47 46 45 45 46 47 47 47 48 48 48 47 46 44 42
25 29 29 25 23 24 23 22 19 18 19 18 17 14 13 11 7 7 6 2 4 7 9 12 14 15 18 20 22 25 28 33 37 39 44 49 52 51 48 46 45 44 42 41 39 37 35 34 33 32 31 29 28 26
21 24 23 19 17 19 19 18 16 14 12 12 10 7 5 3 1 2 5 8 11 14 15 16 19 22 24 27 32 36 40 43 48 53 52 48 44 41 40 38 35 31 28 26 25 24 23 21 20 19 18 17 15 15
18 20 20 17 15 13 12 12 10 9 7 6 4 1 2 4 7 10 12 14 15 17 19 22 24 27 32 36 41 46 52 54 51 46 41 38 35 32 28 25 23 21 21 21 21 22 20 18 15 12 10 12 15 18
20 20 18 15 12 10 8 6 5 3 2 1 3 6 9 12 15 17 18 19 20 22 25 28 32 35 39 46 53 56 53 47 42 38 34 31 29 26 24 22 21 22 22 22 19 13 9 8 9 11 13 16 18 21
21 20 16 12 9 7 5 3 2 3 5 7 11 14 17 19 20 20 21 23 24 27 31 34 38 43 49 55 59 52 46 43 40 36 31 28 26 24 23 21 21 19 15 9 9 7 7 9 11 14 17 19 22 24
21 17 13 11 9 7 6 6 7 9 11 14 17 20 21 22 22 23 25 27 29 32 35 39 44 49 52 58 52 46 42 38 34 29 24 21 20 18 17 16 11 8 9 7 7 9 10 12 15 19 22 24 27 29
20 16 13 11 10 10 11 11 12 14 17 19 22 24 24 24 25 27 29 31 33 36 39 43 47 51 54 53 44 37 31 28 26 22 19 15 14 11 8 6 7 7 7 8 9 11 14 17 20 23 27 30 31 32
19 15 14 11 12 13 15 16 17 19 21 24 26 26 27 28 28 30 32 34 37 39 42 45 49 53 50 41 36 27 22 21 20 18 14 10 7 6 7 7 7 8 9 11 13 15 18 22 25 28 32 33 34 35
20 16 15 15 15 17 19 20 21 23 25 27 28 29 29 30 31 33 35 38 40 41 44 48 50 48 42 36 32 24 22 22 21 19 16 13 10 9 8 8 10 11 13 15 17 21 24 27 30 34 35 34 37 40
20 18 17 18 20 22 23 24 24 26 29 30 30 30 31 32 33 36 38 40 41 42 44 46 45 41 37 34 30 25 22 22 21 20 17 14 12 12 12 13 14 15 17 20 23 25 28 32 34 34 34 38 39 41

GFSWCAN_500_spd_060.txt.gz
Wind_Speed
9 10 12 15 17 20 24 28 33 38 43 44 43 41 40 40 40 41 38 36 35 34 30 29 28 27 29 28 26 24 22 24 26 28 30 32 30 29 26 24 23 21 22 24 30 34 32 40 51 56 56 49 42 39
11 14 19 24 28 29 33 37 39 39 40 43 48 48 47 46 44 45 45 42 41 41 37 34 33 32 31 29 27 26 24 28 30 30 31 32 33 33 32 30 28 26 24 26 26 22 26 33 35 38 46 58 52 38
19 22 25 25 30 34 37 38 44 46 45 43 44 48 53 52 51 50 48 45 44 45 42 40 36 34 33 32 30 28 30 32 33 32 33 33 34 34 34 34 34 33 31 29 28 25 27 31 41 41 41 52 55 53
21 21 22 28 28 26 27 29 31 39 44 45 44 46 47 52 53 53 54 51 49 48 48 47 45 41 38 36 36 34 32 35 36 38 36 36 36 36 36 38 39 38 35 32 30 30 31 34 40 44 41 42 53 60
17 19 22 23 24 25 25 22 25 25 34 40 44 43 44 42 48 53 49 49 50 51 51 50 48 46 43 38 37 36 36 38 39 39 40 40 39 39 41 41 40 39 38 38 36 36 35 35 40 42 44 41 40 46
15 19 20 21 24 22 16 22 23 27 29 28 30 34 42 36 36 44 52 51 53 51 51 50 45 43 40 39 39 38 39 38 42 44 45 43 41 38 43 42 41 42 41 41 41 41 43 44 42 42 37 37 37 31
19 19 21 22 19 8 9 9 20 30 28 29 27 26 34 42 36 32 38 40 46 53 53 50 47 42 42 40 40 39 37 38 40 37 41 40 38 39 44 45 43 41 42 44 44 44 42 43 40 36 33 31 46 40
20 20 23 18 14 17 17 16 24 30 28 24 28 29 31 38 37 32 29 27 27 32 45 49 45 39 39 40 40 36 33 25 26 30 30 32 34 37 36 35 36 33 34 37 39 43 44 41 35 32 27 32 33 44
19 24 24 21 17 25 24 23 26 29 32 33 32 32 33 38 37 29 30 27 28 29 31 33 30 28 31 32 36 38 35 28 32 39 39 37 34 35 32 33 35 32 31 34 33 35 34 39 46 38 30 28 31 38
20 25 23 28 31 28 26 28 31 35 36 36 37 37 44 34 32 32 31 28 29 29 25 23 22 19 21 24 34 37 36 32 29 32 33 37 37 37 36 36 35 34 32 32 34 38 39 36 40 44 44 32 32 35
23 25 25 28 32 37 35 33 34 35 37 36 40 40 33 35 32 31 31 34 33 27 18 12 17 27 24 19 17 20 23 24 25 26 29 30 33 31 34 35 32 36 36 30 31 34 35 30 35 41 41 40 40 39
21 23 29 28 29 30 30 36 31 30 33 34 39 39 37 31 30 30 34 36 26 22 24 22 33 22 22 16 10 13 19 21 25 26 25 23 22 25 28 31 31 31 34 32 33 39 36 33 29 35 38 42 46 46
18 21 24 27 32 33 31 28 32 34 34 34 35 33 34 34 30 26 26 28 24 26 25 24 22 18 16 15 14 16 21 23 22 13 9 12 15 20 23 25 26 30 32 34 34 34 36 35 30 31 38 42 40 40
14 16 18 22 25 29 32 28 32 32 35 38 31 23 27 30 26 22 22 21 23 21 22 20 18 20 21 18 17 17 19 19 23 23 14 13 13 11 12 17 25 26 27 28 32 30 33 36 36 40 40 44 43 44
14 13 14 15 17 22 23 24 23 25 28 27 22 20 19 18 20 24 25 25 23 20 16 17 17 17 19 19 17 14 17 18 18 19 16 15 14 19 18 16 17 23 24 26 30 32 32 31 33 35 35 39 44 44
15 15 15 14 14 16 17 16 16 17 17 17 15 19 22 21 20 18 18 19 19 17 15 13 12 13 14 16 16 18 18 16 16 23 26 26 24 27 24 22 24 26 29 30 30 32 35 38 37 36 38 39 40 42
15 14 13 14 15 14 15 13 9 11 15 15 17 16 17 16 15 16 16 17 14 12 11 12 12 12 12 9 9 9 8 10 13 18 27 34 37 29 28 25 23 27 32 33 34 32 34 34 33 30 30 30 29 30
16 16 15 14 14 15 14 13 13 14 16 17 16 14 15 15 16 17 16 13 12 15 13 11 7 3 1 3 1 4 5 6 10 11 12 15 15 17 18 17 14 13 16 19 20 22 24 25 25 26 27 29 30 31
17 19 18 16 16 18 17 17 20 21 20 19 19 21 23 22 22 22 20 17 14 12 9 7 4 5 5 6 8 10 11 13 14 14 16 16 15 13 12 13 13 15 18 20 22 24 27 29 31 34 36 38 39 41
20 16 20 20 20 20 21 22 25 26 24 23 22 21 21 21 21 20 16 13 9 6 5 4 5 3 2 4 4 4 3 1 2 5 7 9 11 14 16 19 21 24 26 29 32 34 37 39 41 43 45 47 49 50
26 29 29 29 26 26 27 28 24 21 21 21 20 20 18 16 13 11 10 9 7 6 10 9 8 7 5 2 1 4 7 9 11 14 16 19 21 24 26 28 30 32 35 37 40 42 44 45 47 49 51 53 54 56
32 31 30 28 26 25 25 23 23 24 21 18 16 17 20 21 21 21 19 16 12 10 8 3 0 3 6 8 10 13 15 18 20 22 25 27 30 33 36 39 42 45 48 49 50 50 50 51 51 52 53 54 54 54
30 29 27 26 25 24 23 22 19 18 20 21 21 21 21 20 18 15 13 11 4 1 3 7 10 12 14 16 18 20 22 24 27 30 34 38 41 45 49 51 52 51 49 48 48 48 47 47 46 44 43 41 39 37
28 30 29 26 24 24 23 23 22 22 21 20 18 15 13 10 6 6 5 2 5 8 11 14 16 18 20 21 23 25 28 32 37 42 48 51 51 49 47 46 45 44 44 43 41 37 33 31 29 27 25 23 22 20
29 27 26 23 21 22 21 20 18 15 14 14 11 8 6 3 1 2 5 8 12 15 16 18 19 21 22 25 29 33 39 44 50 54 51 46 43 41 40 40 39 37 34 30 27 24 23 22 22 21 20 18 15 12
23 21 19 18 17 16 14 14 13 11 9 7 5 3 2 4 7 10 12 13 15 17 19 21 23 25 28 32 37 42 48 55 56 48 43 41 40 38 37 35 32 29 26 24 23 24 24 24 21 16 11 11 13 15
19 18 17 15 13 11 9 8 7 5 3 1 2 5 8 11 14 15 17 19 21 23 24 26 27 31 34 38 44 50 56 53 46 41 38 37 36 33 31 28 26 24 23 23 23 21 15 10 8 9 11 12 15 19
17 15 13 11 9 7 6 4 3 2 4 6 9 12 15 17 19 20 22 24 25 25 26 29 32 36 39 43 49 55 52 45 38 33 32 32 28 24 22 20 19 18 18 18 13 11 10 9 10 11 13 17 19 22
19 17 13 11 9 8 6 5 5 6 9 12 15 18 20 22 23 24 25 27 27 28 30 34 37 39 43 48 53 52 45 38 32 29 29 27 22 18 17 15 14 12 8 8 9 8 9 11 12 15 19 22 25 28
22 19 16 12 10 8 8 9 9 11 14 17 20 22 24 26 27 28 28 30 29 31 34 37 39 42 45 50 52 46 39 34 29 26 25 24 20 15 11 9 8 9 9 8 9 11 12 14 17 20 23 26 29 32
20 20 18 15 13 12 12 13 14 17 19 21 25 27 29 31 30 30 31 31 32 35 38 40 42 44 47 51 47 40 36 32 28 25 24 23 20 17 15 13 11 10 11 12 13 14 17 19 22 25 27 30 33 33
23 21 18 16 15 15 15 17 20 21 23 26 29 31 33 33 32 32 33 33 35 38 41 42 43 46 48 47 40 36 34 32 28 24 23 22 21 18 16 15 15 15 16 16 18 20 22 24 27 29 31 34 32 34
26 24 22 18 17 18 20 22 24 25 27 31 33 34 35 34 33 34 35 36 38 41 42 44 46 47 47 42 37 35 33 31 28 24 23 22 21 20 19 19 19 19 20 21 22 24 25 28 29 31 31 32 33 34

GFSWCAN_500_spd_063.txt.gz
Wind_Speed
9 7 7 8 9 9 10 12 16 24 28 29 30 31 31 32 32 29 22 19 15 17 19 23 27 25 23 23 24 22 21 20 21 23 22 23 23 23 24 22 23 23 22 25 31 38 44 45 50 50 49 52 52 51
10 12 15 16 18 19 20 21 22 22 22 26 34 34 34 34 35 34 27 23 23 21 20 22 23 22 22 21 22 22 21 21 20 23 24 24 25 25 25 25 23 22 22 20 17 17 23 23 24 28 26 27 35 45
17 21 23 24 27 27 26 27 29 31 30 29 30 34 39 38 38 38 33 29 29 26 22 21 21 22 25 22 22 21 18 21 24 23 24 25 26 27 29 28 26 24 23 22 19 19 22 22 22 24 25 25 27 31
21 26 26 24 24 26 26 26 29 32 35 37 38 36 37 42 41 45 40 35 33 31 28 24 24 24 25 23 20 21 20 22 23 22 23 23 25 26 28 30 30 29 28 27 26 26 25 25 26 27 28 26 28 33
23 19 21 23 25 27 28 28 29 29 32 33 38 43 39 39 43 42 43 42 40 38 35 30 29 28 29 26 23 24 23 23 23 25 25 25 26 28 29 30 29 30 30 32 33 32 32 30 30 32 33 33 33 34
20 22 22 22 24 27 28 29 30 27 26 28 34 44 43 39 39 43 40 41 42 41 41 37 33 32 30 28 25 24 25 26 27 27 28 29 30 31 32 32 32 34 35 36 36 36 37 37 37 37 38 38 33 34
18 21 22 17 12 13 15 17 18 27 18 20 29 35 38 38 36 36 43 35 38 41 41 40 37 35 33 33 31 27 29 30 29 29 29 29 31 33 34 33 32 34 35 36 37 38 41 42 43 43 43 40 41 44
19 26 19 16 13 14 5 12 23 26 26 26 29 30 34 30 28 28 34 33 33 35 37 41 40 35 31 26 24 27 30 30 30 29 27 30 28 33 38 37 36 36 38 40 40 43 44 45 47 48 49 47 48 44
26 25 22 21 22 19 22 25 30 30 30 32 29 30 35 32 26 25 28 28 25 29 33 36 34 31 28 27 25 29 31 31 30 28 25 27 30 33 33 33 34 34 34 35 38 40 42 44 46 46 44 44 45 40
20 27 27 30 26 29 26 28 30 33 36 35 29 30 37 34 29 27 20 23 24 25 27 28 30 27 26 25 25 25 28 30 29 30 32 31 25 28 28 32 35 34 34 37 38 44 40 35 37 37 39 36 39 44
18 24 26 31 28 27 27 33 32 34 33 35 29 32 38 34 29 23 23 25 23 23 25 25 24 20 14 14 14 20 23 24 29 29 29 27 25 27 27 30 34 38 40 39 37 39 41 36 32 26 29 31 33 34
20 28 30 33 32 30 31 29 26 28 25 27 34 32 24 23 26 26 22 22 25 25 25 25 25 22 19 15 13 10 15 18 25 24 25 19 17 23 26 30 32 33 33 35 37 34 37 38 32 30 32 30 27 30
20 23 29 29 23 20 24 28 33 29 34 26 26 27 30 28 27 25 23 32 29 27 30 26 18 23 21 16 11 15 13 15 15 16 19 19 21 26 27 27 27 28 31 35 36 36 36 36 35 33 33 26 28 29
19 19 21 25 29 29 26 28 29 32 31 30 20 20 22 21 23 26 32 24 23 22 20 24 21 16 18 13 11 9 8 10 15 17 15 18 15 17 18 16 17 21 27 29 29 31 34 33 36 36 33 29 32 32
10 14 15 17 23 25 24 23 24 28 25 23 25 23 23 29 30 27 27 22 19 19 18 18 13 10 9 9 9 10 10 13 14 14 17 22 24 23 18 20 21 22 20 22 27 33 35 35 31 30 31 33 35 36
14 13 13 13 15 16 17 19 20 19 13 17 19 17 19 22 24 23 24 21 18 15 14 13 12 11 11 13 12 14 16 16 16 18 20 23 28 29 29 30 29 34 35 30 25 26 28 31 33 36 36 37 37 39
12 12 13 14 12 11 12 12 11 11 11 12 15 17 21 19 19 21 20 19 18 15 13 13 12 11 10 13 14 16 15 15 16 18 20 21 23 28 33 36 38 38 32 23 26 30 32 34 36 39 38 37 37 38
13 13 13 15 15 14 10 6 9 11 11 14 14 14 14 14 15 15 16 16 12 10 8 8 9 8 6 5 7 8 9 10 11 13 15 18 20 22 25 24 22 20 19 17 17 20 22 24 26 28 31 33 34 35
12 11 11 11 11 11 10 12 13 13 13 12 12 12 13 13 14 14 12 9 11 11 10 7 4 1 2 4 6 8 11 14 15 16 16 17 18 16 15 16 17 19 20 21 23 25 27 29 31 33 35 37 39 41
15 15 15 13 13 13 15 16 16 16 14 13 16 17 18 18 18 18 15 12 9 5 2 1 5 3 5 4 3 1 1 4 6 8 10 13 15 18 21 24 26 28 30 32 34 35 37 39 40 42 44 46 48 50
18 20 19 18 18 19 19 18 18 18 19 18 17 17 18 17 15 12 9 5 3 3 6 8 7 5 3 0 3 6 9 12 14 16 19 21 24 27 30 32 36 38 41 43 45 47 49 50 51 52 53 54 55 56
24 24 22 23 23 23 21 19 17 17 16 17 18 17 15 13 10 9 10 13 10 9 6 2 3 6 9 11 14 16 17 19 21 23 25 28 32 36 40 44 48 50 51 52 52 52 52 52 52 52 52 52 51 51
29 27 25 23 20 17 17 18 16 14 13 17 17 18 19 19 18 15 13 12 6 0 4 8 12 14 16 18 19 21 23 25 27 31 35 40 45 49 52 51 50 49 48 48 48 47 47 46 45 43 41 38 35 32
28 26 24 22 21 19 18 17 18 18 20 19 17 15 14 10 8 4 5 4 5 9 12 14 17 18 20 21 23 25 28 32 37 41 46 51 52 49 48 46 45 45 44 43 41 39 37 34 31 28 26 24 22 22
26 25 24 23 23 23 24 24 21 19 17 14 10 8 6 5 4 5 7 9 11 13 15 17 19 21 23 26 28 32 35 39 43 50 53 49 45 42 39 39 40 39 39 37 34 31 27 25 24 23 23 24 22 19
25 24 24 22 20 19 16 16 15 12 9 8 6 5 4 6 8 10 11 12 14 17 19 22 24 25 26 29 32 35 39 45 52 53 48 42 36 34 36 36 34 30 28 26 24 23 22 21 21 20 16 13 11 12
21 21 20 18 15 13 11 10 9 7 5 4 4 5 8 10 12 14 16 18 20 21 23 25 26 27 30 33 36 40 45 51 53 48 41 36 32 33 33 31 26 22 19 18 17 17 15 14 11 10 10 11 13 16
16 14 14 12 11 9 8 6 4 2 2 4 7 9 12 14 17 19 21 23 24 26 27 28 28 31 34 37 40 44 47 52 49 42 36 33 30 30 28 26 21 18 16 14 12 10 9 10 10 11 13 15 17 19
13 12 10 9 8 6 4 2 2 4 6 9 12 15 18 20 22 25 27 27 28 29 30 30 32 35 38 41 44 46 49 49 43 38 34 31 28 27 26 23 19 15 13 11 10 10 9 10 12 14 16 19 21 24
14 12 11 8 7 6 5 6 7 9 11 14 17 19 22 25 27 29 31 32 32 32 32 33 35 39 41 44 46 49 49 45 39 36 33 30 26 24 23 21 19 18 16 14 13 12 13 15 17 19 21 23 26 29
15 14 14 14 11 10 10 11 13 14 16 18 20 24 26 29 32 33 35 34 34 35 35 36 39 42 44 47 49 50 47 43 39 35 33 30 26 23 22 21 20 18 17 17 17 18 19 20 22 23 25 28 30 32
17 18 18 18 16 15 16 15 16 18 22 23 26 28 31 34 35 37 37 36 37 36 37 40 42 45 48 50 51 49 45 40 37 33 30 28 25 23 22 21 21 21 21 21 21 22 23 24 26 27 29 31 32 33
21 23 24 25 23 19 18 19 21 23 25 27 29 32 36 37 39 39 38 38 37 38 41 43 45 48 51 51 49 45 40 35 31 29 28 26 24 23 22 22 21 22 22 22 23 24 25 26 28 29 30 31 31 31

GFSWCAN_500_spd_066.txt.gz
Wind_Speed
15 12 9 8 7 6 6 7 9 13 15 18 21 23 25 26 27 27 21 16 11 18 26 28 28 32 36 31 26 22 17 22 22 21 20 20 19 20 22 23 24 30 34 38 41 43 47 47 48 49 49 46 46 46
10 11 13 14 14 13 13 12 12 11 13 18 21 24 26 27 27 27 22 16 17 25 26 28 29 34 36 30 26 20 23 24 23 21 22 22 22 23 24 25 23 21 23 23 24 26 29 29 29 32 37 42 45 47
16 19 21 23 24 24 24 24 22 21 21 17 18 25 27 28 28 27 23 20 18 28 28 33 33 35 32 25 22 19 24 24 23 21 22 23 22 22 23 23 23 23 21 23 21 21 22 17 15 15 16 18 20 20
21 25 27 28 28 28 26 25 25 25 25 24 23 22 24 29 29 29 26 24 25 27 28 31 35 28 21 22 22 20 21 22 21 20 19 21 22 21 22 22 23 23 21 21 22 22 22 21 20 20 19 18 20 20
24 23 24 24 24 25 26 26 26 26 27 27 29 30 27 27 32 31 30 27 25 24 26 25 24 23 26 26 25 22 20 22 21 18 17 18 19 19 20 22 24 25 24 25 25 26 28 28 26 27 26 26 25 27
18 22 26 25 22 23 26 28 29 30 29 29 29 32 34 31 29 33 33 33 30 26 25 23 23 24 27 30 27 23 23 22 20 18 17 17 18 18 19 20 21 22 24 25 25 27 28 31 32 33 34 35 34 33
24 22 22 11 12 12 16 16 23 33 32 29 28 31 32 35 31 31 35 32 34 31 28 25 23 21 25 30 26 19 23 23 21 21 19 16 17 19 19 19 19 22 24 26 28 30 34 35 37 38 39 39 40 41
23 25 18 15 13 11 15 18 22 24 30 29 29 31 28 31 31 28 29 31 31 33 34 30 26 22 23 23 23 23 22 23 23 21 19 20 20 21 21 21 21 22 26 28 31 33 36 38 39 42 44 46 48 49
20 23 14 16 19 12 17 22 27 29 29 30 28 29 31 30 30 26 24 27 28 30 31 33 30 28 25 25 23 23 23 23 23 23 23 22 23 25 23 22 23 26 29 30 33 35 37 39 40 43 46 47 49 50
17 21 19 21 24 27 31 31 30 31 30 35 33 34 30 31 28 27 24 27 28 30 32 31 28 25 22 21 20 19 20 22 24 22 24 25 25 25 24 24 27 27 26 27 31 35 37 39 40 42 44 44 38 39
24 26 26 28 30 28 32 33 31 31 33 36 39 37 30 28 30 28 24 26 28 28 28 25 21 20 19 18 16 18 19 21 21 22 26 27 25 25 26 28 28 29 31 36 39 42 44 44 45 44 44 41 43 40
20 26 24 24 26 31 32 32 32 32 33 34 32 36 32 26 26 19 22 24 24 23 23 21 19 20 19 18 16 16 18 21 24 25 27 27 23 24 25 26 29 32 34 37 40 41 43 42 42 41 41 40 39 38
21 17 19 24 29 28 26 29 31 27 27 30 29 31 27 25 23 20 21 22 22 22 24 23 25 24 19 22 17 15 15 13 15 17 19 15 18 21 23 26 28 29 31 34 35 35 37 39 37 36 41 41 38 37
20 25 27 27 26 28 31 34 28 29 28 26 24 25 26 21 17 19 24 24 25 28 29 32 28 25 22 16 14 13 8 8 11 9 8 12 17 22 23 22 21 23 23 21 24 28 30 33 37 40 40 40 40 40
17 20 22 23 24 27 30 27 24 23 21 18 21 20 17 19 23 29 24 27 30 27 23 25 23 22 18 11 9 10 11 12 10 9 13 15 17 19 26 29 29 28 28 29 29 28 29 33 33 32 37 39 40 38
13 15 16 18 17 18 22 22 19 19 19 20 19 23 25 28 26 25 25 26 26 29 25 19 18 17 15 14 13 13 12 11 14 16 18 20 22 24 28 33 35 36 37 38 38 39 42 36 32 33 31 31 34 38
11 12 14 13 14 12 10 10 12 17 17 19 21 27 29 26 25 24 23 22 20 18 15 13 12 11 9 9 9 12 14 16 18 21 23 25 26 27 28 30 30 30 33 35 36 34 30 27 28 31 33 35 37 38
12 11 10 12 10 11 8 7 10 14 18 22 24 23 21 21 20 17 14 12 11 9 9 10 11 11 12 13 13 11 11 11 13 15 16 18 21 22 23 23 22 20 22 23 25 26 25 24 25 26 28 30 31 33
11 12 13 13 11 8 5 10 14 14 17 17 16 16 19 20 20 17 15 14 12 11 10 9 9 6 4 5 6 8 11 14 16 17 17 17 17 18 19 20 22 24 26 28 30 31 32 33 35 36 37 38 39 41
13 13 14 13 11 11 12 14 16 16 15 15 17 18 20 21 20 18 15 16 14 10 6 2 3 4 4 6 6 6 5 7 9 13 16 19 22 24 26 28 31 33 35 38 40 42 43 45 46 47 49 50 51 52
15 15 14 14 15 16 18 19 21 23 24 23 24 24 23 22 20 17 14 9 6 4 5 7 6 5 3 3 6 9 12 14 17 19 21 23 26 28 31 35 38 42 45 48 50 51 51 52 52 52 52 52 52 52
19 17 18 19 20 21 21 22 23 22 21 21 21 20 18 16 14 12 10 10 10 9 7 4 4 7 9 11 14 15 17 18 20 23 25 29 32 37 41 46 49 50 51 51 51 50 48 47 46 46 45 44 43 42
22 22 22 22 21 19 20 18 18 18 17 18 17 15 12 10 12 12 12 12 7 3 4 6 9 11 13 15 17 19 20 23 25 28 32 36 41 47 49 48 47 46 45 44 43 43 43 42 40 37 35 33 32 30
24 21 18 16 17 17 17 17 17 18 16 16 18 17 16 14 11 6 5 4 3 4 7 9 12 14 17 19 20 22 25 28 31 35 39 46 51 50 46 43 40 38 39 40 39 38 36 33 30 28 26 25 23 23
22 20 19 18 18 16 18 23 24 22 20 18 15 12 10 8 5 4 5 5 6 8 10 13 16 18 20 22 24 26 29 32 37 40 46 51 51 46 41 37 35 35 35 33 31 27 24 22 21 21 21 21 21 22
20 19 18 18 19 21 21 21 19 16 14 13 10 8 5 5 6 7 7 9 11 13 15 18 20 22 23 25 27 30 34 38 41 46 49 51 46 40 36 34 32 32 30 27 23 20 18 17 17 17 17 16 14 13
22 24 24 23 21 19 17 16 14 11 10 7 5 4 6 8 8 10 12 14 16 19 21 23 25 26 28 29 31 35 39 42 45 49 50 47 41 37 34 31 29 27 25 22 20 18 16 15 14 12 12 12 12 13
22 21 20 19 18 17 13 11 9 6 4 3 4 6 8 10 12 15 18 21 24 26 26 28 29 31 31 32 36 40 43 46 50 51 48 43 39 35 32 29 27 25 23 20 18 15 14 13 13 13 12 14 15 17
18 16 14 14 12 10 9 7 3 0 3 5 8 11 13 16 19 21 25 26 29 32 32 32 34 34 34 37 41 44 48 51 52 49 45 39 35 32 29 27 25 24 23 21 19 18 16 15 15 15 17 18 19 21
14 12 10 9 7 6 5 3 3 5 7 9 12 16 18 21 23 27 29 31 34 35 35 36 36 37 39 42 45 49 52 52 50 45 39 34 31 28 27 25 24 23 23 22 22 21 20 19 20 20 22 23 24 26
12 11 11 10 8 7 7 8 8 10 12 14 17 20 22 25 28 30 33 34 37 39 39 38 38 40 43 46 51 54 53 50 44 38 33 30 28 27 26 25 23 23 22 22 22 22 22 23 24 24 25 26 28 29
14 14 14 13 12 12 13 13 14 15 17 19 21 23 26 30 31 34 35 38 40 40 40 39 41 43 47 52 54 53 49 42 36 32 30 29 28 27 26 25 23 23 23 23 23 23 23 24 25 26 27 28 29 30
16 18 18 19 19 19 18 18 19 20 22 24 25 27 31 34 35 35 39 41 40 40 40 41 44 48 52 53 51 47 40 35 33 31 29 27 26 26 25 24 22 21 21 21 21 21 22 22 22 23 23 24 25 27

GFSWCAN_500_spd_069.txt.gz
Wind_Speed
25 19 15 12 11 9 9 7 9 12 12 13 16 21 23 24 24 22 21 20 17 17 20 23 27 31 30 30 22 25 22 15 22 20 17 19 20 18 26 29 32 37 40 39 38 38 38 40 40 38 34 35 36 35
17 14 14 15 15 15 13 11 10 9 11 14 15 14 17 21 21 21 18 15 16 23 22 24 32 34 29 34 30 26 20 11 21 21 16 17 19 18 22 24 23 24 30 36 36 40 39 38 36 35 39 41 42 44
15 16 18 21 22 23 23 22 20 17 13 13 16 19 19 20 20 20 19 19 17 23 30 29 29 30 34 32 29 25 21 22 23 19 14 18 16 18 16 20 21 20 19 22 20 22 24 25 30 28 32 36 37 39
17 20 24 26 28 29 29 28 26 25 23 20 18 20 21 21 22 21 19 19 19 24 23 26 29 30 36 35 30 21 23 25 26 22 17 14 15 18 18 20 22 23 23 23 23 21 22 22 20 19 20 21 20 20
18 18 20 24 26 27 29 28 28 28 28 26 24 21 21 24 23 22 21 22 25 26 24 28 30 32 37 32 24 19 25 27 26 24 18 12 11 14 20 17 20 22 22 23 23 23 21 21 19 20 20 21 22 23
16 19 21 25 25 28 31 29 29 29 28 29 27 26 23 22 26 25 24 27 31 27 33 30 31 34 32 24 25 20 25 26 25 20 15 13 12 13 13 15 19 19 22 24 23 24 24 23 25 27 27 27 29 30
20 27 28 22 19 21 21 28 31 31 30 30 29 28 27 24 20 24 23 22 27 30 34 29 30 28 28 31 29 23 21 22 22 17 15 14 14 15 16 16 18 19 20 22 23 25 26 27 27 29 31 32 34 35
22 19 19 20 21 20 22 23 26 32 31 31 29 27 26 27 25 24 22 25 28 28 28 26 25 24 30 32 31 28 25 23 21 17 14 14 15 16 16 15 16 18 20 21 24 26 28 29 30 32 34 36 37 39
14 16 19 18 11 8 22 27 24 27 32 31 31 29 27 28 30 24 24 26 26 27 28 23 22 21 30 34 31 27 25 26 23 19 16 18 19 19 18 14 16 18 21 23 25 26 27 30 33 35 38 40 43 44
17 20 15 17 19 19 21 23 28 28 33 34 32 29 28 27 27 26 25 26 26 27 28 23 19 16 20 27 31 27 23 21 21 21 22 22 21 21 20 16 18 20 22 23 26 28 31 34 36 37 40 43 45 47
20 14 16 16 24 29 31 29 30 35 33 31 33 30 28 27 29 30 30 33 33 30 29 25 23 19 17 15 17 20 21 22 22 20 21 21 20 20 21 21 22 24 26 29 31 33 36 38 40 42 44 45 45 46
17 15 20 22 26 26 28 32 39 37 33 32 27 32 32 32 33 29 30 31 32 29 30 26 24 22 21 20 20 20 21 21 21 20 20 21 20 22 24 26 27 30 32 32 33 35 38 39 40 41 43 44 45 45
22 20 22 24 26 30 29 25 26 31 35 36 30 32 33 31 25 27 28 25 23 22 22 23 23 23 23 21 19 19 20 20 19 21 22 19 22 24 27 28 29 32 33 31 32 35 36 35 34 36 38 39 40 41
23 23 21 23 24 28 27 30 30 26 31 33 29 25 23 23 23 23 23 22 21 21 22 25 23 25 23 22 22 20 16 15 16 16 10 12 15 18 21 24 26 27 29 30 26 28 31 29 31 31 33 35 37 37
25 23 25 26 32 34 32 27 23 26 27 27 24 21 18 16 19 22 22 22 24 27 30 30 29 25 22 19 18 17 15 15 12 9 12 14 16 19 21 24 26 28 29 32 35 36 37 41 44 44 44 43 42 39
20 21 23 24 23 21 13 15 22 19 17 19 18 17 16 18 22 24 22 22 21 26 32 28 20 24 18 17 14 13 13 10 11 14 16 17 20 22 25 27 29 31 34 38 41 42 42 43 44 45 42 38 35 36
15 14 15 16 15 14 15 16 19 18 13 15 16 17 22 22 25 27 26 27 27 27 24 22 22 23 18 15 12 11 12 15 17 19 21 23 26 27 28 30 31 33 34 34 34 36 35 34 32 33 33 34 34 33
10 11 12 12 10 10 9 15 19 19 21 22 22 21 23 26 27 27 27 26 24 19 17 16 16 14 12 12 14 14 16 18 20 20 20 22 23 25 26 27 28 28 28 27 28 29 31 32 33 34 34 35 36 37
11 10 11 11 8 7 13 17 20 21 23 23 23 22 24 22 22 21 18 18 15 14 13 13 11 10 11 12 12 12 13 15 17 19 18 18 18 20 22 24 27 30 33 35 37 38 40 42 43 44 45 45 46 46
13 13 12 12 10 10 16 18 19 21 21 21 20 20 19 17 14 13 13 11 9 10 10 9 9 8 7 8 9 8 7 8 11 14 17 20 24 26 28 29 31 34 37 41 44 47 49 51 52 53 53 54 54 54
15 15 15 14 15 17 19 20 19 20 21 20 21 20 18 17 16 14 15 14 11 8 9 11 9 6 3 3 5 9 12 15 17 19 21 23 25 27 30 34 37 43 47 50 51 52 52 52 52 51 50 50 49 49
17 17 17 19 21 21 22 23 23 23 22 23 23 23 22 21 19 15 13 13 14 13 9 5 1 3 5 8 10 13 15 17 19 21 24 26 30 34 37 42 49 51 50 49 48 46 45 44 43 43 43 43 43 42
20 21 23 25 26 27 26 27 27 27 26 26 24 21 18 15 14 14 14 13 10 5 1 1 4 7 9 12 14 17 19 21 23 26 29 33 37 40 46 51 53 50 47 45 43 42 41 41 41 41 40 38 35 33
23 23 23 23 23 22 22 23 23 22 19 16 15 16 18 18 15 11 7 4 2 0 2 5 8 11 14 16 19 21 23 26 28 30 34 39 42 47 52 54 50 46 43 41 39 37 37 36 34 32 29 27 26 26
22 19 20 21 21 22 21 22 22 22 21 21 19 16 14 11 8 5 3 2 1 4 6 9 13 16 18 21 23 25 27 29 32 36 41 44 49 53 54 51 45 41 39 36 34 33 31 29 27 24 22 22 21 21
20 20 20 18 21 23 22 23 23 22 18 16 14 11 9 7 6 4 2 2 5 9 12 15 18 21 23 25 27 28 30 33 37 41 45 50 54 54 51 46 41 38 35 32 30 28 26 24 23 21 20 19 18 17
19 20 22 22 22 22 21 19 18 16 15 12 10 7 5 4 3 4 7 10 13 16 20 23 25 26 28 29 30 31 33 38 41 47 53 54 53 51 46 41 36 33 31 29 26 25 24 22 19 18 16 15 16 16
23 24 25 23 21 19 15 15 13 11 9 6 4 3 3 5 8 11 14 17 20 23 26 28 30 31 31 32 33 35 40 43 49 54 54 53 49 43 37 33 31 28 27 25 24 23 22 21 20 19 18 17 17 18
23 21 21 19 18 16 15 11 8 5 2 0 2 5 8 11 14 17 21 24 26 28 29 33 34 34 35 36 37 41 44 49 54 54 51 46 39 34 31 30 28 27 25 24 23 23 22 22 21 21 21 21 21 22
19 17 16 15 14 12 10 8 5 3 3 5 7 10 12 15 18 22 25 27 30 31 33 37 38 38 38 39 41 45 50 54 53 49 43 37 34 33 31 30 28 27 25 24 24 23 23 23 23 23 23 24 25 26
17 16 15 13 11 9 8 7 7 8 9 11 13 15 17 19 22 25 28 31 33 34 38 39 40 40 41 42 46 50 54 52 47 41 36 34 33 30 28 28 27 26 25 24 23 23 23 23 23 24 24 25 26 27
17 16 15 12 11 10 11 11 12 13 15 16 18 20 22 24 25 28 33 35 36 38 40 41 41 41 43 46 51 54 52 47 40 35 34 32 30 28 28 27 27 26 24 23 23 22 21 21 21 21 21 22 23 24
19 18 17 17 16 15 16 17 17 19 20 21 23 25 27 28 30 34 37 37 38 40 41 42 42 43 46 51 53 51 46 40 35 33 31 29 27 26 26 26 26 25 24 23 23 22 22 22 23 23 24 24 25 25

GFSWCAN_500_spd_072.txt.gz
Wind_Speed
35 28 24 21 17 14 11 10 9 10 12 9 13 14 15 16 17 18 19 23 23 20 24 19 23 23 29 24 22 21 20 22 23 17 15 14 17 18 20 17 17 26 38 41 35 32 28 24 24 34 32 23 24 25
26 22 18 16 15 14 14 12 10 9 8 10 10 12 16 17 16 20 21 20 21 27 22 19 27 26 32 34 29 26 14 24 18 17 13 15 18 16 15 21 15 16 21 29 30 29 25 26 30 34 32 30 31 29
17 13 13 15 17 18 18 18 16 14 10 8 9 11 11 13 17 17 19 23 23 21 23 15 21 32 37 34 31 15 19 22 16 20 19 17 17 18 14 17 8 8 10 12 17 20 25 28 30 33 31 34 37 40
12 13 16 19 21 22 24 24 22 20 19 15 12 11 12 12 15 21 20 18 19 24 22 20 24 30 34 35 32 25 17 19 22 22 19 13 15 16 15 19 18 19 21 21 21 15 15 17 21 23 25 30 32 30
16 18 17 19 21 22 24 24 23 23 23 22 19 15 14 16 18 19 16 16 15 16 18 19 20 31 33 32 33 26 19 23 20 20 18 13 17 15 19 20 25 20 24 20 29 26 25 23 25 25 22 22 21 21
16 17 21 24 27 31 30 29 30 28 26 27 25 20 17 17 19 20 21 21 27 23 25 19 18 24 30 36 31 25 24 26 19 20 19 16 14 13 18 19 22 19 25 22 27 33 30 28 25 25 23 24 24 24
18 22 27 27 23 24 24 26 29 30 29 30 29 25 22 19 21 19 19 26 32 25 25 22 20 20 27 33 28 21 25 25 23 20 19 17 15 16 16 21 16 17 21 24 25 26 25 25 25 27 27 27 28 29
16 17 22 24 26 26 25 23 23 30 32 31 31 30 26 21 20 21 23 30 31 25 26 22 21 20 27 27 23 22 24 26 21 18 18 17 17 16 19 22 24 20 23 23 25 25 25 26 27 28 29 30 31 32
11 18 21 24 22 16 21 25 22 27 30 32 31 32 30 26 20 22 26 28 29 24 26 21 23 25 27 28 27 24 20 13 15 16 15 12 14 15 16 17 18 19 21 22 23 24 25 26 27 29 30 32 34 36
11 15 14 16 9 9 21 21 25 30 30 32 32 34 32 28 24 23 26 27 30 30 32 23 24 19 27 30 29 26 24 22 21 17 17 18 16 18 18 14 15 19 21 22 23 24 25 26 28 30 32 33 35 37
11 11 8 18 13 16 22 22 27 32 31 33 33 31 29 28 27 26 27 27 30 30 29 22 20 17 24 29 28 27 24 18 18 19 19 20 20 19 20 20 19 20 22 25 26 28 30 31 33 33 34 37 38 40
11 15 14 16 21 23 24 23 26 29 28 29 30 30 28 29 29 28 28 30 28 27 28 24 18 19 21 23 26 25 27 24 24 24 22 24 19 16 19 22 23 25 27 30 32 34 36 37 36 36 36 36 37 39
15 17 20 19 24 23 28 26 27 29 32 31 27 28 27 28 28 28 27 27 28 25 25 24 19 18 19 20 20 20 21 22 21 21 20 16 18 22 25 27 30 33 34 36 37 39 38 36 34 35 36 34 31 32
13 20 26 21 16 23 27 25 19 29 36 36 27 23 23 27 26 24 20 16 18 19 17 20 21 19 18 18 17 17 17 18 19 20 15 19 25 25 25 25 27 29 31 33 33 31 31 32 32 33 36 39 43 45
19 21 24 28 28 22 23 22 18 24 22 25 27 26 26 24 22 22 22 22 22 22 22 23 21 20 21 19 20 20 20 21 16 12 17 20 17 16 18 21 24 26 27 29 30 32 33 36 40 43 46 47 48 49
18 22 26 28 26 27 23 20 20 22 21 22 20 22 20 20 22 23 24 25 25 25 25 25 25 25 24 24 21 18 16 12 13 13 15 17 19 21 24 25 27 28 31 32 34 36 38 41 42 43 43 44 44 43
19 18 19 16 15 10 19 19 19 15 14 15 15 17 19 18 18 18 17 18 20 23 23 24 22 22 19 16 14 11 10 13 16 18 19 21 24 27 29 30 30 30 31 33 33 33 33 33 34 35 37 39 40 41
11 10 10 9 8 6 4 9 13 16 16 14 10 13 20 22 22 21 19 20 22 23 23 20 20 17 16 12 11 13 14 15 17 20 22 23 25 27 29 29 28 26 27 29 32 34 37 38 40 42 44 46 47 48
11 12 12 7 6 14 16 17 19 20 18 18 23 26 28 27 26 25 26 25 22 19 18 17 16 15 14 13 13 14 17 17 17 22 23 22 20 21 23 26 29 31 33 35 38 41 43 46 48 50 52 54 55 56
12 11 13 13 14 18 18 21 23 22 20 19 23 25 26 25 23 22 19 16 14 13 12 12 11 11 11 11 12 13 16 15 14 16 19 22 24 26 29 31 34 36 38 41 44 48 51 53 54 54 53 53 53 52
13 13 13 13 17 19 20 21 21 20 19 19 19 17 17 16 17 17 14 11 10 10 9 8 8 7 6 4 4 7 10 14 18 21 23 26 28 30 31 33 37 41 43 49 53 55 54 52 50 50 49 47 46 46
15 16 16 16 19 20 21 21 21 20 19 17 17 16 15 14 12 13 14 13 10 12 13 10 6 3 4 6 9 12 15 18 20 23 25 27 30 32 35 40 42 47 52 55 56 55 53 51 49 47 44 42 42 42
16 17 18 19 20 20 20 21 20 20 20 20 19 18 17 16 15 13 14 16 14 10 6 3 3 5 7 10 13 15 17 19 22 25 28 30 33 38 41 45 51 54 55 56 55 52 49 46 43 40 39 38 37 36
20 20 21 21 22 22 23 22 23 23 22 21 20 18 16 15 17 16 12 9 6 4 2 3 6 9 11 14 16 19 21 24 26 28 31 34 39 42 48 53 55 55 55 53 50 46 42 39 37 34 34 33 31 28
24 24 25 24 25 26 26 25 23 22 21 18 17 18 19 15 12 9 6 4 2 3 5 6 8 12 15 18 21 23 26 28 30 31 36 40 43 50 54 55 54 53 50 46 41 38 35 33 31 30 29 27 26 24
22 22 22 21 22 22 22 23 22 23 23 21 19 16 13 10 6 4 2 2 3 4 7 11 15 19 22 25 27 29 30 32 33 36 41 45 52 55 53 52 49 43 39 36 33 31 30 29 28 27 26 25 23 21
22 22 21 22 23 24 24 23 21 20 18 15 11 9 7 5 3 2 1 5 9 13 17 21 23 27 29 30 32 33 34 36 37 42 47 53 54 52 50 45 40 36 34 32 31 29 28 27 26 26 25 25 24 23
22 24 25 24 23 22 20 18 16 14 12 10 8 6 4 2 1 4 8 13 17 21 25 26 29 32 33 34 36 37 38 39 43 48 53 53 51 47 42 38 36 34 32 30 29 28 27 26 25 25 25 25 25 24
25 25 25 23 20 19 18 15 12 10 8 6 4 2 1 4 8 12 15 19 22 25 28 30 33 35 36 38 39 39 40 43 48 53 52 50 46 41 37 35 33 31 30 29 28 26 25 25 25 25 25 24 25 25
23 21 19 18 17 16 15 13 10 7 5 3 3 5 8 11 13 16 19 22 24 28 31 34 36 38 39 40 41 41 44 49 53 52 49 46 40 37 34 32 30 29 29 29 27 26 25 24 23 23 24 24 24 25
19 18 17 16 15 13 12 10 8 7 7 8 9 11 13 16 18 20 23 26 28 31 35 37 39 40 41 42 42 44 49 52 51 49 45 40 36 33 31 29 28 28 28 27 27 26 25 24 23 23 23 23 23 23
18 18 17 15 14 12 12 11 11 11 12 14 15 17 19 21 23 26 28 30 32 36 38 41 41 42 43 42 44 49 52 50 48 45 39 36 33 31 29 27 27 27 27 27 26 25 24 24 24 24 24 25 25 26
19 19 19 18 16 14 14 15 15 17 18 20 22 23 24 26 28 30 32 33 37 40 41 42 42 43 42 44 49 51 49 48 44 39 35 33 31 29 28 27 28 28 27 26 26 26 26 27 28 28 29 30 30 30

GFSWCAN_500_spd_075.txt.gz
Wind_Speed
49 51 52 31 24 20 15 13 10 8 6 8 9 9 9 10 11 14 18 20 20 16 21 21 25 26 23 18 17 14 13 14 21 18 9 14 10 17 13 10 7 6 17 34 39 29 20 17 19 16 26 32 31 31
47 47 28 25 18 14 13 12 10 7 5 5 7 6 8 10 13 14 17 17 17 21 20 19 19 21 25 24 23 16 18 4 20 13 15 16 11 8 10 7 8 5 4 12 25 29 26 20 23 18 34 31 26 31
43 27 23 16 14 13 13 13 12 12 9 5 4 5 6 10 10 14 18 17 15 15 19 18 16 26 34 38 26 20 8 6 18 20 15 9 13 6 11 11 8 4 7 10 13 21 25 28 27 25 26 27 33 30
26 22 17 15 14 15 16 17 17 16 15 13 8 4 5 6 11 14 14 16 13 18 20 17 21 25 36 38 24 31 18 10 19 21 12 15 11 11 15 13 14 19 15 18 14 17 18 20 23 31 31 33 31 29
21 17 16 17 18 16 16 16 16 16 17 18 15 10 6 8 9 12 16 13 15 17 21 18 9 28 37 35 27 21 19 12 21 26 19 15 13 16 10 18 4 21 19 17 28 23 25 17 23 19 19 23 29 27
15 17 17 18 19 22 23 22 23 22 20 19 21 16 12 11 13 17 17 17 17 19 18 16 13 25 33 33 27 22 16 16 20 19 19 15 13 11 14 20 21 16 14 25 29 20 23 21 17 18 19 20 22 24
14 17 20 24 26 28 31 30 27 27 26 25 24 23 18 16 16 13 12 16 22 23 19 14 12 19 30 28 32 23 19 17 22 18 20 17 12 11 10 11 18 17 18 24 27 30 31 31 30 23 19 21 23 25
14 19 21 20 25 27 26 29 25 25 26 28 27 27 23 19 14 14 18 24 28 25 23 17 16 12 20 26 32 27 21 19 24 18 19 15 15 16 13 20 16 19 17 24 23 26 30 32 29 28 28 27 27 29
14 19 22 24 26 26 26 30 28 28 28 30 29 31 28 21 17 20 22 29 26 24 21 16 18 17 17 28 26 23 16 15 19 18 19 21 18 18 20 19 22 27 22 19 21 23 25 27 28 30 31 31 31 32
16 15 12 18 15 14 16 24 31 30 27 31 31 33 32 24 23 26 25 28 29 23 18 16 19 15 22 28 24 21 20 18 15 18 15 20 22 21 19 20 21 22 23 23 23 23 23 25 27 29 30 31 33 34
8 7 9 7 8 13 20 25 27 29 31 35 33 34 31 26 28 30 30 30 28 22 21 16 15 10 12 19 20 18 18 17 13 13 13 13 16 16 15 16 16 18 21 22 24 25 27 28 30 33 34 35 36 38
7 10 13 14 15 15 21 27 32 34 30 31 34 34 32 29 30 33 31 30 26 25 25 24 19 11 11 19 21 19 17 16 14 14 13 14 11 14 17 19 20 22 24 28 29 31 32 34 35 37 38 40 41 41
10 12 15 16 20 23 28 34 35 32 26 32 34 34 34 33 29 27 28 30 28 25 26 24 19 17 20 22 22 25 22 22 21 21 19 15 16 18 19 21 23 24 26 29 32 34 36 37 38 38 38 37 37 38
17 16 17 18 18 23 24 31 33 27 32 31 29 29 30 29 25 20 17 19 20 26 28 23 19 19 20 19 20 22 23 23 25 24 16 19 19 21 22 23 23 21 21 22 23 25 27 29 30 32 35 37 38 38
15 14 18 23 20 18 20 22 32 32 27 24 23 24 23 22 21 20 20 21 21 22 24 27 22 20 23 19 18 18 18 19 16 13 17 18 19 19 19 18 20 21 22 24 27 30 32 33 34 36 38 41 43 45
21 21 21 21 20 19 20 25 26 20 26 23 20 19 16 16 17 19 20 20 22 22 21 20 19 18 17 17 17 19 17 11 13 14 14 15 17 19 21 23 26 29 32 34 35 34 34 35 36 37 38 40 40 41
17 21 26 24 19 19 19 17 18 15 18 19 16 16 16 15 16 17 21 22 21 21 20 18 18 19 18 17 14 11 8 11 10 12 15 19 20 22 24 27 29 30 31 31 30 29 31 33 36 38 41 43 44 45
17 13 13 10 12 18 18 20 17 16 16 15 15 18 16 14 13 14 16 20 23 22 21 18 18 16 11 11 10 8 8 11 14 16 18 21 22 24 26 25 24 24 28 30 33 35 36 38 41 44 47 49 51 54
9 9 11 12 7 9 14 14 15 16 15 14 13 16 18 18 18 19 18 18 19 18 14 14 12 12 12 10 9 11 14 16 18 18 20 21 19 21 25 27 28 30 32 35 38 41 44 47 50 52 53 54 55 55
12 11 15 9 8 10 14 17 18 18 18 15 19 22 24 24 23 24 25 24 21 17 15 14 11 11 11 11 13 16 16 15 17 16 18 21 23 26 29 31 34 36 39 41 44 47 49 53 57 58 58 57 55 55
13 15 16 15 15 18 20 21 22 24 26 26 25 25 25 27 25 22 20 19 17 16 15 13 11 10 10 9 7 7 8 12 14 17 21 24 27 30 32 34 37 39 43 45 47 53 57 58 57 58 58 57 55 53
15 15 16 19 19 20 20 20 20 21 21 22 23 22 21 20 18 16 15 13 12 11 8 8 8 6 5 6 7 9 12 16 18 20 23 27 30 33 35 36 41 45 47 52 56 58 59 59 58 56 53 48 44 41
16 17 18 21 21 21 21 19 18 17 16 15 15 15 16 15 13 13 13 11 9 11 8 5 4 3 4 8 11 14 15 17 21 24 27 30 34 35 37 43 46 49 55 58 57 57 57 54 49 45 40 36 35 33
16 17 19 21 22 22 21 20 19 18 17 16 14 14 14 13 12 11 11 12 9 6 3 2 3 6 8 10 13 17 20 23 25 28 31 35 35 38 43 48 53 56 55 55 55 51 45 41 38 35 33 31 30 29
18 18 19 19 20 20 20 20 19 19 18 18 16 14 12 12 15 11 7 4 3 2 2 4 6 9 12 16 20 23 25 27 30 32 34 35 38 43 50 55 55 54 53 50 45 41 39 37 34 31 30 29 27 27
19 20 20 21 22 22 22 22 22 21 19 16 14 16 16 12 8 6 4 3 0 2 4 7 10 15 19 23 26 28 30 33 36 36 38 40 44 51 53 51 52 51 47 42 39 36 34 33 31 30 28 27 27 26
22 22 22 23 22 22 21 19 18 17 18 19 16 13 10 8 6 5 3 1 2 6 11 15 19 23 26 30 32 34 36 38 38 39 41 46 52 54 52 51 48 43 39 37 34 32 32 30 29 28 27 26 26 26
20 20 21 22 21 21 20 20 20 18 16 14 12 10 9 7 4 2 2 6 10 14 18 21 24 27 30 34 37 38 40 41 42 42 47 52 53 51 50 46 41 38 35 32 30 30 30 29 28 26 26 25 25 25
20 21 21 21 22 22 21 19 15 13 11 11 9 7 6 3 2 5 8 12 16 19 22 25 27 31 35 38 40 41 43 43 43 47 51 52 52 49 45 41 37 34 31 29 29 29 28 28 26 25 25 24 24 24
22 22 21 21 20 20 19 17 15 12 9 7 6 5 4 5 8 11 14 17 20 23 26 28 31 36 39 41 42 44 44 44 48 52 51 50 49 45 40 36 33 31 29 28 28 28 27 27 26 25 25 25 25 25
22 21 19 18 18 16 15 13 11 9 7 7 7 7 8 11 13 16 19 22 24 28 30 32 36 40 42 43 44 45 44 48 52 52 51 49 45 40 37 33 32 30 29 29 28 27 27 27 27 27 28 28 29 30
21 19 17 15 14 13 12 10 10 10 10 10 11 13 15 17 20 22 25 27 30 32 35 36 40 43 43 44 44 44 48 52 51 50 49 45 41 37 34 32 31 30 29 28 28 28 29 30 31 31 31 30 30 30
20 19 18 17 15 14 13 13 14 14 14 15 17 19 21 24 26 28 30 32 34 37 37 41 43 43 44 45 45 47 51 51 50 49 46 41 37 34 32 31 30 29 29 29 30 31 31 30 28 27 27 28 29 30

GFSWCAN_500_spd_078.txt.gz
Wind_Speed
42 42 40 42 42 41 24 20 15 10 9 7 6 5 5 6 7 11 16 19 22 23 25 25 27 26 27 22 17 15 15 15 17 17 15 9 11 13 16 13 6 7 9 15 23 30 26 16 16 21 16 15 22 27
40 37 38 39 39 25 20 16 12 10 6 3 3 4 4 5 7 12 14 16 17 20 20 20 23 24 24 23 23 19 19 9 5 15 16 13 12 8 4 8 3 6 4 8 12 18 27 17 18 9 21 24 27 31
34 35 37 38 26 21 17 14 13 11 8 4 1 2 4 5 7 12 15 12 15 17 20 18 20 24 22 22 25 25 22 14 10 17 17 13 15 6 6 6 3 10 8 12 16 16 28 20 19 15 20 25 29 28
33 35 36 26 21 17 16 15 14 13 12 10 7 2 2 3 9 9 10 13 14 17 16 18 20 21 23 27 33 28 19 17 13 20 15 11 11 5 7 8 9 9 11 16 9 9 18 18 17 17 23 21 23 25
33 34 26 21 18 18 17 16 16 16 14 14 11 9 3 3 7 13 13 13 15 14 16 20 16 18 26 37 36 29 18 18 18 20 19 9 7 6 9 9 11 20 19 28 14 10 20 18 18 31 19 26 25 20
32 25 20 19 19 19 18 18 17 15 13 12 14 14 9 7 8 10 9 10 13 15 16 14 10 15 22 39 27 28 20 13 18 18 22 12 10 5 1 6 2 8 20 27 28 20 25 30 29 24 29 20 18 19
23 18 19 19 19 20 21 23 23 23 20 18 16 18 16 12 6 9 12 13 14 14 13 14 10 10 29 31 28 21 18 14 17 19 20 18 15 3 3 5 10 11 15 14 18 22 19 20 19 16 17 18 18 19
17 18 18 19 20 23 24 23 23 25 29 28 22 21 21 17 12 12 10 11 14 16 15 14 14 21 31 31 30 22 16 14 17 17 16 15 11 6 6 4 8 5 13 14 15 15 18 22 21 23 25 24 24 23
16 16 15 20 24 28 31 31 26 26 25 28 28 28 27 21 15 11 12 15 19 17 15 18 17 17 27 29 27 26 16 11 11 15 14 14 11 9 7 11 12 11 11 11 11 13 17 19 21 26 27 28 27 27
12 16 19 21 22 26 28 30 31 32 33 29 29 29 30 24 16 19 19 19 22 16 19 21 15 21 23 26 31 23 15 9 11 15 15 14 14 15 18 15 15 16 18 22 25 23 23 23 24 26 29 30 30 30
10 11 8 9 10 11 12 24 32 37 34 33 33 32 31 23 21 22 23 23 21 18 17 17 16 20 20 15 24 21 16 11 13 13 15 16 18 22 20 20 19 21 22 24 25 26 25 25 26 27 29 32 34 35
1 2 3 2 1 8 12 21 27 31 30 31 31 34 31 28 26 24 23 23 22 22 22 21 20 18 18 21 22 16 13 10 10 10 10 10 12 14 18 18 18 20 22 24 26 27 29 31 32 33 34 36 38 40
5 9 6 7 14 20 24 27 28 29 31 32 39 36 35 33 32 27 24 26 26 23 22 20 18 16 10 13 15 16 15 15 12 14 11 9 10 14 17 18 18 19 21 23 25 27 29 30 32 35 37 39 40 41
13 16 22 21 27 31 25 26 27 32 33 34 34 34 34 29 25 18 15 20 22 27 26 21 18 19 21 14 15 14 15 15 16 14 16 18 20 19 19 20 20 20 21 21 21 22 23 25 27 30 33 35 36 38
18 17 20 21 28 26 28 26 24 28 32 34 32 29 28 21 17 18 20 23 25 26 26 21 15 14 16 14 13 12 14 16 15 15 16 17 16 16 16 17 19 20 22 24 26 27 31 34 37 37 37 37 39 41
19 19 19 22 22 23 26 23 24 27 27 29 29 27 25 21 19 17 16 21 23 25 24 22 21 16 15 15 13 13 12 13 14 14 12 11 13 15 18 20 22 24 27 30 32 32 33 34 35 35 36 37 40 42
16 18 19 21 25 26 27 28 28 26 25 24 22 19 21 20 20 19 18 18 20 20 21 20 20 20 17 17 15 14 12 13 9 10 11 13 16 18 21 24 26 26 28 28 29 30 32 35 37 39 41 43 46 48
21 19 16 18 22 22 22 19 18 22 20 20 16 19 20 22 20 19 21 19 18 18 18 18 18 18 14 12 12 9 8 9 9 12 15 17 20 21 23 23 23 25 28 29 31 34 37 40 43 45 48 50 53 56
11 12 13 15 16 16 21 20 20 22 20 20 21 20 19 17 17 20 23 23 22 21 21 18 14 11 10 8 9 8 9 11 14 17 17 19 20 21 23 25 28 30 33 36 38 40 43 45 48 52 54 56 58 60
11 12 13 9 12 16 20 19 19 20 19 19 21 21 19 17 20 22 24 24 22 17 12 10 11 11 11 10 10 11 13 15 16 17 17 19 22 25 27 31 34 37 39 41 43 45 49 52 53 57 60 60 59 59
13 13 15 8 10 13 16 17 18 18 17 19 21 21 22 22 21 19 19 19 18 17 16 15 12 9 9 8 9 10 9 11 13 15 18 22 25 29 32 35 38 41 43 43 47 51 53 58 60 59 60 61 61 59
16 15 14 13 16 20 22 21 20 20 21 24 26 26 25 25 24 25 23 20 18 15 13 10 7 7 6 6 7 8 9 12 14 17 21 24 28 32 35 38 40 41 44 48 52 58 58 57 58 59 57 53 48 44
16 17 18 19 19 21 23 23 23 24 25 26 26 24 23 21 20 19 17 14 13 10 8 7 5 4 4 4 7 10 12 15 19 21 24 27 31 34 36 38 42 45 50 56 57 57 58 58 54 49 44 42 40 37
17 19 20 20 21 21 21 20 19 19 18 18 18 19 16 15 15 15 14 12 13 10 6 4 2 2 4 7 9 12 15 18 23 27 31 33 36 38 40 42 46 52 55 55 56 56 52 47 43 41 38 36 35 33
20 20 21 22 22 21 18 17 17 16 15 15 16 16 15 14 13 15 14 10 8 5 3 1 2 5 6 9 14 18 23 26 30 33 36 38 40 41 44 49 53 54 54 54 52 48 43 40 37 35 34 34 32 30
18 20 20 20 19 18 18 18 17 16 16 16 15 15 16 17 14 10 8 7 5 3 2 3 5 8 12 17 23 28 31 33 35 38 40 41 41 44 50 54 54 53 53 49 44 39 37 34 33 33 32 30 29 28
20 21 21 21 20 20 19 19 18 17 16 15 16 17 13 11 10 8 7 5 3 3 5 9 13 18 22 24 27 30 34 37 39 42 44 43 45 49 52 52 52 51 48 43 39 36 33 31 31 30 29 28 27 26
21 22 22 22 22 21 21 19 17 15 17 17 15 13 11 9 8 7 5 4 5 8 10 15 19 22 25 28 32 36 38 40 42 45 45 47 51 53 53 52 51 46 42 38 35 32 31 30 29 28 27 26 25 24
20 21 21 21 19 18 18 19 20 18 16 14 13 12 10 9 7 6 6 8 10 13 16 20 23 26 29 32 36 40 41 42 45 46 47 52 54 54 53 51 47 42 38 35 33 31 30 28 27 27 27 27 28 28
18 20 19 19 19 20 21 19 18 16 13 11 10 10 9 8 7 8 10 12 15 18 22 25 29 31 35 36 40 42 43 45 46 46 50 53 53 53 51 46 42 38 35 33 32 30 30 29 29 29 30 30 30 30
18 19 20 21 22 20 18 17 15 13 13 11 9 8 8 8 10 12 15 18 21 24 27 30 33 37 38 40 43 44 45 46 47 50 53 52 52 51 47 42 38 36 34 32 31 30 30 31 31 30 28 27 27 27
20 21 19 18 17 16 16 14 13 11 10 9 9 10 12 13 15 18 21 24 27 29 32 35 37 40 41 44 44 45 47 47 50 53 53 52 51 48 43 39 37 35 33 32 32 32 31 29 27 26 27 27 28 28
21 19 17 17 17 17 16 15 13 12 11 12 14 15 17 19 22 25 28 29 31 34 36 38 41 40 42 44 45 46 47 49 52 52 52 51 48 43 40 38 36 34 33 32 31 29 28 27 27 27 28 29 29 30

GFSWCAN_500_spd_081.txt.gz
Wind_Speed
45 42 40 39 38 39 37 36 34 23 17 12 12 10 9 9 7 7 16 25 22 24 26 21 20 23 18 14 15 18 20 19 21 21 15 15 15 15 13 15 17 16 21 26 31 34 27 29 17 4 5 10 13 22
42 39 38 36 36 35 34 34 24 18 12 8 7 8 7 7 6 10 12 27 26 24 23 21 26 26 23 20 16 17 16 12 11 13 18 15 12 11 10 15 9 6 11 13 24 25 25 31 16 6 14 17 20 20
39 37 35 34 34 33 32 27 20 15 13 9 6 6 5 5 7 11 10 13 20 24 24 22 25 26 25 25 22 19 20 10 14 14 19 15 11 14 5 5 10 17 15 13 18 16 24 31 17 4 16 11 22 22
36 34 32 32 32 30 28 22 18 17 14 11 11 8 5 5 8 7 9 14 17 21 21 20 19 20 22 21 26 25 19 13 12 16 21 16 17 12 8 6 7 6 12 8 7 9 19 17 13 10 12 9 9 24
33 31 30 31 30 29 24 20 18 18 15 12 13 11 7 5 5 8 10 15 16 17 18 21 21 20 21 23 27 27 23 19 15 18 21 13 14 5 8 4 5 5 12 12 14 7 12 11 15 17 15 15 15 17
30 29 30 29 28 24 23 21 20 18 16 14 15 14 11 6 3 4 9 8 10 15 14 15 17 19 22 26 32 30 21 20 20 15 19 15 15 0 7 4 8 11 17 15 14 15 14 18 22 26 24 19 17 16
28 29 28 27 24 22 22 22 21 19 16 15 12 12 14 8 3 6 11 13 11 11 10 11 11 14 21 28 32 33 20 16 17 17 20 18 10 3 4 3 4 19 25 22 17 18 20 15 11 10 11 25 21 24
28 27 26 23 23 23 23 23 22 22 21 20 17 14 14 13 9 10 9 9 8 9 11 13 13 15 22 31 33 27 19 15 14 15 17 13 5 4 3 4 2 2 4 14 13 12 12 13 17 15 14 15 16 19
25 24 22 22 23 23 24 24 25 27 28 27 26 22 20 18 13 12 12 10 11 8 8 9 9 15 24 33 30 25 20 14 13 14 13 13 7 8 11 6 5 5 6 7 8 9 9 11 12 13 15 17 19 22
19 19 21 22 23 25 27 28 28 30 27 29 27 27 28 21 18 16 15 11 12 13 14 13 16 24 27 28 26 23 15 10 9 10 11 10 10 10 11 10 8 8 10 12 14 16 17 18 19 20 19 20 22 25
16 18 20 21 22 24 27 29 31 33 34 28 28 30 27 24 21 20 17 13 16 19 19 13 15 25 28 27 25 20 15 9 6 7 11 11 11 10 12 12 13 14 15 16 17 18 19 21 23 23 24 25 27 28
12 10 13 15 13 16 18 26 34 37 32 29 25 26 28 24 27 25 15 19 23 25 22 17 18 24 22 12 18 21 14 10 7 8 8 7 6 8 11 14 15 15 17 20 22 21 23 24 26 28 30 32 33 34
7 9 11 13 10 8 9 24 30 32 36 33 31 31 35 35 32 22 18 27 26 26 25 18 21 22 22 23 18 20 18 11 7 8 5 4 4 7 10 12 16 19 20 21 22 24 26 28 29 30 31 33 34 37
10 6 12 16 20 19 23 29 30 34 34 36 35 38 37 36 26 13 22 26 26 25 23 20 21 19 21 23 21 18 13 12 13 9 10 11 13 15 16 16 17 17 17 18 19 22 24 26 28 31 33 35 37 39
13 20 29 33 32 30 28 29 33 34 37 36 37 34 36 24 14 18 26 28 29 27 24 23 22 18 15 12 11 10 10 10 9 9 10 11 11 12 12 14 15 17 19 21 23 25 27 29 32 34 37 38 40 42
22 27 22 25 25 17 23 24 29 29 30 30 30 27 25 18 19 23 25 26 27 27 25 21 18 16 16 11 8 6 5 4 6 7 8 9 11 12 14 16 19 22 24 26 27 28 29 31 33 34 36 39 41 44
20 25 21 24 25 23 22 22 28 29 29 28 25 23 21 19 18 19 21 23 23 23 22 20 18 14 9 5 6 7 8 10 9 9 10 11 12 14 17 20 22 24 26 28 30 32 34 35 38 40 42 44 47 49
19 21 24 26 27 21 23 25 27 25 26 24 21 18 17 19 19 17 17 19 17 17 17 17 14 14 14 13 12 10 10 10 10 10 11 13 16 19 20 23 25 27 29 32 33 36 39 42 45 48 50 51 53 55
19 16 20 21 21 24 24 22 23 24 24 24 21 20 20 20 21 21 20 19 19 18 18 17 15 14 13 11 8 9 9 7 8 12 15 17 18 20 22 25 29 32 35 37 40 43 45 47 48 49 51 54 58 61
16 16 18 19 19 19 20 23 24 25 24 23 24 23 22 22 22 21 21 20 18 17 15 13 11 9 9 10 9 6 7 11 13 13 13 15 19 23 27 31 35 37 39 43 45 46 47 48 51 54 58 60 58 59
12 10 13 17 19 22 20 22 24 24 24 25 25 24 24 24 24 24 23 21 18 16 13 10 10 9 9 7 7 8 8 9 10 13 16 19 22 25 29 33 36 39 42 43 44 46 50 53 58 58 57 59 60 59
13 12 12 14 17 23 25 23 23 23 24 25 26 26 25 24 24 24 22 20 17 14 13 13 10 8 6 5 5 6 8 11 13 15 18 19 23 27 31 34 38 41 43 44 47 51 55 55 56 58 58 55 50 45
11 13 12 13 16 18 19 22 24 25 26 27 26 25 23 21 21 21 21 19 17 15 13 9 7 6 5 4 6 9 11 13 16 18 20 25 29 32 35 38 41 42 45 49 53 53 53 55 56 52 47 43 41 39
13 16 17 17 19 20 20 22 24 25 25 26 27 27 26 26 26 23 20 17 15 13 12 9 6 5 6 7 9 12 15 16 19 22 26 30 34 37 40 42 43 46 51 53 53 54 54 52 46 42 39 36 36 35
19 19 19 21 20 21 21 22 23 24 24 23 23 22 21 21 20 20 18 17 15 11 9 7 5 6 7 10 12 16 18 23 27 30 33 36 39 42 44 45 48 51 52 53 54 53 49 44 39 36 34 34 32 31
20 21 22 23 20 19 17 17 17 19 20 21 20 21 20 19 19 18 16 14 12 10 7 6 5 8 11 14 16 21 26 30 34 37 40 41 44 46 46 49 53 53 53 54 52 46 42 38 36 33 32 31 30 29
22 21 21 20 18 17 17 16 15 16 17 19 17 17 20 19 16 15 14 11 8 6 5 6 9 12 15 19 23 28 31 35 39 41 43 44 47 48 50 53 54 54 54 52 46 41 38 35 33 32 30 29 29 29
21 20 20 19 18 18 18 18 18 18 17 17 19 19 16 14 14 11 9 8 6 6 8 11 12 16 20 25 29 33 37 38 41 44 45 47 48 49 53 55 55 55 52 47 42 38 35 34 32 31 30 29 29 30
20 20 19 19 19 19 18 18 18 17 18 19 18 15 13 12 10 8 7 7 8 11 13 15 18 22 26 30 34 38 41 41 44 46 47 48 49 52 55 54 55 53 47 43 39 36 35 33 31 31 31 32 31 29
20 20 20 20 18 17 18 18 19 20 19 17 15 14 13 11 9 8 8 11 13 15 17 21 24 27 31 35 38 42 43 44 46 46 48 49 52 55 56 55 53 48 44 41 38 36 34 33 33 32 30 28 26 27
18 18 18 18 18 20 21 20 18 15 14 14 13 12 10 9 9 10 12 15 17 20 23 27 30 32 36 38 42 44 44 45 46 47 48 51 54 55 55 53 49 45 42 40 36 34 33 32 30 29 28 27 28 28
18 19 20 20 21 21 19 17 15 14 13 12 11 10 9 10 12 15 18 20 23 26 29 31 34 37 40 43 44 44 45 45 46 48 50 54 54 54 54 50 46 43 40 37 35 33 32 31 30 28 28 28 28 29
18 19 20 20 20 19 18 17 15 14 13 12 12 12 12 14 17 20 23 26 29 31 33 36 39 41 43 44 43 44 45 46 48 50 53 53 54 54 51 47 44 41 37 35 33 33 32 30 29 29 29 29 30 31

GFSWCAN_500_spd_084.txt.gz
Wind_Speed
39 40 41 40 40 37 37 36 35 36 33 32 24 18 18 17 16 11 9 7 22 25 21 14 13 13 10 7 7 15 16 11 10 13 16 18 19 19 19 19 21 21 21 15 19 21 22 18 15 16 8 3 12 13
42 41 39 38 36 36 35 34 33 33 30 24 18 13 11 13 13 10 9 10 18 23 27 20 15 17 15 11 8 9 9 7 9 12 16 13 15 16 15 12 14 10 9 10 17 22 25 21 16 17 12 3 3 21
43 40 37 36 35 33 32 31 31 29 26 20 17 14 11 11 12 10 7 14 18 19 29 25 21 18 19 14 11 9 14 9 9 15 16 15 10 9 8 8 12 11 11 13 17 14 14 17 22 18 7 5 6 7
42 39 36 35 33 32 30 30 29 26 22 19 18 15 13 10 10 7 7 14 20 23 25 26 22 18 19 18 16 15 18 11 13 15 17 15 10 15 4 6 9 12 12 9 8 7 7 12 27 20 8 7 8 11
39 37 34 33 33 30 29 28 26 24 20 19 18 15 12 9 9 6 6 12 15 19 21 20 21 17 19 20 20 26 16 14 14 10 15 17 12 10 3 3 6 6 2 8 8 1 4 8 11 12 9 7 15 16
36 36 35 33 30 29 28 26 24 22 19 21 19 16 13 8 6 5 4 6 10 11 13 14 18 15 16 17 20 30 23 14 13 7 13 13 13 5 9 8 2 6 4 12 5 7 6 6 10 13 15 15 17 13
36 36 34 30 29 28 26 24 23 22 21 22 20 17 14 10 6 6 8 14 9 7 9 9 12 15 18 18 22 27 23 19 13 10 11 15 16 0 7 8 14 11 13 11 10 5 11 4 3 2 2 12 19 19
36 35 32 30 29 26 24 23 24 23 22 22 20 14 11 13 9 6 7 5 7 7 8 11 12 13 17 19 22 25 20 12 12 11 13 18 12 2 2 6 5 5 7 12 13 13 6 5 5 11 16 13 9 10
34 32 31 29 27 24 24 26 25 24 24 25 23 18 14 11 10 9 9 8 8 8 7 10 15 13 14 20 23 28 20 13 10 12 9 12 5 7 5 8 3 1 2 1 2 1 3 4 7 9 9 10 12 12
32 30 28 26 24 25 27 26 26 27 27 27 25 23 19 11 15 14 14 11 11 9 8 9 10 11 13 18 22 26 20 10 10 10 10 9 10 5 8 6 3 5 6 7 8 9 11 14 14 13 14 14 15 16
27 25 24 23 25 26 27 27 28 29 30 30 29 26 20 17 18 19 19 13 8 10 11 10 16 21 17 22 26 22 19 14 6 5 9 10 9 8 10 10 8 8 8 10 10 11 14 16 17 18 19 19 20 23
22 22 23 24 25 26 28 29 29 31 31 26 24 20 22 22 25 27 20 14 13 16 14 11 19 19 19 24 22 20 15 9 6 5 10 9 8 9 8 7 7 8 10 12 14 16 18 19 19 20 22 25 26 28
20 19 19 21 23 26 28 29 30 30 30 32 31 26 27 29 32 31 15 9 18 19 15 10 17 19 19 20 19 18 14 9 6 8 11 9 8 8 7 7 9 11 12 15 17 18 19 20 21 22 25 27 29 31
15 14 15 20 21 22 24 28 30 30 33 32 30 30 31 34 33 17 10 17 25 23 19 13 18 23 21 21 15 16 15 14 12 10 10 10 9 9 10 11 14 13 15 18 19 21 23 25 27 29 30 31 33 35
11 12 15 17 19 15 22 29 28 33 36 35 32 32 32 31 21 14 13 25 25 24 22 19 18 17 18 17 14 11 13 13 10 10 12 9 9 9 10 13 16 17 19 21 23 24 26 27 28 30 32 34 36 38
19 21 25 20 21 31 31 33 33 33 31 32 33 32 26 25 21 13 21 28 29 28 25 23 22 18 14 12 11 10 8 6 6 5 5 5 7 10 13 14 16 18 21 23 24 26 29 31 33 36 38 41 43 45
23 23 25 28 28 25 31 23 30 34 31 28 24 23 21 19 15 20 28 31 31 27 24 20 18 15 9 8 7 8 7 5 2 2 4 8 10 12 14 16 20 22 24 27 30 32 36 38 40 42 45 47 50 52
25 23 22 27 23 30 32 29 31 30 26 21 21 19 18 19 21 24 26 26 23 23 22 19 16 14 11 9 4 3 4 5 5 8 9 9 11 15 18 20 23 26 28 32 35 38 41 44 46 48 50 52 53 54
20 22 22 24 26 26 27 25 21 25 26 22 20 18 20 21 22 22 24 23 21 21 19 17 15 11 7 5 4 5 6 7 5 6 9 14 16 18 19 22 26 30 35 38 41 43 45 48 50 50 52 53 56 58
22 23 23 19 23 25 26 27 26 26 25 22 21 21 21 20 20 19 19 21 19 16 14 11 9 6 5 7 9 8 6 5 8 10 11 13 16 19 23 26 31 34 36 38 41 45 47 49 50 52 55 58 58 58
17 16 19 22 23 24 23 24 24 25 24 22 22 21 21 20 20 20 18 16 15 14 13 10 8 8 9 8 7 5 6 7 10 11 13 16 20 24 27 30 32 34 37 40 43 44 47 50 54 53 54 55 56 58
15 14 17 17 19 21 22 23 26 25 23 22 22 20 19 18 18 18 18 17 16 12 8 8 9 8 7 6 6 7 8 9 11 14 18 22 26 28 29 32 35 37 40 43 44 47 51 51 52 54 55 56 53 48
11 13 17 18 24 22 22 26 25 24 24 23 22 21 19 17 18 18 17 17 14 12 11 11 10 8 7 7 7 8 9 12 16 20 23 25 26 29 33 36 39 42 43 45 49 51 51 52 55 55 53 48 43 40
13 13 12 15 19 25 26 26 25 25 25 25 25 23 22 19 19 19 17 16 16 15 13 11 9 8 7 8 9 11 13 17 20 24 26 30 33 36 39 41 44 46 47 50 52 52 53 55 54 50 45 41 38 35
14 13 13 15 15 18 22 25 27 27 24 24 23 22 21 19 18 18 19 18 17 14 13 11 10 9 9 10 11 14 17 21 24 28 32 36 39 42 44 45 48 48 51 53 53 55 56 54 50 44 40 37 35 33
15 16 17 17 19 21 22 23 24 25 25 24 23 23 23 24 24 22 20 18 16 15 12 10 9 10 10 11 14 17 20 24 29 33 37 40 42 45 47 49 50 51 54 54 55 57 54 50 44 40 37 35 33 31
19 20 17 17 19 20 20 22 23 24 25 25 25 25 24 23 21 19 18 16 14 12 10 11 10 10 12 15 18 22 26 30 33 38 43 45 46 49 50 51 51 54 55 56 57 55 50 45 41 38 35 33 32 32
20 20 17 16 15 15 16 18 21 23 23 22 21 20 21 21 20 18 16 14 14 13 11 9 11 13 17 20 23 27 31 36 38 43 47 48 49 50 52 51 54 56 56 57 55 51 47 43 39 35 34 33 33 32
21 20 18 16 16 16 16 17 19 20 19 18 21 22 20 16 14 13 13 14 11 9 10 12 15 19 22 25 29 32 36 40 44 47 49 50 51 51 51 53 55 56 57 56 53 49 44 39 36 34 33 32 32 30
20 19 18 17 17 18 18 18 17 17 19 20 18 16 15 15 14 14 12 10 9 10 13 16 20 24 27 30 33 37 41 44 47 49 49 51 51 51 53 55 56 57 57 54 49 46 40 36 35 34 34 33 31 30
19 19 19 18 18 17 17 17 16 17 17 16 15 14 14 12 11 11 10 10 12 15 18 22 26 29 31 35 38 41 44 47 48 49 50 51 51 52 55 56 57 58 55 51 47 42 38 36 35 34 32 31 31 31
19 18 18 17 17 17 18 18 18 16 15 15 13 12 12 12 11 10 12 14 18 21 25 28 30 33 36 39 42 44 46 47 48 49 51 51 52 55 56 57 58 56 52 48 44 39 37 36 34 32 32 31 31 31
17 17 17 17 18 19 19 18 18 16 14 14 14 14 13 12 12 14 16 19 23 27 30 32 35 38 40 42 43 45 46 47 48 50 50 52 55 55 56 58 57 53 49 45 40 38 36 34 32 32 32 32 32 34

GFSWCAN_500_spd_087.txt.gz
Wind_Speed
35 36 37 39 39 38 33 30 30 30 30 30 30 29 26 20 18 19 18 11 13 27 21 12 7 3 1 4 4 3 4 5 4 9 13 17 15 13 10 11 13 16 16 18 19 20 13 10 8 7 9 14 15 18
34 33 35 34 35 33 30 28 28 27 28 28 27 25 20 17 16 17 14 9 5 32 23 19 12 5 6 5 4 3 2 4 5 1 8 11 13 14 13 12 13 15 18 16 16 10 5 7 9 7 12 5 3 5
35 34 32 30 28 27 26 27 28 27 26 25 23 21 17 16 15 16 13 9 8 12 34 23 18 8 8 9 6 2 4 4 5 3 10 9 9 8 8 9 11 17 14 10 7 4 6 9 11 12 17 7 4 4
38 35 34 33 31 30 28 28 26 26 25 22 20 17 16 14 13 13 12 10 9 8 17 34 25 15 15 13 11 5 9 7 6 5 8 11 8 7 11 5 9 12 8 8 6 3 7 10 12 21 20 11 2 8
41 37 35 33 31 32 30 28 27 25 22 19 18 16 16 13 10 11 10 7 8 11 12 17 24 22 20 15 12 13 19 6 5 2 9 13 6 10 1 3 9 8 5 5 4 6 4 1 9 19 19 12 9 10
41 38 36 33 31 32 32 31 26 24 20 18 16 17 16 13 9 10 8 4 6 7 11 13 16 20 18 15 14 21 19 11 7 3 9 11 6 5 6 3 9 7 3 10 8 1 4 2 4 3 8 5 9 14
39 38 36 34 32 33 33 29 25 22 18 17 17 18 17 14 11 9 7 5 3 4 5 8 10 14 14 11 13 26 20 14 8 3 8 11 8 5 7 13 10 8 10 15 7 3 4 4 3 4 3 3 6 11
37 37 37 37 34 34 31 28 24 20 18 19 19 19 17 14 14 8 4 3 7 5 7 7 8 9 14 13 13 25 22 16 10 7 7 10 7 1 5 5 8 9 6 5 7 10 5 5 3 2 4 4 5 7
36 37 36 36 34 32 30 26 22 20 21 22 21 19 16 12 13 9 6 4 5 6 7 9 11 9 8 12 15 17 24 19 10 7 6 8 8 8 6 8 7 8 7 5 5 5 5 7 3 5 7 6 7 8
36 36 35 33 32 29 27 23 22 23 25 24 22 21 16 13 15 13 10 6 5 5 7 9 11 14 11 14 15 17 18 11 8 7 8 8 11 5 6 8 5 3 3 4 3 2 4 5 7 10 11 12 12 13
35 33 32 32 29 26 24 23 25 27 28 26 24 23 18 16 16 17 15 8 6 3 9 8 8 10 11 15 18 24 19 10 7 7 10 10 8 5 6 8 5 3 3 4 5 6 9 11 12 13 15 17 18 20
32 31 30 28 27 25 25 27 29 29 25 22 22 21 21 20 21 22 19 10 5 4 7 5 13 16 13 19 24 24 18 11 8 10 12 12 9 7 7 7 5 5 5 6 8 10 13 14 17 18 20 22 24 25
29 27 26 26 25 26 28 30 29 27 26 24 23 23 23 25 26 25 14 3 3 9 8 14 18 14 16 21 20 18 16 10 4 5 11 12 10 9 10 9 8 7 9 11 13 14 15 18 19 21 24 25 27 29
25 24 24 25 27 28 28 28 28 28 26 26 26 27 27 28 26 15 9 9 11 16 10 11 18 14 20 20 19 17 15 9 8 4 7 11 12 11 10 10 11 11 12 12 13 15 17 19 23 25 26 27 28 30
23 23 24 24 24 25 26 28 29 28 27 28 28 32 33 28 16 13 13 8 18 20 17 11 16 19 16 15 11 8 8 8 7 8 11 12 10 9 9 10 11 12 13 15 18 21 23 24 26 28 30 32 35 37
20 19 19 22 25 26 28 30 30 30 31 29 25 26 24 21 18 19 10 11 20 22 17 15 20 14 8 12 10 10 6 7 6 7 8 8 10 10 11 11 11 13 16 20 22 24 26 29 33 35 38 41 44 46
20 21 25 23 21 22 23 26 30 25 32 30 24 17 20 20 23 17 13 18 21 21 20 19 18 18 13 10 8 8 9 10 9 9 11 11 8 7 8 11 15 19 20 22 25 29 32 36 39 43 46 48 50 53
20 17 21 29 30 26 34 33 39 32 31 27 22 22 20 22 20 18 16 22 21 22 22 21 19 16 10 6 6 5 9 10 8 7 6 5 5 8 12 15 18 20 24 27 31 34 38 41 43 44 47 49 51 54
26 25 25 25 37 35 33 33 34 29 21 22 22 21 18 18 18 20 22 23 23 24 23 20 15 11 9 8 8 7 6 6 5 4 3 7 11 13 14 17 21 25 28 32 36 37 38 40 43 46 49 51 54 56
26 28 27 27 29 27 26 28 28 27 23 20 19 16 18 21 21 21 23 24 23 22 21 17 13 12 11 10 8 6 4 5 4 6 8 9 12 15 19 22 27 31 33 35 37 40 42 44 47 49 52 53 53 54
21 23 25 28 24 24 20 22 22 22 23 20 17 18 21 22 22 22 23 23 20 17 16 14 13 12 9 6 5 7 7 6 6 8 10 13 16 19 24 28 30 31 34 37 40 43 45 47 50 52 52 53 54 54
20 19 20 23 25 21 24 23 24 24 22 20 19 20 20 20 20 20 20 20 19 16 13 11 10 8 8 9 9 7 6 6 8 10 13 16 21 25 28 29 32 35 37 40 44 47 48 51 53 52 53 54 55 54
15 17 20 23 25 25 24 24 25 24 22 21 21 21 19 19 19 19 18 17 14 13 12 11 10 11 11 8 7 7 7 8 10 13 17 22 24 27 32 35 38 41 44 46 49 49 52 53 52 54 54 55 52 47
12 12 16 18 19 20 21 23 24 24 22 21 20 19 17 16 16 15 15 15 15 13 10 11 13 10 8 8 7 8 8 10 14 19 22 26 29 34 38 40 42 45 47 49 51 53 54 53 54 55 54 51 46 43
14 14 13 16 22 21 20 22 22 20 19 18 18 16 15 14 12 13 13 13 12 12 15 14 12 10 8 7 8 8 11 16 19 22 26 29 33 38 43 46 46 48 50 51 53 54 54 55 56 55 52 48 43 39
12 11 10 13 16 22 23 22 21 20 20 21 20 19 17 16 15 14 14 14 15 17 14 11 8 8 8 8 9 13 17 20 23 27 31 34 38 42 46 48 48 51 52 53 55 55 55 57 56 53 49 44 39 36
14 14 15 15 17 19 23 24 25 25 25 23 22 22 21 19 17 18 17 18 16 15 12 10 10 8 7 10 15 18 20 24 27 31 35 39 42 46 49 50 51 53 54 56 56 56 58 57 54 51 45 40 37 35
16 14 15 16 19 21 22 23 23 23 23 24 23 22 20 19 19 19 18 16 15 14 13 10 7 8 12 16 19 21 24 28 32 36 40 43 46 49 50 51 53 54 56 56 57 58 59 56 52 47 41 38 36 35
16 15 16 16 16 17 18 20 22 23 23 22 21 21 20 21 19 17 16 16 15 12 10 9 10 14 16 19 22 25 29 33 37 40 44 46 49 50 51 53 53 56 56 57 59 60 57 53 49 43 39 37 36 34
18 15 14 13 14 16 19 21 23 23 22 21 20 20 19 18 16 14 14 13 11 10 11 12 15 18 21 24 27 30 34 38 41 45 47 49 50 50 52 53 54 56 57 59 61 59 55 50 45 41 38 36 34 33
18 17 17 18 18 19 20 20 19 18 17 18 19 18 16 14 13 12 11 11 11 11 13 15 19 23 25 28 31 35 40 42 46 48 50 50 50 51 53 55 56 57 59 60 60 56 51 47 42 39 38 35 33 33
19 20 20 19 19 19 19 18 17 17 19 18 17 14 12 12 12 11 12 12 12 14 17 21 24 27 29 33 37 42 45 47 49 50 50 50 51 52 55 56 56 58 60 61 57 52 48 45 41 39 38 36 35 35
19 20 19 18 17 17 16 17 18 18 17 16 16 15 14 13 13 14 14 15 17 20 23 26 29 32 35 39 44 46 48 50 51 50 49 51 51 54 55 56 58 60 61 58 53 49 46 43 41 40 39 38 37 38

GFSWCAN_500_spd_090.txt.gz
Wind_Speed
26 26 28 29 31 32 30 33 30 27 27 23 19 19 20 21 21 17 17 17 13 1 19 18 14 4 6 9 10 9 9 10 6 5 7 14 11 8 2 1 0 2 5 9 10 9 8 11 13 14 14 17 17 19
27 27 29 27 28 30 31 31 32 28 23 18 18 19 19 19 17 16 16 15 10 5 16 22 16 9 3 6 7 8 7 8 8 5 7 11 12 10 8 6 5 6 8 13 12 11 11 12 15 14 15 13 10 10
31 28 26 24 24 25 26 26 28 26 18 17 18 18 17 16 14 14 14 14 8 7 11 22 23 15 4 4 4 4 3 3 6 2 6 11 9 7 7 8 8 10 13 18 15 10 11 13 12 15 15 10 6 2
33 30 29 27 26 24 25 24 24 20 18 18 18 17 15 14 12 12 12 13 7 7 8 27 22 20 14 7 7 3 2 2 2 4 11 14 12 4 7 9 15 20 20 14 9 12 13 10 7 12 17 13 5 5
37 34 32 30 28 26 23 21 19 19 20 19 18 15 14 13 11 11 11 11 7 8 5 11 24 21 19 15 10 7 10 3 5 6 15 15 7 7 9 10 15 9 11 9 8 7 5 4 5 11 19 15 12 7
37 37 35 32 28 27 26 24 23 23 22 21 17 14 15 12 11 10 9 7 4 5 7 8 13 21 20 18 13 11 16 9 5 6 12 12 7 10 1 7 9 9 10 14 12 6 6 7 6 6 13 5 6 9
34 34 35 34 31 30 29 27 27 26 23 21 17 16 15 13 11 9 7 4 2 3 5 8 11 15 17 13 12 12 17 14 8 5 9 11 7 3 5 8 9 12 10 16 10 7 8 6 2 2 4 5 5 5
33 34 34 35 34 33 31 30 28 27 24 20 17 17 16 15 11 10 6 7 9 7 6 6 8 11 12 10 10 13 19 15 9 3 6 10 6 4 10 7 10 11 8 10 8 10 5 6 5 3 1 3 4 5
33 33 33 36 36 35 34 32 29 27 23 21 19 19 18 13 12 12 7 6 6 5 6 8 8 8 11 14 12 12 22 15 7 3 5 9 8 3 8 10 10 10 10 8 7 7 5 3 4 1 2 2 3 5
33 32 32 35 35 35 33 32 30 26 24 22 23 22 17 15 15 13 10 6 4 2 6 7 8 12 10 14 16 14 20 19 11 5 8 10 11 7 5 8 7 9 10 10 10 7 6 6 7 7 9 10 12 13
33 32 34 35 34 33 31 30 28 26 26 26 26 21 19 17 16 14 9 7 5 3 6 4 4 9 14 14 18 17 16 13 10 10 12 13 12 5 5 4 2 2 4 5 4 5 6 7 10 11 12 14 15 17
35 34 35 33 32 32 31 30 29 27 27 26 22 21 23 21 19 16 8 6 3 2 5 4 6 10 12 18 20 22 20 14 9 10 12 12 10 6 5 5 5 6 6 6 6 8 9 11 12 14 16 18 20 22
36 35 33 33 33 32 31 30 28 27 28 27 26 26 27 26 23 13 3 6 6 6 4 6 9 9 14 22 25 25 19 12 7 10 12 13 11 7 6 6 7 9 9 10 10 10 13 15 17 19 20 23 25 28
35 34 34 34 33 31 30 28 29 30 29 27 27 27 27 27 15 7 7 13 9 9 10 14 11 8 20 24 25 21 14 9 3 3 8 13 15 12 10 10 11 12 12 12 13 15 16 18 21 22 22 23 25 27
34 33 33 32 31 29 30 31 30 29 29 29 28 26 23 15 10 10 11 14 10 14 11 13 13 18 21 15 16 12 8 6 6 6 10 16 16 13 10 10 12 12 14 15 15 17 19 21 22 24 27 30 34 38
31 30 29 29 30 32 33 33 31 29 28 28 27 23 17 14 14 12 14 15 14 20 14 10 15 19 18 14 12 8 7 6 5 6 8 10 12 12 12 13 13 13 14 16 18 19 21 25 29 33 36 39 42 43
29 29 30 32 34 35 35 34 31 31 31 29 25 21 16 17 19 19 20 16 20 21 17 12 16 18 12 11 9 8 10 8 8 9 11 13 13 13 13 13 13 15 17 17 20 24 28 31 35 37 38 40 42 44
24 24 27 31 34 37 36 35 36 32 28 22 20 20 19 22 23 24 21 18 22 23 19 16 20 19 14 10 8 9 10 11 13 12 12 12 13 12 12 13 13 15 17 21 25 29 33 34 35 39 42 44 46 49
28 24 24 26 30 33 37 37 32 28 22 24 23 21 20 19 23 26 22 22 22 21 22 20 19 18 15 12 8 10 10 13 14 13 10 9 9 9 10 11 15 19 23 27 30 31 32 35 39 42 45 48 51 53
24 26 26 31 31 32 39 34 35 30 18 23 22 20 22 23 25 24 23 23 23 25 23 19 16 15 14 12 11 10 9 9 8 7 6 6 6 8 11 15 20 24 27 29 30 31 34 39 44 48 51 53 54 53
31 32 25 31 27 28 27 35 24 27 20 21 23 23 22 23 24 25 24 25 26 24 20 17 17 17 15 12 10 10 10 10 7 5 6 6 8 11 15 20 23 26 27 29 34 38 42 47 50 53 54 53 53 54
24 30 32 31 28 24 24 24 29 26 23 22 19 18 22 25 24 23 24 23 22 20 19 18 16 13 14 13 11 11 10 7 7 6 6 8 12 17 20 24 28 31 35 38 41 44 47 49 52 54 54 53 55 54
24 26 27 25 24 24 25 24 25 24 25 21 18 22 24 23 21 22 21 22 21 19 16 15 15 14 12 12 12 10 8 6 6 7 10 14 18 22 25 28 31 35 39 42 43 46 49 51 54 54 54 55 56 57
20 20 24 25 20 21 23 23 24 23 22 21 20 21 21 20 21 21 20 20 19 17 17 16 14 14 13 12 10 8 6 6 8 11 15 19 23 26 30 33 36 40 43 45 46 49 51 54 55 55 55 56 57 56
14 16 18 22 21 22 21 22 23 22 20 20 20 21 20 20 20 20 19 18 18 17 16 14 15 15 12 11 9 7 7 9 12 16 21 24 28 31 35 38 41 44 47 48 50 51 53 55 55 56 57 58 56 51
12 12 17 21 21 22 22 22 23 22 21 21 20 20 20 19 20 19 17 16 16 16 16 16 15 12 10 8 7 8 10 13 17 21 25 28 32 36 39 43 46 49 50 51 52 53 55 56 57 58 59 57 53 47
13 13 14 18 20 20 21 23 23 23 21 21 20 19 18 18 17 16 16 15 16 15 16 15 14 11 9 9 9 11 14 18 22 25 29 32 36 40 44 47 50 52 51 53 54 56 57 57 58 59 59 55 49 44
13 12 13 16 19 22 25 25 25 24 23 22 21 20 18 15 14 15 16 16 17 16 15 15 12 11 11 11 12 15 19 22 25 29 33 37 40 44 48 50 52 52 53 55 56 58 58 59 60 60 57 52 47 42
15 16 14 15 17 20 23 24 24 23 22 21 19 17 16 17 17 17 18 18 17 16 15 13 12 12 12 13 16 20 23 26 30 33 37 42 45 48 52 53 52 52 54 56 59 59 60 61 61 59 54 49 45 42
15 16 16 17 18 19 21 22 23 23 23 22 21 21 21 20 19 17 17 16 15 13 12 12 13 14 15 18 21 23 26 30 34 38 42 46 48 52 54 53 52 54 56 58 59 60 62 62 60 55 51 47 44 42
15 15 15 15 16 17 19 21 22 22 22 22 22 21 19 18 16 15 14 14 14 14 15 15 16 18 21 23 24 27 32 35 39 43 47 49 51 54 53 52 53 56 58 59 60 62 63 61 56 52 49 47 44 42
16 15 15 15 17 18 19 21 21 21 21 20 19 19 19 18 16 15 15 15 16 16 16 18 21 23 24 26 29 33 36 40 44 47 50 52 53 52 51 53 55 57 58 60 62 64 62 57 53 50 48 46 44 43
18 18 19 19 19 21 21 22 21 20 20 21 21 19 18 17 16 17 17 16 17 18 20 23 23 25 28 32 35 37 42 45 48 50 52 52 51 50 52 54 56 57 59 62 63 62 57 53 51 49 47 45 44 44

GFSWCAN_500_spd_093.txt.gz
Wind_Speed
26 26 25 27 29 34 34 36 32 28 27 25 19 18 16 14 15 14 16 14 13 13 7 17 12 7 1 3 7 6 9 8 5 8 11 12 10 11 12 10 9 11 12 7 6 2 5 9 11 12 14 16 17 18
25 23 22 23 27 31 35 37 30 27 26 23 22 18 15 14 14 14 13 12 13 12 8 19 18 11 5 4 5 4 6 8 6 7 10 13 11 9 8 4 5 4 5 2 3 6 11 13 13 14 16 17 15 13
26 27 25 24 24 26 26 25 23 23 21 22 17 17 14 13 13 13 11 12 13 9 9 23 20 17 11 2 3 3 3 5 7 6 10 14 12 9 10 9 5 3 2 5 9 14 16 16 15 15 17 17 12 8
27 27 26 25 25 25 24 24 23 21 21 20 20 16 14 13 12 10 10 11 13 9 10 16 28 22 16 12 3 3 4 2 3 5 14 14 7 10 10 10 9 7 8 10 12 17 23 21 15 16 17 15 10 5
32 30 28 27 26 24 23 23 22 21 20 21 18 15 14 12 10 10 9 10 10 7 9 10 21 27 23 17 10 4 6 2 5 6 20 15 6 9 8 9 12 11 8 11 10 14 17 17 15 13 12 13 12 7
37 35 32 30 28 26 24 22 22 22 24 21 17 15 14 11 10 10 8 7 6 5 7 8 11 22 22 23 14 9 9 7 4 8 14 13 3 8 3 7 10 11 11 11 13 11 9 6 7 7 12 11 9 10
41 39 36 33 30 28 27 27 26 25 23 20 18 16 14 12 11 9 8 5 5 3 4 7 7 12 15 17 15 12 11 12 7 6 11 10 3 7 1 4 8 11 14 18 15 10 10 7 6 4 8 10 7 6
39 39 39 38 34 33 31 29 28 27 24 22 19 16 15 13 12 11 7 7 8 7 3 2 4 8 12 13 11 11 11 15 10 5 8 10 8 1 8 7 9 10 13 20 13 8 6 6 5 4 3 2 3 4
37 36 37 38 37 36 34 32 30 29 26 23 20 19 17 14 15 13 9 6 7 9 6 5 4 4 8 10 9 10 13 14 10 5 6 10 8 2 7 9 8 10 9 11 13 10 8 4 2 3 3 3 4 5
35 36 35 35 37 37 36 35 33 31 28 25 23 21 18 15 16 12 11 8 8 8 6 6 6 7 7 10 10 10 14 15 9 5 7 9 9 2 7 10 7 11 12 10 10 9 7 6 5 6 7 9 11 13
34 34 34 35 37 39 38 36 33 30 30 28 25 22 19 19 18 15 13 9 10 7 6 4 7 10 12 10 13 13 15 14 11 6 9 9 10 4 4 7 6 5 7 7 7 6 7 8 9 10 12 14 15 17
35 34 34 34 37 38 35 32 31 29 28 26 25 22 20 22 20 16 12 10 8 8 7 6 8 10 13 16 16 17 15 14 11 11 12 11 10 5 4 2 1 2 3 4 5 6 8 9 11 13 15 17 19 21
35 35 35 34 37 36 33 32 31 31 28 26 26 27 29 27 21 13 7 8 11 9 6 5 3 7 13 18 21 21 18 14 11 10 11 14 12 8 5 3 3 4 4 6 9 10 11 13 15 17 20 22 24 26
36 36 35 36 36 34 34 34 34 30 29 28 30 32 29 26 18 10 10 13 12 8 6 6 5 5 9 20 23 23 18 14 9 9 10 14 15 11 8 6 7 8 9 10 12 14 16 17 18 19 19 20 22 25
36 35 36 36 35 36 37 35 32 31 36 36 31 27 24 17 15 13 12 12 12 9 9 10 7 7 14 19 25 20 15 11 5 7 10 14 15 12 10 9 10 10 12 15 16 16 17 18 16 18 22 27 30 32
36 37 37 37 37 37 36 33 33 35 37 40 34 23 19 19 15 15 15 14 13 11 11 9 9 15 19 15 18 14 10 7 6 7 11 14 15 15 15 14 14 15 16 16 16 16 15 17 22 26 27 29 32 36
36 36 36 37 37 35 33 35 37 37 36 33 25 21 20 18 20 18 14 17 15 16 14 11 13 19 17 14 13 10 10 9 8 9 12 13 15 17 17 17 16 14 15 16 15 17 21 24 25 25 27 32 36 41
37 37 36 36 35 35 39 39 35 35 32 25 22 20 20 22 24 24 18 17 16 21 18 14 16 20 17 14 12 10 9 9 10 12 11 12 14 15 15 13 13 15 14 15 18 23 25 26 26 28 32 37 41 45
30 30 31 34 36 39 40 39 35 29 24 21 21 21 21 23 25 23 20 21 19 22 23 19 22 22 18 15 12 9 9 9 11 12 13 12 13 12 10 12 12 13 15 20 23 25 25 28 32 36 41 45 49 52
32 32 34 36 37 36 36 37 34 28 27 24 23 23 24 24 24 23 21 22 21 25 25 22 21 20 20 17 14 11 9 12 13 13 11 9 8 9 9 10 12 16 19 23 26 27 30 34 38 42 46 48 51 53
26 28 33 37 38 37 36 35 29 25 27 24 22 26 27 27 25 24 23 23 25 26 24 21 19 17 15 14 13 13 14 12 11 11 10 8 8 9 10 13 17 21 26 29 32 35 37 40 42 46 48 50 53 55
22 24 30 30 32 37 35 31 31 28 19 21 26 28 30 28 26 25 26 24 25 24 23 21 19 16 15 15 15 13 12 12 12 10 9 9 9 11 15 19 23 27 30 34 37 40 43 45 47 49 51 54 56 57
23 27 27 27 22 27 26 33 28 28 28 23 23 25 25 26 25 26 25 25 24 24 23 20 17 16 14 13 13 13 14 12 10 10 10 10 12 16 20 24 28 32 35 39 42 44 47 49 51 52 54 58 58 59
30 29 27 27 25 20 19 24 25 24 24 22 21 18 21 23 25 24 24 24 23 22 19 17 15 14 15 15 14 14 11 11 12 11 11 13 16 20 25 28 32 36 40 43 46 48 50 52 53 55 58 59 60 60
24 25 27 24 23 23 23 22 22 23 22 20 17 19 23 25 24 24 23 22 21 19 18 17 17 16 15 14 14 13 13 12 12 12 14 17 21 25 28 32 36 40 44 47 49 52 52 54 56 58 60 61 62 62
24 22 23 24 20 21 22 22 22 22 21 20 21 24 25 25 24 23 21 20 19 19 18 17 16 16 17 15 13 13 13 14 13 14 17 21 24 28 32 36 40 44 48 50 53 53 54 56 58 60 61 63 63 64
15 16 18 20 22 23 24 24 24 23 21 21 22 23 23 23 22 20 20 19 19 19 19 18 17 17 15 14 14 15 14 14 16 19 21 24 28 33 37 41 44 47 51 54 55 55 56 58 60 62 63 64 65 63
13 15 18 20 21 23 25 25 24 24 23 22 22 22 21 18 16 19 19 18 18 18 18 18 17 16 16 16 16 16 16 18 20 22 24 28 33 37 41 45 48 51 54 56 56 56 58 60 62 63 64 66 65 60
15 15 17 19 22 23 24 24 24 23 22 22 20 19 17 17 18 18 17 18 19 18 19 17 17 15 15 16 16 18 19 22 23 25 29 34 38 41 45 48 52 55 57 57 57 58 60 62 63 65 67 66 62 56
15 14 17 20 21 23 24 24 23 23 23 23 22 21 19 19 19 18 18 18 18 19 18 16 15 15 17 18 20 22 23 24 27 30 35 39 42 46 49 52 56 57 57 57 58 60 61 63 65 67 67 63 58 54
17 17 16 19 20 23 25 25 25 25 24 23 22 20 20 19 18 17 18 19 18 17 16 17 19 20 21 21 23 24 26 29 32 36 39 43 45 49 53 55 57 56 56 57 59 61 63 64 67 67 63 58 54 51
17 17 17 17 18 19 21 23 24 23 23 22 22 21 21 19 19 19 19 19 18 18 19 20 21 22 23 24 25 27 30 34 37 40 44 46 50 53 55 56 55 56 57 59 61 62 64 67 67 64 59 55 52 51
17 17 18 19 19 19 20 20 21 21 22 22 22 22 21 21 21 21 20 19 19 20 21 23 24 24 24 26 29 32 35 38 41 45 47 51 53 54 55 54 54 56 58 60 61 63 66 67 63 59 55 53 53 53

GFSWCAN_500_spd_096.txt.gz
Wind_Speed
25 25 27 28 29 26 25 25 32 31 31 28 22 20 16 14 13 12 11 10 10 10 11 10 10 8 8 7 6 4 3 3 9 5 11 11 13 16 13 15 19 23 16 15 15 10 7 1 4 7 9 12 12 14
23 24 25 25 26 25 27 29 29 33 34 27 25 20 17 15 13 11 11 10 10 10 9 11 14 12 7 5 3 5 3 4 5 8 11 12 12 13 6 11 12 8 14 11 11 7 6 6 7 11 13 14 12 12
23 23 24 22 24 24 28 29 30 34 33 26 22 19 18 16 12 10 10 10 9 10 9 11 17 19 12 5 4 2 2 2 2 11 15 16 12 11 6 11 9 5 4 4 4 6 9 12 15 16 17 16 13 10
23 24 24 24 24 24 26 29 32 34 28 24 21 19 17 16 11 10 10 9 9 11 9 12 17 21 20 14 5 2 1 2 2 8 16 17 11 11 10 8 8 6 5 4 6 10 12 15 15 16 18 15 11 10
25 24 26 27 26 25 26 27 28 27 24 22 21 19 18 14 10 11 9 8 9 9 8 9 11 20 25 19 16 8 4 2 4 5 14 14 6 6 9 10 10 10 8 6 8 9 9 9 11 13 16 14 10 12
27 26 26 27 27 27 26 25 25 25 24 23 20 19 16 12 10 11 8 7 7 6 5 7 8 11 22 28 22 15 7 6 6 7 17 13 3 9 7 11 11 12 11 13 9 7 6 9 9 10 12 11 12 12
32 30 28 27 26 26 26 27 27 27 26 22 22 19 16 15 12 11 7 7 5 2 3 3 5 6 8 18 25 21 14 10 9 6 11 15 5 6 7 5 7 11 13 13 13 9 4 8 8 8 8 10 8 7
37 35 32 29 28 27 27 26 26 26 26 26 23 20 17 15 11 11 10 7 6 6 2 2 2 1 5 6 9 13 14 12 10 4 6 11 8 2 1 2 6 8 10 15 15 7 7 9 6 5 4 4 5 6
40 40 37 35 31 30 30 28 28 27 27 26 23 20 17 14 13 13 11 9 7 8 6 4 2 4 6 7 9 9 10 14 11 5 5 6 9 2 4 6 5 7 10 15 13 8 8 5 2 1 2 4 6 7
41 41 42 39 36 34 33 31 31 30 28 27 24 21 17 14 15 12 10 9 7 6 7 6 6 7 5 6 8 8 10 14 10 4 4 5 8 4 4 6 5 5 5 9 11 10 6 4 5 4 7 9 10 11
40 41 42 43 42 39 37 34 33 31 30 27 25 22 17 16 12 13 10 10 8 7 7 6 7 9 8 7 9 9 13 16 11 7 6 6 5 1 4 7 5 9 9 7 6 4 4 5 7 8 10 11 13 15
38 39 39 41 42 40 37 35 33 30 27 25 24 22 19 20 20 14 11 11 9 8 8 7 7 7 11 12 11 11 14 16 14 7 8 7 6 3 2 8 7 6 6 4 3 2 4 7 9 12 14 16 18 20
36 36 36 37 39 39 38 35 31 29 27 26 25 23 22 23 19 12 10 10 12 12 9 8 6 7 15 15 17 16 15 14 11 8 8 10 9 6 3 2 4 4 3 1 2 6 8 11 13 15 16 17 16 16
34 34 33 35 36 37 37 33 31 31 30 28 27 26 25 22 14 12 13 14 13 10 8 6 3 3 9 16 20 18 17 14 10 8 10 11 13 10 6 3 1 2 3 4 6 10 13 13 14 15 13 13 16 18
35 34 34 33 34 36 35 34 34 34 33 32 30 27 26 16 15 16 14 13 13 10 8 6 5 4 4 13 20 20 16 13 9 11 9 12 15 12 9 6 5 5 6 9 13 15 16 15 14 14 15 18 20 22
34 34 34 33 34 36 35 36 36 36 33 32 31 22 20 23 17 17 18 14 11 11 8 8 6 5 11 11 17 19 15 13 9 10 11 13 16 15 13 10 9 10 12 15 15 16 15 15 17 18 20 23 25 28
33 31 31 33 35 36 36 37 37 37 37 38 33 23 21 19 20 17 15 15 14 11 10 7 8 14 13 13 16 15 12 9 7 7 8 12 14 16 15 14 13 14 17 16 16 16 17 18 20 23 25 27 30 34
30 31 33 36 37 36 37 38 37 37 38 37 32 24 17 18 19 20 19 16 15 13 15 11 14 18 16 15 14 11 8 8 9 10 9 10 13 14 15 15 16 16 16 17 17 18 20 23 26 29 32 35 37 40
32 34 36 36 35 37 37 37 37 38 37 27 27 24 20 20 21 24 22 18 15 15 20 17 16 19 18 14 12 10 7 8 8 9 11 13 12 12 13 14 15 16 17 18 19 20 24 28 32 35 38 41 43 46
33 33 32 33 35 35 35 36 35 31 29 26 23 20 20 22 24 25 23 20 19 18 20 19 16 20 20 18 14 13 11 10 10 9 8 10 11 12 12 13 14 15 17 18 22 27 30 34 38 41 44 46 49 52
31 31 33 33 33 33 33 32 32 28 24 24 20 22 22 25 25 23 20 20 21 20 19 21 20 21 22 20 18 16 14 12 12 11 10 12 12 12 13 13 14 16 19 23 28 32 35 39 42 46 48 49 52 54
24 24 25 28 28 29 28 28 25 22 20 18 19 21 23 25 25 24 21 21 19 19 19 24 22 21 20 19 16 15 15 15 12 12 13 12 13 13 12 14 17 20 24 29 33 36 40 44 47 49 51 52 54 56
28 26 24 27 31 30 27 27 25 25 22 20 23 25 26 28 27 25 23 18 18 20 22 23 23 20 18 16 16 17 15 13 12 13 13 14 13 14 15 17 20 24 28 33 36 40 44 47 50 52 53 55 57 59
25 27 26 27 28 28 30 29 25 25 24 24 22 24 24 24 25 26 20 18 18 23 23 23 20 18 16 17 15 14 13 13 14 15 15 15 15 16 17 20 24 28 32 36 40 44 48 51 54 56 57 58 59 61
26 28 27 23 21 20 23 24 26 26 27 28 25 21 25 26 25 23 18 20 24 22 22 21 19 18 16 15 14 14 14 15 15 16 16 16 17 18 21 24 28 32 36 40 44 48 51 55 58 59 60 61 62 64
28 26 24 22 17 21 17 19 21 24 24 24 24 22 23 25 25 24 21 22 21 21 21 20 19 17 15 15 15 14 15 15 17 17 17 19 20 22 25 28 33 37 40 44 49 53 56 59 62 62 62 63 65 67
26 25 21 20 19 18 20 21 21 21 22 24 24 22 22 24 24 22 23 23 21 20 19 18 17 16 15 15 15 16 17 18 18 18 20 22 23 25 29 33 37 42 45 49 53 57 60 63 64 64 64 66 67 68
26 27 25 25 27 25 21 21 22 23 22 20 21 22 23 23 20 21 22 20 19 20 19 20 19 18 18 19 19 18 18 19 19 21 23 24 26 30 34 37 42 46 50 53 57 60 64 64 64 65 66 68 69 70
16 19 20 21 24 26 26 26 23 21 21 20 21 20 18 18 21 23 22 20 19 19 19 18 19 19 18 19 18 18 19 19 21 24 25 27 30 34 38 42 46 50 53 58 61 63 64 64 64 66 68 69 70 72
17 17 17 18 21 23 25 24 23 23 21 21 20 20 21 22 22 20 19 19 18 18 19 19 18 18 19 18 19 20 21 24 26 26 28 31 35 39 43 46 51 54 58 61 63 63 63 64 66 68 69 70 72 71
17 17 17 18 20 23 23 24 23 23 24 23 22 20 21 21 19 19 19 19 19 20 19 18 19 20 20 20 22 24 26 26 26 29 32 35 39 43 47 51 55 58 62 63 62 62 63 65 67 69 69 71 71 66
19 18 18 21 22 23 24 25 24 24 24 23 22 22 21 21 20 20 20 20 20 20 20 20 21 22 23 24 25 26 26 27 30 33 37 40 43 47 51 55 58 61 61 60 60 62 64 67 68 69 71 70 65 61
20 19 19 20 20 22 24 25 26 26 25 24 24 23 22 22 22 21 21 20 20 21 22 23 23 23 24 25 26 26 28 31 34 37 40 43 47 50 55 58 60 58 57 59 60 63 65 67 68 70 68 63 59 57

GFSWCAN_500_spd_099.txt.gz
Wind_Speed
31 32 32 31 30 30 27 26 24 25 28 28 29 27 23 19 13 12 10 9 8 8 9 10 9 7 7 9 4 3 4 5 10 5 9 14 13 11 7 13 20 22 19 14 9 9 9 9 6 2 2 5 8 11
28 30 30 28 31 30 26 24 25 33 29 29 29 27 22 16 12 11 10 8 8 9 10 9 9 8 8 9 8 6 3 5 8 9 10 13 5 10 5 13 11 19 15 15 13 11 12 10 6 3 3 7 10 13
25 25 25 28 29 28 27 26 25 33 29 29 29 28 21 14 12 12 10 8 8 9 9 9 9 10 13 9 6 4 7 5 2 11 11 15 11 5 11 13 17 17 15 12 9 5 5 3 3 7 8 7 10 12
21 23 25 27 28 27 25 22 26 28 33 32 32 23 17 15 14 13 9 8 8 8 9 8 8 9 16 13 9 7 4 6 4 9 13 16 13 10 10 13 10 8 8 5 2 5 2 7 10 10 7 5 5 9
20 23 24 25 26 25 24 25 25 27 29 32 25 22 18 16 14 12 8 7 7 7 6 6 5 9 11 20 15 9 6 4 6 5 10 16 15 11 13 10 9 9 8 6 3 7 11 11 6 6 6 6 4 6
21 22 23 25 24 23 25 25 26 29 31 26 23 22 20 17 13 11 9 6 5 4 3 5 4 4 10 18 20 18 7 5 6 7 7 13 10 10 11 13 13 12 13 11 9 10 11 7 4 5 6 5 5 6
24 22 20 25 27 24 23 26 27 28 27 26 25 23 19 16 13 11 8 6 5 4 0 3 2 2 0 5 17 20 14 9 6 8 7 17 6 8 6 9 15 17 17 18 15 11 8 6 4 2 3 4 4 3
26 25 24 23 24 26 24 23 24 25 27 26 25 21 19 16 13 10 9 8 6 7 4 1 4 2 2 2 7 17 16 14 10 7 6 10 12 4 4 4 11 13 13 12 9 10 6 4 4 4 1 1 2 3
28 28 27 26 23 24 25 26 26 27 26 26 22 22 19 16 14 11 9 8 7 7 8 3 0 3 0 3 5 8 10 11 11 7 5 5 11 2 2 4 5 8 11 13 12 7 5 5 2 5 6 6 6 7
31 32 31 28 27 26 25 26 27 26 25 24 23 22 19 17 14 11 10 9 7 6 8 5 4 6 4 2 5 5 7 10 14 6 6 6 6 1 3 5 5 6 8 10 10 7 6 3 4 5 5 5 7 9
35 35 35 32 30 27 27 26 26 26 25 24 24 22 18 16 15 12 12 9 7 5 5 4 3 4 7 5 7 6 7 15 13 7 5 5 3 7 6 5 6 7 7 9 9 7 3 3 2 4 8 10 12 13
38 38 37 36 34 32 30 28 26 25 23 22 22 21 20 19 18 14 12 9 8 6 5 4 4 4 8 8 9 8 10 16 14 7 6 6 4 6 7 9 9 9 9 9 7 5 4 4 7 9 11 12 12 11
37 39 38 38 38 35 32 29 28 26 26 25 24 22 21 21 16 9 7 9 10 8 6 5 6 6 9 13 13 12 12 16 12 7 7 7 7 5 8 9 10 10 9 8 5 4 5 7 9 11 10 10 9 11
35 36 37 37 38 38 35 31 30 28 27 26 26 24 22 19 11 9 10 13 10 7 7 6 5 4 5 13 15 15 14 16 12 9 6 6 8 7 5 6 5 6 6 5 4 5 7 8 10 10 9 10 12 13
32 32 33 34 36 37 36 33 30 29 27 28 27 25 20 14 16 13 12 12 11 9 6 6 4 3 5 9 15 17 16 16 13 9 6 7 8 10 7 6 2 3 3 3 5 8 8 13 12 12 14 15 17 21
30 30 30 31 33 35 35 33 30 30 30 29 27 23 20 20 17 14 13 14 11 7 7 6 5 3 5 7 11 16 14 14 9 8 10 8 8 13 11 8 5 3 4 6 10 13 18 16 15 17 18 20 24 28
28 27 28 28 30 31 32 33 32 32 33 30 28 25 20 23 18 16 13 17 13 9 8 7 6 8 9 8 12 15 13 10 7 6 8 10 11 12 14 12 10 8 8 10 14 18 17 17 19 19 22 26 30 34
27 26 26 27 27 29 33 34 33 34 34 32 30 23 21 20 20 18 18 18 14 10 10 12 9 13 12 9 10 13 10 8 8 7 7 8 10 12 14 13 13 11 11 15 18 18 19 21 22 25 30 33 37 41
27 27 27 27 28 30 32 33 34 35 34 31 30 22 19 15 15 17 19 18 13 11 13 16 13 14 16 12 10 14 10 8 7 7 7 8 10 10 11 12 12 12 16 17 18 19 21 23 26 31 35 39 41 45
27 26 27 29 31 33 34 34 34 33 32 31 31 27 22 17 14 18 19 17 15 13 12 16 15 16 20 17 14 13 12 8 7 7 8 9 10 11 11 13 14 16 17 17 19 21 23 28 32 36 40 44 47 50
26 28 30 32 32 32 32 32 30 29 26 28 26 27 26 22 20 20 20 18 16 15 15 16 21 19 21 19 18 14 13 12 12 11 10 10 12 12 13 14 15 16 17 20 21 23 27 32 36 40 44 48 51 54
26 27 27 27 28 28 27 26 25 24 24 26 22 20 20 19 19 21 22 20 14 14 15 16 21 21 20 21 19 16 14 14 14 13 10 11 13 13 13 14 16 18 19 20 24 28 32 36 40 44 48 52 55 59
23 23 23 24 24 25 24 21 22 25 25 23 21 19 17 17 19 22 22 16 10 12 15 16 20 21 21 20 18 15 14 15 17 14 12 13 13 14 15 16 17 18 21 24 26 31 36 40 44 48 53 57 61 64
19 18 18 20 19 21 21 23 23 22 21 19 16 16 18 20 20 22 19 13 13 16 17 18 21 22 20 18 16 15 16 17 16 14 15 15 15 16 16 17 20 22 24 28 31 36 40 44 49 54 58 62 65 68
18 18 17 16 16 17 18 18 19 19 18 18 20 21 19 21 24 21 18 14 16 18 19 19 20 20 18 16 16 16 16 16 15 16 16 16 16 16 18 21 23 25 27 31 36 40 45 50 54 58 62 66 69 70
20 19 19 16 13 17 16 18 23 22 22 22 22 23 19 20 22 25 19 15 19 17 17 19 20 18 16 16 17 15 15 16 16 16 17 17 18 19 21 24 27 29 31 35 40 45 49 54 58 62 66 69 70 70
19 18 21 18 17 16 17 18 20 20 20 20 19 21 24 25 22 17 16 19 17 18 18 18 18 17 17 18 15 15 17 17 17 18 18 18 19 22 24 26 29 32 36 40 45 49 54 59 62 66 70 70 70 71
21 20 19 17 19 17 16 17 20 20 20 20 20 22 22 21 17 16 20 20 19 19 19 18 18 17 18 19 16 16 17 19 19 19 19 21 23 25 27 29 32 36 40 45 49 54 59 63 66 69 69 69 71 73
20 19 20 22 23 21 18 18 19 18 18 18 19 20 20 18 18 21 22 21 20 19 18 18 18 19 19 17 18 18 18 19 20 20 22 24 26 28 30 32 35 40 44 49 53 58 62 66 69 68 68 70 72 76
21 21 25 25 25 25 23 26 26 24 21 19 19 19 18 19 21 23 22 20 19 19 19 19 19 19 18 18 18 19 20 21 23 25 27 27 28 30 32 36 40 44 49 53 56 60 65 68 66 67 69 71 75 75
19 19 20 21 20 21 22 23 24 23 22 20 18 19 20 21 22 21 19 18 18 19 19 19 19 19 19 19 19 20 22 25 27 27 28 29 31 33 36 40 44 48 52 57 60 63 66 65 66 67 70 73 74 76
19 18 18 18 18 19 19 19 21 20 20 19 20 21 20 19 19 19 18 18 18 19 20 20 20 20 21 21 21 23 25 27 28 28 29 31 34 37 40 44 48 51 56 59 62 64 63 64 66 69 72 73 74 67
19 19 18 18 17 17 18 19 20 20 19 20 20 20 19 19 20 20 20 20 20 21 22 23 22 20 21 22 24 25 26 27 28 29 32 35 38 40 43 47 50 55 57 61 62 61 63 64 68 70 72 72 64 55

GFSWCAN_500_spd_102.txt.gz
Wind_Speed
28 27 26 23 23 26 27 25 27 29 31 28 28 25 25 25 22 18 15 13 11 9 6 6 7 6 6 8 7 1 3 11 10 6 8 11 8 9 7 18 18 15 11 8 2 6 8 8 6 6 4 2 1 3
28 28 27 26 28 28 27 26 26 26 30 29 25 25 26 24 18 17 14 13 11 7 6 7 7 8 6 9 12 8 4 3 15 10 11 9 9 10 3 13 13 16 15 9 9 8 10 10 8 5 1 3 5 8
26 25 26 26 29 31 29 27 25 23 29 27 26 28 28 22 19 18 14 12 9 7 6 6 6 7 8 8 9 9 10 7 3 13 13 11 8 5 14 14 16 16 16 18 16 13 10 7 4 2 5 7 10 13
22 23 26 28 28 33 33 29 26 23 25 23 25 28 27 22 19 16 14 12 9 7 5 6 6 9 10 10 9 8 8 9 7 7 14 14 11 8 18 17 16 18 18 15 13 12 8 4 3 5 6 9 10 11
21 22 24 28 29 31 34 31 26 29 25 27 27 26 24 19 17 16 13 11 8 6 5 5 6 8 9 13 16 13 10 7 7 3 8 14 14 12 14 15 14 13 10 9 6 4 2 8 8 7 6 8 9 8
18 20 23 26 28 29 31 32 27 30 30 28 27 23 21 18 17 15 13 10 7 5 4 3 4 5 8 12 20 17 14 7 5 4 3 10 14 15 13 14 13 13 10 4 4 3 7 9 9 10 7 5 4 4
18 19 23 27 28 29 29 30 30 29 28 27 24 23 21 19 17 14 12 10 7 6 4 2 2 3 4 8 18 24 18 9 3 5 3 8 13 15 13 16 15 12 10 8 9 9 11 11 8 4 2 1 2 2
19 19 18 22 27 27 27 28 27 25 26 24 22 23 21 19 18 14 12 9 8 8 7 2 2 2 1 1 9 20 21 12 7 6 4 8 13 13 10 11 15 16 16 18 19 17 13 6 4 4 2 3 3 3
22 20 18 19 23 26 26 24 24 24 23 23 24 23 22 22 18 14 12 10 10 9 9 5 1 2 1 2 4 12 17 13 9 7 5 5 12 8 8 9 11 16 18 18 16 14 9 5 5 8 7 6 5 4
23 21 20 20 21 24 25 25 24 24 25 25 24 24 25 20 16 14 12 10 9 8 9 8 4 3 2 2 7 9 11 10 10 9 7 8 9 8 8 4 6 8 12 15 14 10 8 13 12 8 6 4 3 3
26 24 21 21 20 22 24 25 25 24 23 22 24 23 22 19 17 14 11 10 9 7 7 9 6 3 2 3 7 5 8 10 15 9 7 6 9 8 8 5 7 11 14 15 14 9 9 10 7 5 3 2 4 6
27 26 25 24 23 22 22 23 22 22 24 25 23 24 23 20 17 12 11 10 10 8 8 7 5 4 5 6 7 8 8 15 15 10 8 8 10 8 8 8 10 11 12 12 12 11 8 6 4 3 4 5 5 5
30 30 28 27 25 24 24 23 24 24 25 27 27 25 22 18 13 11 12 12 11 10 7 5 3 3 5 8 9 10 10 16 15 9 10 10 10 9 9 12 12 13 15 15 12 10 8 6 5 4 5 7 7 9
33 32 31 30 29 27 25 24 23 23 24 25 24 22 20 17 14 16 17 12 11 9 7 4 3 3 4 8 13 14 13 18 16 10 10 10 10 12 11 11 11 11 10 10 9 8 4 4 5 5 6 8 11 14
32 33 33 33 32 31 29 26 26 25 24 24 23 22 19 16 18 17 15 13 12 9 5 3 3 4 5 6 13 16 15 17 15 13 10 11 12 11 10 11 9 9 8 7 6 5 5 6 6 7 10 14 16 17
30 31 33 34 34 33 32 30 28 27 26 25 22 19 19 19 19 17 16 13 10 6 4 5 5 4 5 7 11 16 15 17 15 10 8 8 11 13 11 10 10 8 5 4 1 3 6 9 10 12 16 18 20 23
27 27 29 31 33 34 34 32 30 28 27 25 21 20 21 23 20 19 17 14 13 8 6 7 7 5 4 5 8 16 17 16 12 10 9 8 8 9 13 11 10 7 5 5 5 7 10 14 15 17 20 22 26 30
26 26 26 28 29 32 33 33 32 31 28 24 21 23 24 25 24 23 20 13 13 11 8 9 8 8 10 6 10 16 15 14 12 8 8 8 9 11 14 14 12 9 9 9 10 11 15 17 18 21 23 26 30 35
24 24 25 27 29 31 31 31 31 29 27 26 26 23 23 21 24 23 17 14 14 12 9 12 10 11 15 18 10 14 12 10 10 9 7 8 10 12 14 14 12 12 12 12 12 15 18 19 22 25 28 32 36 40
24 24 24 26 28 30 31 30 30 30 30 30 29 20 21 19 16 15 13 16 15 12 9 11 15 14 16 16 11 13 14 11 10 10 10 9 11 12 15 14 13 15 14 15 16 18 20 23 25 28 31 35 39 44
24 23 24 25 26 28 28 30 30 30 28 28 27 27 24 19 16 12 15 16 14 13 12 12 17 19 17 19 17 15 14 14 12 10 11 11 12 15 16 15 15 15 16 17 18 19 23 26 28 32 35 40 44 48
22 21 21 24 26 26 26 26 26 26 25 25 26 30 29 24 20 17 17 14 11 12 12 14 16 20 21 21 22 20 17 16 15 15 15 14 13 16 17 16 16 16 16 18 20 24 26 28 31 35 39 43 48 53
21 21 22 23 22 22 21 21 21 22 24 23 25 27 25 22 19 18 17 13 11 12 14 15 16 19 23 22 23 22 20 18 17 16 16 16 14 15 16 15 16 17 19 22 24 26 29 32 35 39 44 49 54 58
21 20 20 20 20 20 19 20 20 21 21 24 26 24 21 20 19 19 16 14 12 15 14 15 17 20 22 24 23 22 20 18 18 18 18 15 15 16 16 17 19 20 21 24 26 29 32 35 38 43 49 53 58 63
18 17 17 17 16 16 16 17 17 19 22 23 23 20 17 17 19 19 16 11 15 15 16 16 17 20 21 22 22 20 20 19 19 17 17 17 17 18 19 20 20 22 24 27 29 32 35 39 43 48 53 57 61 66
16 15 15 14 14 16 17 18 20 21 21 20 18 16 18 21 19 16 11 13 15 16 17 16 18 19 20 21 20 20 19 19 17 18 19 19 19 20 21 22 23 25 27 29 32 35 39 43 48 53 57 62 66 70
10 13 16 16 15 14 16 17 18 18 20 17 15 17 19 22 21 13 11 15 19 18 15 17 18 19 20 20 20 18 18 18 18 18 19 20 21 22 23 25 26 28 29 31 35 39 43 47 52 57 61 66 68 72
7 5 8 13 13 14 15 18 20 21 22 22 22 20 19 15 13 15 18 18 17 17 17 18 17 19 20 20 17 17 17 18 18 18 20 21 22 23 24 26 28 30 32 34 38 42 47 51 56 60 65 68 71 72
12 12 11 12 14 17 17 17 17 17 18 19 19 19 19 19 19 20 20 17 18 20 19 18 19 20 20 18 17 18 20 21 21 20 21 22 23 25 27 30 32 32 34 38 42 46 50 56 59 64 66 69 70 71
19 18 17 17 17 20 21 20 19 19 20 19 18 19 19 19 19 20 19 19 21 20 20 19 19 19 19 18 19 21 21 21 21 21 22 24 26 28 30 32 33 35 37 41 45 49 54 58 62 65 67 68 69 73
22 22 22 22 23 22 25 25 24 22 24 23 20 21 20 20 21 20 19 21 21 20 19 18 19 19 20 20 21 21 21 21 21 22 24 26 28 30 32 33 34 36 40 45 48 53 56 59 63 64 65 67 71 74
24 22 22 21 20 21 21 23 22 22 22 23 22 22 21 20 20 21 20 20 20 18 17 18 20 21 22 21 21 20 20 21 22 23 25 27 29 31 33 35 37 41 43 48 51 54 57 61 61 62 65 69 72 74
22 22 21 20 19 18 18 18 17 18 17 18 19 19 18 19 20 19 19 19 18 18 20 21 21 21 22 21 21 21 21 22 23 24 26 29 31 33 35 37 40 43 46 50 53 56 59 59 60 63 67 70 72 67

GFSWCAN_500_spd_105.txt.gz
Wind_Speed
25 24 22 21 21 22 25 26 26 26 29 32 33 33 32 29 26 26 23 20 19 17 15 12 10 7 9 11 10 9 14 17 13 7 8 8 7 10 16 16 14 9 10 7 8 11 14 10 8 7 8 6 3 3
26 25 23 22 23 25 28 28 27 29 34 33 35 32 29 26 23 24 20 19 16 15 14 11 8 7 8 10 11 12 11 10 18 13 12 8 9 7 18 21 18 16 12 6 5 9 9 8 8 6 4 2 1 5
25 25 26 26 27 29 28 27 29 33 33 30 30 31 30 25 21 20 18 16 15 14 12 10 8 8 8 11 13 16 15 11 10 18 14 11 7 7 9 16 20 19 15 10 12 13 13 10 7 3 1 3 6 9
25 25 26 28 29 27 26 26 32 30 30 29 28 28 27 21 19 17 17 16 15 13 11 10 7 6 8 11 13 15 13 13 11 9 16 16 12 8 12 13 15 17 19 15 17 14 10 5 3 2 2 4 9 10
23 26 27 29 31 30 28 28 30 29 28 27 28 26 23 18 18 17 16 15 14 12 9 6 5 7 9 13 13 13 11 9 11 10 12 16 15 11 18 14 14 17 19 18 14 13 10 5 3 3 7 11 10 7
24 25 26 30 32 31 32 31 29 30 28 28 26 24 21 17 17 16 16 15 12 10 7 5 5 5 9 12 16 18 15 11 8 9 9 13 17 14 18 16 13 11 14 14 12 7 3 2 5 7 8 9 9 8
23 25 26 28 31 33 33 32 33 31 26 25 24 22 18 18 17 18 18 15 13 10 7 5 2 0 4 8 14 21 21 15 6 3 6 11 14 15 18 18 14 13 13 11 8 2 3 5 7 9 9 9 5 6
21 22 23 25 29 29 33 33 31 31 28 26 23 20 18 19 17 19 18 15 12 11 9 6 2 2 3 2 7 15 27 20 9 5 5 9 13 15 16 15 16 15 15 15 13 9 8 10 9 7 3 2 1 4
19 19 19 22 28 29 32 32 28 27 27 26 23 21 20 20 20 19 17 15 13 10 10 6 2 2 4 2 3 4 17 21 12 7 7 9 12 13 14 14 14 16 18 18 15 10 11 10 9 9 5 5 5 5
18 19 19 22 26 29 29 29 29 28 27 25 23 23 21 21 22 19 17 15 12 11 11 10 6 2 3 2 3 5 15 13 11 10 8 7 9 13 10 13 15 20 21 20 16 17 14 14 11 11 10 8 6 5
19 18 19 21 23 28 30 29 27 23 22 22 21 21 20 21 20 18 16 14 12 11 9 9 9 5 3 3 6 8 11 11 12 11 9 7 8 9 10 10 11 11 14 16 17 17 15 15 16 12 10 7 6 4
22 20 20 21 22 22 24 28 27 25 23 24 23 22 23 22 19 17 16 14 11 10 8 7 7 6 5 4 5 9 10 11 14 10 8 7 9 8 10 8 8 12 16 19 17 16 16 17 13 9 6 5 5 6
26 23 21 21 20 21 22 24 26 27 27 27 24 24 23 21 18 17 14 13 11 9 8 7 6 6 6 7 7 10 10 14 14 10 8 9 9 9 11 8 9 11 16 17 19 17 13 11 9 6 5 6 7 8
27 24 22 21 20 20 20 21 23 24 24 24 24 22 24 21 19 17 14 12 10 10 9 7 7 6 5 7 8 10 12 16 16 11 9 11 11 9 7 10 13 14 17 17 15 15 12 8 4 5 6 6 8 11
27 25 23 23 22 20 19 20 21 22 21 21 22 24 23 20 19 16 13 11 10 11 10 8 6 6 6 7 7 12 15 17 17 13 13 13 13 12 10 11 13 14 15 14 15 13 9 5 2 5 7 8 12 14
27 26 26 25 24 24 23 21 21 21 21 22 22 21 20 20 19 17 14 12 11 12 9 7 7 7 7 9 10 14 18 17 19 15 12 13 13 14 13 13 12 12 12 11 10 9 6 4 5 7 9 12 15 18
27 27 27 28 27 26 26 25 22 21 21 20 19 19 19 21 20 17 15 13 13 11 8 6 7 7 5 3 4 13 17 18 18 15 12 11 11 14 14 13 14 13 12 10 10 8 8 8 9 11 13 16 19 22
27 26 27 28 28 28 28 28 27 25 23 20 21 21 21 22 20 20 19 16 14 12 8 7 8 8 8 5 5 13 16 18 16 13 11 11 11 11 13 16 15 14 13 12 11 12 11 13 12 14 17 20 24 27
23 24 25 27 28 28 30 29 28 27 25 23 24 24 23 23 23 21 19 18 15 12 10 9 10 10 11 9 8 13 15 15 14 11 10 10 11 11 13 16 18 18 17 16 15 16 17 17 16 18 21 25 29 32
24 24 25 26 27 29 30 30 29 27 26 24 24 24 24 24 23 24 23 19 14 13 11 11 15 13 12 13 12 13 15 14 14 13 11 10 10 11 13 16 20 21 20 19 18 20 21 19 19 23 26 30 33 35
22 23 24 25 27 28 28 29 29 30 28 27 25 22 21 22 20 19 19 17 15 13 14 14 14 17 13 12 14 14 17 16 14 12 11 11 13 14 16 19 21 23 22 21 21 23 22 21 24 27 31 34 37 40
20 20 21 22 24 25 27 29 29 29 29 26 26 23 21 23 23 19 15 14 13 15 15 17 15 15 18 17 18 18 17 16 16 15 15 16 15 16 16 18 22 23 23 22 23 22 23 24 27 31 34 37 41 44
19 19 20 21 22 23 23 25 26 26 25 25 25 25 26 27 25 22 17 12 12 16 17 17 16 15 18 21 22 23 24 22 20 18 18 18 17 18 16 17 20 22 22 22 23 23 25 28 32 34 37 41 44 48
20 19 18 19 20 20 21 23 24 24 23 24 24 25 25 27 26 25 19 14 14 15 16 17 17 16 18 21 24 24 26 25 24 22 21 21 20 19 17 18 21 22 23 23 23 25 29 32 34 37 41 44 48 53
17 18 16 16 16 18 20 20 20 20 21 22 23 23 21 23 24 22 17 15 15 16 17 18 18 17 18 20 23 25 26 26 25 23 22 22 21 19 18 19 21 22 23 24 26 29 32 34 37 40 44 48 52 57
16 16 15 14 15 17 18 18 18 17 18 21 21 20 22 23 21 16 12 12 17 19 18 18 17 18 19 20 22 24 25 24 24 23 22 22 20 20 20 20 22 23 25 27 30 32 34 36 40 43 47 50 56 61
15 16 17 15 14 15 16 18 19 19 19 19 18 19 19 19 15 11 11 14 15 17 19 18 17 18 18 19 20 21 22 22 22 22 22 21 21 21 21 21 22 24 27 29 31 33 35 38 42 46 49 54 59 63
12 11 15 14 14 15 15 17 18 19 20 19 19 19 18 15 13 15 18 21 21 20 18 19 18 19 19 18 18 19 20 21 22 21 20 21 20 20 21 22 24 26 29 30 33 35 38 41 45 48 52 56 61 64
10 11 13 16 15 13 14 16 16 17 18 20 22 23 22 20 19 19 19 21 21 18 18 18 19 20 19 18 18 19 19 20 20 21 22 23 23 23 24 25 26 28 30 33 35 38 40 44 47 51 54 58 62 66
9 11 14 15 15 15 16 16 16 16 16 16 17 19 20 20 20 21 21 20 20 18 19 20 21 21 20 19 18 19 20 20 21 21 22 23 23 23 24 26 28 30 33 35 37 40 43 46 50 52 56 60 64 65
17 17 17 17 16 16 17 20 21 21 23 22 20 20 20 20 20 20 20 21 20 20 20 20 22 21 20 19 19 20 21 21 21 22 22 22 22 24 25 27 29 32 35 37 40 42 45 49 52 54 58 62 63 65
21 22 22 22 22 22 23 24 24 25 27 28 25 25 28 25 22 21 20 21 21 21 20 21 22 21 20 19 20 20 21 21 21 21 21 22 23 25 26 28 31 34 37 39 42 45 48 51 53 57 60 60 62 66
23 21 22 23 22 22 22 22 22 22 20 21 22 23 26 26 24 21 22 22 22 22 21 21 19 18 19 19 20 21 22 22 21 21 21 23 25 27 29 31 35 38 40 43 45 47 50 52 55 57 58 60 64 68

GFSWCAN_500_spd_108.txt.gz
Wind_Speed
19 25 27 28 29 30 30 31 31 31 31 29 28 28 27 26 30 28 26 24 21 21 17 16 16 13 11 10 12 12 12 13 19 12 15 12 8 10 15 14 12 9 17 16 9 15 14 12 10 8 9 8 7 6
19 22 23 26 26 26 25 28 29 30 30 30 29 28 31 32 30 27 24 23 22 21 17 15 13 12 10 10 12 14 11 12 20 16 15 16 11 11 15 17 16 12 12 8 8 11 11 7 7 6 7 6 4 3
17 19 22 23 24 24 24 25 28 28 33 34 33 34 33 30 28 27 24 20 20 19 16 13 12 11 10 11 13 15 14 13 12 18 16 17 12 11 12 18 18 18 13 10 11 15 11 10 9 6 4 2 2 3
19 19 22 23 25 24 26 28 28 32 34 36 36 33 31 27 23 23 20 18 20 17 14 12 9 8 9 10 12 14 16 15 15 12 17 19 16 11 9 11 18 19 16 14 12 13 14 11 8 5 5 5 4 4
22 22 24 25 25 25 27 28 31 31 35 35 32 31 28 22 21 21 19 19 18 16 11 10 8 9 9 9 12 13 13 12 12 15 11 18 20 17 11 10 13 16 20 19 16 15 13 10 9 8 4 5 6 4
23 24 24 27 27 27 26 29 28 31 32 31 31 29 24 20 19 18 17 18 16 14 9 8 8 6 7 9 11 12 12 11 9 9 12 14 18 20 14 14 13 13 16 19 16 16 13 10 9 5 6 8 8 8
24 24 26 28 30 29 25 27 27 24 20 26 26 23 20 18 17 16 17 17 15 11 9 8 7 4 3 6 10 14 17 16 12 6 8 11 17 19 17 19 16 10 9 14 15 13 9 6 3 5 7 9 10 9
25 26 25 26 28 30 31 27 28 24 21 23 21 20 19 18 18 15 16 15 13 11 10 9 7 4 2 3 7 12 18 21 16 9 6 9 14 17 18 18 20 14 7 7 10 10 4 1 2 3 8 7 5 4
20 21 22 23 22 24 31 32 31 27 25 25 24 21 18 18 16 15 17 15 13 11 11 9 7 3 2 4 4 6 11 20 20 13 7 9 12 15 18 18 15 19 14 9 8 9 5 5 5 7 7 6 5 5
18 19 20 22 23 23 27 29 31 33 31 26 23 20 19 18 15 17 16 15 13 13 12 11 8 4 3 4 3 4 2 10 19 11 8 9 11 14 16 19 17 14 13 12 13 12 11 10 9 10 13 11 8 6
19 18 19 21 24 25 26 29 30 30 29 23 19 18 20 19 17 18 15 14 14 12 11 11 9 7 6 4 2 3 5 11 12 11 9 8 9 12 12 14 18 17 16 17 19 19 17 14 13 14 13 11 8 8
19 18 20 21 23 25 27 28 28 27 24 22 22 22 20 17 18 17 16 15 13 11 10 10 9 8 6 4 4 6 7 11 11 9 8 8 8 7 9 11 13 15 16 17 16 16 18 18 17 16 12 10 10 9
20 20 20 21 22 26 28 28 28 27 27 26 24 22 21 20 20 19 15 12 11 9 9 9 8 7 6 5 6 6 8 9 9 9 6 6 6 6 9 10 10 12 14 16 18 18 18 18 18 15 13 12 10 10
21 21 20 20 21 21 23 27 27 26 25 24 22 22 21 21 19 15 14 12 11 10 9 8 7 5 5 5 6 7 10 9 13 10 7 6 5 4 6 7 7 10 16 16 14 18 18 16 16 14 11 10 10 10
22 21 21 20 19 19 19 21 22 22 23 24 22 21 21 19 17 15 13 12 11 11 10 9 7 5 5 6 7 6 10 12 15 13 9 8 6 5 5 7 9 10 12 15 18 17 15 13 10 8 8 10 12 12
24 22 20 18 18 18 19 20 21 22 22 21 22 21 20 19 17 14 13 12 11 11 10 9 7 7 7 7 9 12 12 16 17 15 10 10 9 9 8 8 10 12 14 13 14 15 13 11 9 7 9 12 14 14
23 21 20 19 18 17 16 16 17 18 18 19 20 21 22 19 16 14 13 12 10 11 11 8 6 6 7 7 8 7 13 16 17 16 13 10 11 12 11 10 10 11 12 12 12 13 12 11 11 11 12 13 15 16
23 21 20 20 18 18 18 18 16 15 16 19 21 20 19 18 16 15 14 13 11 11 9 7 7 7 7 6 6 4 12 14 17 15 14 11 11 11 13 14 13 15 16 14 14 14 14 14 15 15 16 17 18 21
23 21 20 20 21 21 21 20 20 19 20 20 21 21 21 19 18 16 15 14 13 10 10 9 9 8 7 7 6 7 12 16 15 13 12 12 12 12 12 14 16 18 18 19 18 17 18 19 18 19 21 22 23 26
22 20 21 21 21 23 24 23 23 23 23 22 22 22 22 21 20 19 18 16 14 10 11 13 12 8 8 9 7 6 12 15 15 14 12 11 11 12 12 13 15 17 20 23 23 23 23 22 22 23 26 27 28 30
19 19 19 21 23 24 25 25 25 26 24 23 24 25 23 22 22 21 20 18 14 12 14 13 13 10 11 11 11 13 14 16 14 14 13 13 13 13 13 14 16 19 22 24 27 28 27 25 26 26 29 30 32 35
18 19 19 21 23 24 25 26 27 26 26 24 25 25 24 23 22 20 17 14 13 16 17 16 15 13 12 14 14 16 16 17 19 17 15 14 13 13 14 16 18 21 22 24 26 28 28 28 28 29 31 33 35 38
19 18 19 20 21 22 24 25 26 27 27 26 24 24 24 23 23 23 19 15 14 16 17 17 16 17 16 16 17 19 21 20 19 18 18 17 16 17 16 17 20 22 23 25 27 28 27 28 29 31 32 35 39 42
18 17 17 18 18 17 18 22 23 26 26 26 25 24 24 23 22 23 20 17 14 14 15 17 18 19 19 19 19 20 22 25 25 24 21 19 19 20 20 20 20 20 21 24 25 26 27 28 29 31 34 38 42 45
17 16 15 14 14 14 17 19 20 21 21 22 23 23 23 24 25 24 21 17 18 18 16 16 18 19 20 19 19 21 21 24 25 25 24 23 23 23 22 22 21 22 22 24 24 25 27 29 31 34 37 40 43 47
13 13 12 13 16 17 18 19 19 19 20 22 23 23 21 22 22 19 16 17 20 20 19 19 18 19 19 20 20 20 21 22 25 26 25 24 23 23 24 23 23 23 22 22 23 25 27 30 33 35 38 41 45 49
13 14 16 16 16 16 17 18 18 19 19 19 18 19 20 19 15 12 14 19 19 21 21 19 19 19 20 21 21 19 19 20 21 22 23 23 23 24 24 23 22 22 21 22 24 26 29 31 34 36 40 43 47 51
13 13 12 14 14 14 16 16 17 17 17 14 14 15 15 12 13 15 17 18 19 20 21 20 19 19 21 21 18 17 16 17 19 19 20 22 24 24 22 22 22 22 23 24 27 29 31 33 36 39 42 46 49 52
12 13 13 11 12 12 11 10 12 12 14 15 16 17 16 17 16 18 19 20 21 22 22 22 20 19 19 18 17 17 17 16 16 18 20 22 22 22 23 24 24 24 25 27 29 31 33 35 38 41 44 47 51 54
13 14 16 17 16 15 13 13 14 15 16 17 17 16 17 19 20 21 23 23 22 21 21 19 17 18 18 18 18 19 18 17 18 19 20 21 23 23 23 23 24 25 26 28 30 32 34 37 40 43 47 50 53 57
13 14 16 18 18 18 19 20 19 18 18 17 18 18 18 18 19 20 21 21 21 20 20 20 19 20 19 19 20 19 19 19 19 19 21 23 23 23 23 23 24 26 28 30 32 34 37 40 43 47 50 53 55 58
19 19 20 20 21 21 22 22 22 23 24 25 27 26 24 22 20 20 22 22 22 21 22 21 22 21 19 19 19 20 20 19 20 21 23 24 23 23 23 25 27 28 31 33 35 38 40 43 46 49 51 53 56 57
23 21 21 21 21 21 22 25 26 26 26 27 28 29 31 30 27 25 27 28 26 24 24 24 23 20 19 19 20 21 20 20 21 23 23 23 23 24 25 27 29 31 33 35 37 40 42 45 47 49 52 54 55 58

GFSWCAN_500_spd_111.txt.gz
Wind_Speed
10 16 23 26 29 31 33 34 34 35 35 35 34 32 30 27 28 27 25 26 28 29 28 26 24 19 16 14 12 10 9 9 9 11 10 12 10 11 18 13 10 5 10 14 18 16 14 15 14 14 12 12 12 8
13 17 21 26 29 31 32 32 32 32 31 29 30 29 28 28 27 27 25 27 27 29 23 24 20 18 16 12 10 9 10 8 9 16 12 13 14 10 8 14 14 6 12 17 17 17 15 13 12 13 12 11 9 7
17 20 26 27 29 30 31 31 30 30 30 31 29 27 29 27 27 30 30 29 25 25 24 20 17 16 12 9 8 10 10 10 10 12 19 16 14 14 12 11 17 14 11 11 16 19 13 11 10 12 11 9 8 6
21 22 26 27 28 29 29 30 30 31 31 31 30 28 29 31 32 30 25 23 23 23 19 16 14 11 8 8 8 9 11 12 13 13 15 21 17 14 9 9 13 18 14 12 13 16 12 11 12 10 11 8 7 4
22 23 27 31 30 30 30 32 33 32 31 31 30 32 33 32 29 25 22 21 21 20 17 15 13 11 8 7 7 8 11 13 14 14 16 18 21 18 14 7 9 15 18 16 14 15 15 14 12 10 10 7 4 2
22 23 24 25 30 34 34 32 31 30 30 31 34 33 30 25 24 24 20 20 21 18 16 13 12 8 6 5 6 8 10 11 9 9 14 15 19 19 16 10 10 11 16 19 17 15 16 15 14 14 8 4 1 5
19 21 24 29 33 32 28 30 32 29 29 29 31 28 24 22 23 19 17 19 19 18 14 12 10 7 5 3 4 6 9 10 11 10 8 12 14 20 18 14 12 12 15 20 19 16 15 16 17 13 8 3 4 8
22 21 28 30 27 26 25 27 25 27 24 29 27 24 22 19 19 17 18 19 18 17 14 12 11 8 4 1 2 5 9 13 15 12 11 10 11 17 17 14 16 12 11 14 18 18 16 13 13 10 6 3 5 6
21 23 27 31 27 25 24 24 20 19 20 26 24 21 20 19 17 17 18 18 18 16 15 12 9 7 4 0 2 5 8 15 18 18 12 9 10 12 17 17 16 18 13 13 16 15 12 8 8 8 5 4 4 5
17 18 21 24 27 26 24 22 21 20 20 21 19 20 20 17 17 16 18 18 18 16 14 11 8 6 3 2 4 5 7 7 12 19 13 9 9 10 14 18 16 12 20 10 11 8 9 7 6 7 7 8 8 8
18 18 19 21 22 23 25 25 24 23 22 20 20 21 18 18 17 17 18 17 16 14 12 10 7 6 4 3 4 3 1 6 12 14 9 7 9 10 11 14 18 16 13 15 14 14 14 12 11 10 11 12 12 12
17 18 19 20 21 23 25 25 24 25 26 24 24 21 19 19 17 18 18 16 15 13 10 8 7 5 4 4 4 2 5 7 9 8 9 8 8 9 12 12 15 19 20 19 18 18 18 17 15 15 15 13 14 15
16 18 19 19 19 21 23 23 23 25 28 27 23 21 22 20 17 17 16 14 13 11 9 9 8 5 4 4 3 3 5 7 8 9 7 5 6 5 6 10 11 13 16 18 18 17 17 18 18 18 16 14 15 15
15 17 18 18 18 20 22 22 23 24 24 22 23 22 21 17 15 17 15 14 12 11 9 8 7 5 3 3 3 4 2 6 7 9 6 4 3 3 6 8 9 12 14 15 16 16 17 18 18 17 16 15 17 17
16 16 17 18 19 20 22 24 23 24 25 22 21 19 17 16 17 16 15 13 12 11 10 8 6 5 3 4 4 4 4 7 11 11 7 5 4 3 4 8 9 11 14 14 14 14 15 17 18 17 16 17 16 15
17 17 17 18 18 18 20 22 23 23 22 21 19 17 17 18 18 16 14 13 12 11 9 8 6 5 5 5 7 7 8 8 13 14 10 8 7 6 5 6 9 10 11 13 15 16 16 16 16 16 15 13 12 14
20 19 18 17 16 16 17 17 18 18 19 21 19 17 17 18 18 16 15 12 11 9 8 7 6 6 6 6 8 9 8 11 15 16 14 10 10 10 9 8 5 7 11 12 12 11 12 12 13 13 12 11 13 14
20 19 18 17 16 16 15 15 16 17 18 18 19 19 17 18 18 16 13 12 10 9 9 9 7 6 6 6 7 7 4 11 13 16 15 11 9 9 9 9 8 9 9 9 11 11 12 14 14 14 14 15 17 19
21 20 18 16 15 14 14 14 15 17 18 19 19 19 19 19 17 15 13 11 10 9 10 10 9 7 6 6 6 5 6 10 13 15 14 12 10 9 9 10 11 12 12 13 14 15 15 17 18 17 19 21 24 25
20 17 15 15 14 13 13 14 15 17 18 19 19 19 19 18 16 15 14 12 11 11 11 11 9 7 6 5 5 3 7 10 14 13 13 12 11 11 11 10 11 12 15 17 19 20 22 22 23 23 25 28 29 30
18 16 15 15 14 14 14 16 17 19 19 18 18 18 18 18 17 17 15 14 12 13 12 11 10 10 8 9 9 8 6 10 15 13 12 12 11 11 10 11 11 13 15 18 20 23 25 27 29 30 31 32 34 35
16 16 15 15 15 15 16 17 19 20 21 21 21 20 20 20 19 19 16 15 15 17 13 12 12 11 11 10 11 10 10 11 14 16 15 14 13 12 11 11 12 14 16 18 21 23 24 27 29 30 32 34 34 36
16 16 16 16 16 18 19 20 21 22 23 23 24 24 23 22 21 20 18 17 18 14 14 15 15 15 14 14 12 11 13 15 16 16 20 18 17 16 15 15 15 17 18 20 23 25 26 27 28 29 31 32 34 36
15 15 16 17 17 16 18 19 21 22 23 24 26 27 25 24 23 21 18 18 19 16 15 13 14 14 15 16 16 16 14 16 19 21 19 20 20 19 18 17 18 20 21 23 24 24 25 26 28 29 31 33 35 37
14 13 13 12 13 13 14 15 17 19 20 21 22 23 23 23 23 22 19 22 22 22 18 16 14 14 16 17 17 18 17 16 17 20 24 25 24 23 21 21 22 23 24 23 22 23 24 24 26 28 31 33 35 37
12 12 11 12 12 14 15 16 16 17 18 20 20 19 20 22 22 20 18 20 24 26 25 20 16 15 16 17 18 18 18 18 18 18 20 23 24 23 23 24 24 24 24 24 25 25 25 25 26 28 31 33 35 38
11 11 12 13 13 15 15 15 16 16 17 17 18 18 18 17 16 13 15 20 25 28 24 18 17 16 16 16 18 19 19 19 19 17 17 19 22 23 23 23 22 25 25 25 25 25 25 26 28 30 32 35 38 41
12 12 11 10 11 12 12 12 13 13 12 13 13 14 12 12 15 16 18 22 22 18 17 18 18 16 15 15 17 18 19 17 15 15 15 16 18 19 20 22 24 25 26 26 26 26 26 28 30 32 34 37 39 41
9 9 8 8 7 8 9 9 9 10 10 10 9 9 9 13 16 17 16 14 15 16 16 17 19 18 17 16 16 16 16 15 14 14 14 15 16 18 22 23 25 26 26 26 25 25 26 28 31 34 36 38 41 44
8 8 8 9 9 8 8 9 10 10 12 13 13 11 11 13 15 16 16 16 17 19 19 19 17 17 16 16 16 16 16 15 14 15 16 16 18 21 23 24 25 25 25 24 25 27 29 31 33 36 38 41 43 46
10 11 12 13 14 14 15 14 14 15 15 15 15 16 16 16 16 17 18 20 20 21 21 20 20 20 18 17 17 16 16 16 16 17 18 18 20 22 24 24 24 24 24 25 27 30 32 34 36 37 39 42 45 48
17 17 18 18 19 21 20 20 21 20 20 19 18 17 18 18 18 18 20 19 19 20 20 20 19 18 17 18 18 17 16 16 17 18 19 21 22 23 25 25 24 24 25 26 29 32 34 34 37 40 42 45 47 49
19 20 19 21 22 23 24 25 25 24 23 23 23 23 24 25 25 24 24 25 26 25 25 23 20 19 20 20 19 18 18 18 19 19 20 22 23 25 26 25 25 24 25 29 32 33 35 38 40 43 45 46 49 50

GFSWCAN_500_spd_114.txt.gz
Wind_Speed
16 20 29 39 44 38 38 43 47 53 42 49 51 32 39 40 39 44 41 37 37 36 32 30 29 26 25 25 18 17 13 11 9 9 10 13 10 10 14 17 18 14 16 15 15 16 12 13 11 11 12 16 12 12
20 23 30 35 45 47 46 48 38 42 40 39 42 45 46 44 39 43 36 34 33 31 28 27 24 24 24 20 17 13 11 10 9 8 12 14 13 13 10 14 20 14 14 17 19 19 16 14 14 14 15 13 13 12
24 25 30 34 38 40 43 42 35 37 37 38 38 37 38 41 38 34 33 31 29 29 27 26 27 25 21 18 14 13 11 9 9 9 14 15 12 14 12 11 17 16 9 16 16 18 17 17 16 19 15 15 13 9
26 28 30 33 35 38 39 38 38 36 34 34 34 34 32 32 33 32 29 28 28 26 27 27 27 23 19 15 12 10 10 10 10 11 13 18 18 14 13 12 14 17 14 14 21 20 20 17 15 15 16 14 13 9
27 30 31 31 32 32 33 34 34 34 33 32 32 31 33 33 32 31 32 30 30 29 27 25 23 20 16 12 10 9 9 10 12 13 15 16 21 21 16 13 10 12 16 15 17 25 22 18 16 15 16 14 12 9
28 30 30 30 31 31 30 32 32 31 31 33 36 35 33 32 33 33 31 31 30 25 25 23 21 17 13 10 9 8 9 10 12 13 14 17 19 21 20 16 12 11 15 19 17 16 18 19 18 18 17 14 11 8
22 26 29 32 32 34 33 32 34 36 36 34 34 36 36 34 30 26 24 24 26 24 24 22 18 14 12 10 8 6 6 8 9 9 10 13 18 16 20 18 15 10 12 20 22 18 18 21 22 22 17 13 8 5
25 25 34 35 33 31 35 35 33 32 30 33 37 33 29 28 28 24 25 25 25 22 21 18 15 14 11 9 6 3 5 7 9 10 10 11 14 15 16 19 17 15 12 18 23 22 19 19 22 20 18 13 7 4
32 34 36 32 28 27 27 25 25 25 29 30 29 26 26 26 25 24 25 25 24 22 19 17 15 13 10 6 4 3 4 8 11 14 13 12 11 11 11 19 19 16 16 17 25 23 21 20 20 19 16 11 7 6
35 35 31 30 26 25 24 20 20 23 25 26 25 25 23 24 22 22 24 25 23 21 19 17 13 10 6 4 3 2 5 9 13 16 19 15 9 8 10 15 19 18 19 18 20 21 20 17 17 19 14 12 10 8
24 27 31 30 28 27 24 20 18 24 25 24 23 22 21 21 21 22 23 23 22 20 18 14 12 9 6 4 3 2 3 2 3 9 16 11 8 8 9 12 19 20 18 21 23 22 18 15 14 14 15 14 12 12
25 24 23 25 27 26 25 26 26 25 25 24 23 24 22 21 21 21 24 22 21 19 16 13 11 8 6 4 3 2 4 6 10 12 10 8 9 9 9 12 17 19 16 23 22 19 17 15 14 15 16 14 16 15
21 23 24 25 25 25 26 25 26 26 24 23 24 23 21 20 19 20 21 20 19 17 15 13 10 8 5 4 4 4 4 9 10 10 9 8 8 7 7 13 14 18 19 15 18 18 19 21 19 18 17 17 16 14
20 21 23 22 24 25 25 24 22 20 20 21 20 18 16 18 17 20 21 20 19 16 14 12 9 7 6 4 3 3 3 8 8 8 9 6 5 5 7 10 13 15 18 22 22 23 23 21 20 19 19 18 15 14
19 19 20 21 22 23 23 22 21 21 22 21 19 17 17 18 18 21 20 19 17 15 13 11 8 7 6 5 5 4 3 6 8 10 9 6 5 3 6 7 9 12 15 17 19 20 20 19 18 19 19 17 15 13
17 18 19 20 19 18 19 20 19 20 21 19 17 17 18 18 20 20 20 18 16 14 12 10 9 7 6 5 5 5 5 5 11 13 11 8 7 5 3 4 7 9 14 15 16 17 18 19 20 20 19 16 15 15
17 17 18 18 19 17 17 18 18 18 18 18 19 18 18 20 21 20 18 16 14 12 11 11 9 7 6 5 6 7 7 8 12 16 15 11 11 9 7 4 3 6 10 12 14 18 18 19 16 13 13 13 14 16
16 17 17 17 17 17 16 16 16 16 17 18 19 19 19 20 20 18 16 15 14 12 12 11 8 7 6 6 6 7 7 6 10 14 15 13 12 12 11 11 9 7 9 14 15 13 12 12 12 12 14 15 17 19
18 17 17 16 16 16 16 16 17 16 18 19 18 18 19 21 21 19 17 15 13 13 12 10 8 7 7 7 7 6 5 4 8 12 15 13 11 11 10 11 11 11 11 10 9 9 10 11 13 15 16 18 21 23
18 17 16 15 15 15 14 14 14 15 16 15 17 18 18 19 20 18 15 14 14 14 12 9 8 9 7 7 6 3 3 5 9 11 11 13 12 10 10 9 9 9 10 11 12 13 14 16 18 19 21 24 26 28
19 17 15 13 12 12 12 12 13 13 13 13 14 16 19 19 18 17 15 15 16 14 11 10 10 10 10 8 6 7 4 4 8 14 11 12 12 11 10 10 9 9 10 11 13 15 17 19 22 25 28 30 32 34
18 16 14 12 12 11 11 12 13 14 15 15 16 17 18 18 18 16 16 16 16 14 13 11 11 11 10 10 9 9 9 9 8 11 17 14 12 12 12 12 11 10 10 12 14 15 17 20 23 26 28 30 32 34
16 15 14 12 13 13 13 14 14 15 17 18 19 20 20 20 20 18 17 16 19 16 13 11 12 14 14 12 11 10 11 12 13 13 14 17 17 16 15 16 15 15 14 13 17 19 22 24 27 29 32 33 35 36
15 14 14 15 15 16 16 17 17 18 19 21 23 23 23 23 21 20 18 19 20 16 14 13 13 13 14 14 13 14 14 13 13 15 18 19 18 20 20 19 18 18 18 18 20 22 24 27 28 29 31 32 32 33
15 15 15 15 16 17 18 19 20 21 21 22 23 25 25 24 23 21 19 20 20 16 16 17 15 12 12 13 14 15 15 15 15 15 15 19 22 23 23 23 23 22 22 22 24 25 26 27 28 29 30 31 31 32
13 12 12 12 12 13 14 15 16 17 18 19 20 21 22 23 23 19 16 18 20 21 22 21 19 16 14 15 15 15 15 15 16 16 16 17 19 23 26 26 26 25 24 25 26 28 28 27 28 29 29 30 31 33
12 11 11 11 12 12 13 14 14 15 16 17 18 17 17 17 17 16 18 21 23 24 23 22 20 17 17 16 16 16 15 16 18 18 19 19 18 19 22 24 24 24 25 26 27 28 27 28 30 30 30 31 33 35
12 12 11 10 10 8 8 9 10 10 10 11 11 11 11 12 14 16 18 19 20 21 20 17 16 16 16 14 14 14 16 16 16 17 17 16 16 17 18 19 21 22 24 26 27 28 29 31 31 29 29 31 33 36
6 5 5 5 5 4 5 6 8 10 11 10 10 10 12 13 13 14 15 16 16 15 13 13 15 14 15 16 16 17 17 16 15 16 16 16 16 16 17 18 19 22 23 25 28 29 28 27 27 29 32 34 36 37
6 5 5 4 4 5 6 7 7 8 9 10 10 10 11 12 11 11 10 10 11 11 12 13 15 15 14 14 14 16 17 17 17 17 16 16 17 18 18 19 21 22 24 26 26 26 25 27 28 30 32 33 35 38
7 7 7 7 9 10 10 8 7 8 8 8 8 8 9 9 9 10 11 13 14 15 15 16 16 16 15 16 17 18 19 18 18 18 17 17 18 18 19 20 21 23 25 25 25 25 25 26 29 31 34 36 38 41
12 12 12 13 13 13 13 14 15 15 15 15 14 13 14 15 16 17 16 15 16 17 18 17 16 16 16 16 16 17 18 18 18 18 19 19 19 20 20 22 24 26 27 27 26 25 26 29 32 35 37 39 41 44
19 19 19 19 20 21 21 20 19 18 19 19 20 19 18 18 17 18 20 22 21 21 22 22 20 20 20 19 19 18 18 19 19 19 20 20 20 21 22 23 26 27 27 27 26 27 29 34 36 38 39 42 44 46

GFSWCAN_500_spd_117.txt.gz
Wind_Speed
16 18 20 30 38 47 51 53 54 56 57 56 55 54 53 51 47 45 42 39 36 38 31 31 29 34 38 34 29 28 26 21 20 15 13 10 13 14 14 17 21 22 21 18 20 14 17 17 16 13 11 10 12 10
30 31 33 34 40 44 49 52 53 53 53 52 51 50 49 48 44 44 42 43 47 42 40 35 34 34 36 34 27 25 23 21 17 16 13 13 15 16 14 17 20 22 21 21 20 18 18 16 14 12 13 11 14 12
31 34 32 43 36 39 42 44 47 49 48 47 47 51 47 42 45 45 46 39 39 39 38 40 41 39 30 26 26 23 20 16 16 16 16 17 18 19 19 17 17 21 21 21 25 22 23 20 15 13 15 17 14 13
36 39 36 34 32 38 43 44 45 43 52 53 43 53 47 36 38 40 41 40 39 35 37 36 34 28 28 25 23 19 17 15 15 15 14 16 19 20 18 20 18 19 23 21 21 20 22 21 18 17 19 17 15 14
34 41 38 35 36 41 37 32 32 33 36 51 48 42 40 34 34 37 32 33 37 36 30 29 29 30 27 24 19 16 15 15 15 15 16 17 20 23 21 19 17 18 19 23 15 21 21 20 20 23 19 16 16 15
32 33 36 39 41 39 38 41 41 39 40 42 41 41 40 38 40 40 38 37 34 33 32 30 29 28 25 20 18 16 14 15 15 16 17 19 21 23 26 24 20 16 15 22 18 19 23 22 25 21 19 19 18 15
34 34 33 33 34 33 32 32 33 34 34 35 35 36 37 37 36 34 30 30 30 28 30 30 28 25 22 19 16 14 13 12 13 14 16 18 20 23 24 23 23 19 15 19 22 20 27 28 25 22 20 20 18 14
33 32 32 31 31 31 31 32 33 34 35 35 36 36 36 35 34 33 32 32 29 30 30 28 26 24 20 16 14 12 10 10 11 13 14 15 16 18 20 19 23 22 19 17 24 24 22 26 24 22 22 21 19 16
34 34 33 33 32 32 32 33 36 38 38 38 38 37 34 33 34 33 31 32 30 27 26 25 22 19 17 15 12 10 9 9 10 13 14 14 13 12 15 17 22 23 21 18 18 28 26 26 27 23 24 23 20 15
36 35 33 36 36 34 33 32 31 32 34 33 31 32 34 33 32 32 32 30 29 28 26 23 20 19 15 12 10 8 7 8 11 13 15 18 15 12 11 13 20 23 21 20 18 23 29 27 25 24 24 23 21 15
35 31 32 34 32 30 27 26 30 31 31 29 28 29 29 29 28 29 29 29 28 26 24 21 20 16 13 10 8 7 7 7 8 10 16 17 17 10 10 11 16 23 23 20 19 22 25 25 24 25 24 22 20 16
31 29 30 28 28 26 25 27 26 30 29 29 27 26 26 25 25 26 27 27 27 24 23 20 16 14 11 9 7 7 6 7 6 4 7 11 10 11 11 11 14 20 24 17 20 25 24 24 23 22 22 21 20 19
31 30 31 29 27 27 26 24 25 24 26 26 25 24 24 22 21 23 25 25 23 23 21 18 15 12 10 8 7 6 6 8 9 10 10 10 11 10 10 12 14 17 19 18 21 26 23 22 20 20 19 19 19 20
25 26 27 27 27 27 29 28 27 26 23 20 20 19 18 18 18 20 23 23 23 21 19 17 14 12 10 8 7 7 6 6 12 12 11 10 8 8 9 12 14 15 16 17 20 25 24 20 17 15 17 17 19 21
20 21 23 24 26 27 25 24 24 22 20 18 18 18 16 18 18 19 22 22 22 21 19 17 14 12 10 9 8 7 6 5 8 8 11 9 8 7 7 9 11 15 16 19 17 19 20 20 20 21 22 22 22 22
21 20 19 20 21 24 24 23 22 19 19 19 17 15 17 18 18 21 22 22 21 20 18 16 14 12 11 9 8 7 7 6 8 12 13 11 9 6 5 7 7 7 13 17 19 21 22 23 22 22 22 23 24 23
18 21 21 20 19 19 20 20 20 19 19 18 17 17 18 19 20 22 21 21 21 19 17 15 13 12 9 9 8 6 7 9 9 13 16 15 11 9 7 3 5 6 9 14 16 19 20 20 20 21 22 23 23 21
16 17 19 21 21 19 19 18 18 18 19 17 18 18 19 19 20 21 21 21 20 18 16 14 12 11 9 8 8 7 7 8 10 12 16 17 15 13 10 8 6 4 6 10 14 17 18 19 20 21 23 21 18 18
15 16 16 17 17 18 18 18 17 16 16 17 17 18 19 20 21 21 21 20 18 16 14 12 12 10 10 10 8 7 7 7 6 8 12 15 15 13 13 13 12 13 10 11 13 15 18 19 19 18 16 16 17 18
15 15 15 14 14 15 15 15 15 15 15 16 17 18 18 19 20 21 20 19 16 14 13 12 13 12 11 10 8 6 5 5 4 6 9 14 13 11 11 11 12 11 12 13 13 13 13 13 14 14 15 16 19 22
15 15 15 15 14 13 13 12 12 13 14 15 15 16 17 18 19 20 19 18 16 14 14 14 13 12 11 11 9 8 6 4 4 7 9 10 13 11 12 12 11 10 9 9 9 9 9 11 13 15 17 20 23 25
15 15 14 13 12 12 10 10 10 10 10 11 13 15 17 18 19 19 18 17 16 14 14 13 12 12 12 12 11 10 10 10 8 7 13 11 11 13 13 13 14 13 12 11 11 12 13 14 15 17 19 22 25 28
17 15 13 12 11 10 10 10 10 10 11 11 12 13 14 16 17 18 18 18 17 15 13 12 13 14 15 15 13 12 12 12 13 13 13 14 17 18 16 16 16 17 16 15 15 14 15 17 19 22 24 27 29 32
18 16 14 13 12 11 11 12 12 13 14 15 16 17 18 19 19 20 19 20 19 16 14 14 14 15 16 16 15 15 15 15 14 14 15 17 19 20 21 22 21 20 20 19 19 20 20 21 23 25 28 30 33 35
16 16 15 15 15 15 15 16 16 17 18 19 19 20 22 22 22 22 22 22 21 19 18 17 17 15 13 12 12 13 15 16 17 18 18 18 18 20 23 25 25 26 26 24 24 24 25 26 27 30 32 34 35 35
16 16 15 16 16 17 18 19 20 20 21 21 22 23 24 25 24 23 22 23 24 23 21 20 19 18 15 14 13 14 15 15 16 17 19 19 20 21 21 23 26 29 28 29 29 29 29 29 32 33 35 34 33 34
14 13 13 14 14 13 13 13 14 15 16 18 20 20 21 22 23 22 23 25 24 23 21 20 18 18 18 19 19 18 18 18 18 17 18 20 21 21 22 22 23 24 27 29 30 29 30 31 33 34 33 33 33 32
11 11 11 11 12 12 12 12 12 12 13 14 14 15 16 17 18 18 20 21 21 20 19 18 17 16 16 17 17 17 17 17 17 18 20 20 21 21 21 20 20 21 22 24 26 27 29 31 31 31 31 29 29 32
8 9 8 8 7 8 8 8 9 10 11 11 11 11 13 14 14 15 16 18 18 18 17 15 15 15 14 13 13 15 17 18 20 20 20 21 21 20 19 19 19 19 20 21 23 26 27 27 28 28 28 29 30 32
6 6 5 4 4 4 4 5 6 6 7 8 9 10 11 11 12 12 13 14 14 14 12 11 11 11 12 14 15 15 15 17 19 20 19 20 20 19 19 20 20 20 21 23 24 24 25 27 26 27 28 29 32 35
5 6 6 6 6 5 4 3 4 4 4 5 6 8 9 8 7 8 8 9 10 12 13 12 12 13 14 16 17 17 18 19 19 19 20 20 19 19 20 21 21 22 23 24 23 25 27 27 27 27 28 31 35 38
7 8 9 8 9 9 8 9 9 10 10 9 9 10 11 11 10 11 12 14 14 15 15 14 15 16 16 15 16 17 18 19 18 18 19 20 19 19 21 22 23 23 23 24 26 28 27 27 27 29 31 35 39 42
16 15 14 14 15 16 17 17 16 16 16 16 15 15 14 14 14 13 15 17 18 18 18 19 19 19 20 20 19 19 21 22 21 20 21 21 20 20 22 23 24 24 25 27 28 27 27 28 29 33 36 40 42 44